[[{"header":{"parameterUnit":"m.s-1","parameterCategory":1,"la1":30.6,"la2":29.2853,"lo1":-89.7004,"lo2":-87.6739,"dy":0.0162,"dx":0.0183,"nx":112,"ny":82,"refTime":"2024-08-21T06:00:00:Z","depth":0,"parameterNumber":2,"parameterNumberName":"U-component_of_WINDS"},"data":[0.0,0.0,0.0,0.0,0.0,0.0,0.0,0.0,0.0,0.0,0.0,0.0,0.0,0.0,0.0,0.0,0.0,0.0,0.0,0.0,0.0,0.0,0.0,0.0,0.0,0.0,0.0,0.0,0.0,0.0,0.0,0.0,0.0,0.0,0.0,0.0,0.0,0.0,0.0,0.0,0.0,0.0,0.0,0.0,0.0,0.0,0.0,0.0,0.0,0.0,0.0,0.0,0.0,0.0,0.0,0.0,0.0,0.0,0.0,0.0,0.0,0.0,0.0,0.0,0.0,0.0,0.0,0.0,0.0,0.0,0.0,0.0,0.0,0.0,0.0,0.0,0.0,0.0,0.0,0.0,0.0,0.0,0.0,0.0,0.0,0.0,0.0,0.0,0.0,0.0,0.0,1.6654,1.6426,1.6124,1.5672,1.4694,1.3779,1.293,0.0,0.0,0.0,0.0,0.0,0.0,0.0,0.0,0.0,0.0,0.0,0.0,0.0,0.0,0.0,0.0,0.0,0.0,0.0,0.0,0.0,0.0,0.0,0.0,0.0,0.0,0.0,0.0,0.0,0.0,0.0,0.0,0.0,0.0,0.0,0.0,0.0,0.0,0.0,0.0,0.0,0.0,0.0,0.0,0.0,0.0,0.0,0.0,0.0,0.0,0.0,0.0,0.0,0.0,0.0,0.0,0.0,0.0,0.0,0.0,0.0,0.0,0.0,0.0,0.0,0.0,0.0,0.0,0.0,0.0,0.0,0.0,0.0,0.0,0.0,0.0,0.0,0.0,0.0,0.0,0.0,0.0,0.0,0.0,0.0,0.0,0.0,0.0,0.0,0.0,0.0,0.0,0.0,0.0,0.0,0.0,0.0,0.0,0.0,0.0,0.0,0.0,0.0,0.0,1.5966,1.6118,1.6137,1.5941,1.5468,1.4629,1.3779,1.293,0.0,0.0,0.0,0.0,0.0,0.0,0.0,0.0,0.0,0.0,0.0,0.0,0.0,0.0,0.0,0.0,0.0,0.0,0.0,0.0,0.0,0.0,0.0,0.0,0.0,0.0,0.0,0.0,0.0,0.0,0.0,0.0,0.0,0.0,0.0,0.0,0.0,0.0,0.0,0.0,0.0,0.0,0.0,0.0,0.0,0.0,0.0,0.0,0.0,0.0,0.0,0.0,0.0,0.0,0.0,0.0,0.0,0.0,0.0,0.0,0.0,0.0,0.0,0.0,0.0,0.0,0.0,0.0,0.0,0.0,0.0,0.0,0.0,0.0,0.0,0.0,0.0,0.0,0.0,0.0,0.0,0.0,0.0,0.0,0.0,0.0,0.0,0.0,0.0,0.0,0.0,0.0,0.0,0.0,0.0,0.0,0.0,0.0,0.0,0.0,0.0,0.0,0.0,1.5642,1.5987,1.6153,1.5991,1.5778,1.541,1.4629,1.3779,1.293,1.142,0.0,0.0,0.0,0.0,0.0,0.0,0.0,0.0,0.0,0.0,0.0,0.0,0.0,0.0,0.0,0.0,0.0,0.0,0.0,0.0,0.0,0.0,0.0,0.0,0.0,0.0,0.0,0.0,0.0,0.0,0.0,0.0,0.0,0.0,0.0,0.0,0.0,0.0,0.0,0.0,0.0,0.0,0.0,0.0,0.0,0.0,0.0,0.0,0.0,0.0,0.0,0.0,0.0,0.0,0.0,0.0,0.0,0.0,0.0,0.0,0.0,0.0,0.0,0.0,0.0,0.0,0.0,0.0,0.0,0.0,0.0,0.0,0.0,0.0,0.0,0.0,0.0,0.0,0.0,0.0,0.0,0.0,0.0,0.0,0.0,0.0,0.0,0.0,0.0,0.0,0.0,0.0,0.0,0.0,0.0,0.0,0.0,0.0,0.0,0.0,0.0,0.0,1.5802,1.5985,1.6249,1.5904,1.5614,1.541,1.4629,1.3769,1.2978,1.1452,0.0,0.0,0.0,0.0,0.0,0.0,0.0,0.0,0.0,0.0,0.0,0.0,0.0,0.0,0.0,0.0,0.0,0.0,0.0,0.0,0.0,0.0,0.0,0.0,0.0,0.0,0.0,0.0,0.0,0.0,0.0,0.0,0.0,0.0,0.0,0.0,0.0,0.0,0.0,0.0,0.0,0.0,0.0,0.0,0.0,0.0,0.0,0.0,0.0,0.0,0.0,0.0,0.0,0.0,0.0,0.0,0.0,0.0,0.0,0.0,0.0,0.0,0.0,0.0,0.0,0.0,0.0,0.0,0.0,0.0,0.0,0.0,0.0,0.0,0.0,0.0,0.0,0.0,0.0,0.0,0.0,0.0,0.0,0.0,0.0,0.0,0.0,0.0,0.0,0.0,0.0,0.0,0.0,0.0,0.0,0.0,0.0,0.0,0.0,0.0,0.0,0.0,1.5474,1.568,1.6069,1.5846,1.5614,1.541,1.4629,1.3769,1.3066,1.1484,0.0,0.0,0.0,0.0,0.0,0.0,0.0,0.0,0.0,0.0,0.0,0.0,0.0,0.0,0.0,0.0,0.0,0.0,0.0,0.0,0.0,0.0,0.0,0.0,0.0,0.0,0.0,0.0,0.0,0.0,0.0,0.0,0.0,0.0,0.0,0.0,0.0,0.0,0.0,0.0,0.0,0.0,0.0,0.0,0.0,0.0,0.0,0.0,0.0,0.0,0.0,0.0,0.0,0.0,0.0,0.0,0.0,0.0,0.0,0.0,0.0,0.0,0.0,0.0,0.0,0.0,0.0,0.0,0.0,0.0,0.0,0.0,0.0,0.0,0.0,0.0,0.0,0.0,0.0,0.0,0.0,0.0,0.0,0.0,0.0,0.0,0.0,0.0,0.0,0.0,0.0,0.0,0.0,0.0,0.0,0.0,0.0,0.0,0.0,0.0,0.0,0.0,1.5132,1.5382,0.0,1.5662,1.5478,1.541,1.4629,1.3769,1.3066,0.0,0.0,0.0,0.0,0.0,0.0,0.0,0.0,0.0,0.0,0.0,0.0,0.0,0.0,0.0,0.0,0.0,0.0,0.0,0.0,0.0,0.0,0.0,0.0,0.0,0.0,0.0,0.0,0.0,0.0,0.0,0.0,0.0,0.0,0.0,0.0,0.0,0.0,0.0,0.0,0.0,0.0,0.0,0.0,0.0,0.0,0.0,0.0,0.0,0.0,0.0,0.0,0.0,0.0,0.0,0.0,0.0,0.0,0.0,0.0,0.0,0.0,0.0,0.0,0.0,0.0,0.0,0.0,0.0,0.0,0.0,0.0,0.0,0.0,0.0,0.0,0.0,0.0,0.0,0.0,0.0,0.0,0.0,0.0,0.0,0.0,0.0,0.0,0.0,0.0,0.0,0.0,0.0,0.0,0.0,0.0,0.0,0.0,0.0,0.0,0.0,0.0,1.4575,1.4896,1.5231,0.0,1.5536,1.541,1.541,1.4629,1.3821,1.3163,0.0,0.0,0.0,0.0,0.0,0.0,0.0,0.0,0.0,0.0,0.0,0.0,0.0,0.0,0.0,0.0,0.0,0.0,0.0,0.0,0.0,0.0,0.0,0.0,0.0,0.0,0.0,0.0,0.0,0.0,0.0,0.0,0.0,0.0,0.0,0.0,0.0,0.0,0.0,0.0,0.0,0.0,0.0,0.0,0.0,0.0,0.0,0.0,0.0,0.0,0.0,0.0,0.0,0.0,0.0,0.0,0.0,0.0,0.0,0.0,0.0,0.0,0.0,0.0,0.0,0.0,0.0,0.0,0.0,0.0,0.0,0.0,0.0,0.0,0.0,0.0,0.0,0.0,0.0,0.0,0.0,0.0,0.0,0.0,0.0,0.0,0.0,0.0,0.0,0.0,0.0,0.0,0.0,0.0,0.0,0.0,0.0,0.0,0.0,0.0,0.0,0.0,1.453,1.4786,1.5114,1.5641,1.5536,1.541,1.541,1.4629,1.3873,0.0,0.0,0.0,0.0,0.0,0.0,0.0,0.0,0.0,0.0,0.0,0.0,0.0,0.0,0.0,0.0,0.0,0.0,0.0,0.0,0.0,0.0,0.0,0.0,0.0,0.0,0.0,0.0,0.0,0.0,0.0,0.0,0.0,0.0,0.0,0.0,0.0,0.0,0.0,0.0,0.0,0.0,0.0,0.0,0.0,0.0,0.0,0.0,0.0,0.0,0.0,0.0,0.0,0.0,0.0,0.0,0.0,0.0,0.0,0.0,0.0,0.0,0.0,0.0,0.0,0.0,0.0,0.0,0.0,0.0,0.0,0.0,0.0,0.0,0.0,0.0,0.0,0.0,0.0,0.0,0.0,0.0,0.0,0.0,0.0,0.0,0.0,0.0,0.0,0.0,0.0,0.0,0.0,0.0,0.0,0.0,0.0,0.0,0.0,0.0,0.0,0.0,0.0,1.4191,1.4508,1.4844,1.5448,1.542,1.541,1.541,1.4629,1.3925,1.3453,0.0,0.0,0.0,0.0,0.0,0.0,0.0,0.0,0.0,0.0,0.0,0.0,0.0,0.0,0.0,0.0,0.0,0.0,0.0,0.0,0.0,0.0,0.0,0.0,0.0,0.0,0.0,0.0,0.0,0.0,0.0,0.0,0.0,0.0,0.0,0.0,0.0,0.0,0.0,0.0,0.0,0.0,0.0,0.0,0.0,0.0,0.0,0.0,0.0,0.0,0.0,0.0,0.0,0.0,0.0,0.0,0.0,0.0,0.0,0.0,0.0,0.0,0.0,0.0,0.0,0.0,0.0,0.0,0.0,0.0,0.0,0.0,0.0,0.0,0.0,0.0,0.0,0.0,0.0,0.0,0.0,0.0,0.0,0.0,0.0,0.0,0.0,0.0,0.0,0.0,0.0,0.0,0.0,0.0,0.0,0.0,0.0,0.0,0.0,0.0,0.0,0.0,1.4065,1.4367,1.4745,1.5322,1.541,1.541,1.541,1.4849,1.4357,1.399,0.0,0.0,0.0,0.0,0.0,0.0,0.0,0.0,0.0,0.0,0.0,0.0,0.0,0.0,0.0,0.0,0.0,0.0,0.0,0.0,0.0,0.0,0.0,0.0,0.0,0.0,0.0,0.0,0.0,0.0,0.0,0.0,0.0,0.0,0.0,0.0,0.0,0.0,0.0,0.0,0.0,0.0,0.0,0.0,0.0,0.0,0.0,0.0,0.0,0.0,0.0,0.0,0.0,0.0,0.0,0.0,0.0,0.0,0.0,0.0,0.0,0.0,0.0,0.0,0.0,0.0,0.0,0.0,0.0,0.0,0.0,0.0,0.0,0.0,0.0,0.0,0.0,0.0,0.0,0.0,0.0,0.0,0.0,0.0,0.0,0.0,0.0,0.0,0.0,0.0,0.0,0.0,0.0,0.0,0.0,0.0,0.0,0.0,0.0,0.0,0.0,0.0,1.4019,1.4317,1.4691,1.5322,1.541,1.541,1.541,1.5233,1.4986,1.4712,0.0,0.0,0.0,0.0,0.0,0.0,0.0,0.0,0.0,0.0,0.0,0.0,0.0,0.0,0.0,0.0,0.0,0.0,0.0,0.0,0.0,0.0,0.0,0.0,0.0,0.0,0.0,0.0,0.0,0.0,0.0,0.0,0.0,0.0,0.0,0.0,0.0,0.0,0.0,0.0,0.0,0.0,0.0,0.0,0.0,0.0,0.0,0.0,0.0,0.0,0.0,0.0,0.0,0.0,0.0,0.0,0.0,0.0,0.0,0.0,1.9682,0.0,0.0,0.0,0.0,0.0,0.0,0.0,0.0,0.0,0.0,0.0,0.0,0.0,0.0,0.0,0.0,0.0,0.0,0.0,0.0,0.0,0.0,0.0,0.0,0.0,0.0,0.0,0.0,0.0,0.0,0.0,0.0,0.0,0.0,0.0,0.0,0.0,0.0,0.0,0.0,0.0,1.379,1.4104,1.4517,1.5322,1.541,1.541,1.541,1.5233,1.5047,1.487,1.3583,0.0,0.0,0.0,0.0,0.0,0.0,0.0,0.0,0.0,0.0,0.0,0.0,0.0,0.0,0.0,0.0,0.0,0.0,0.0,0.0,0.0,0.0,0.0,0.0,0.0,0.0,0.0,0.0,0.0,0.0,0.0,0.0,0.0,0.0,0.0,0.0,0.0,0.0,0.0,0.0,0.0,0.0,0.0,0.0,0.0,0.0,0.0,0.0,0.0,0.0,0.0,0.0,0.0,0.0,0.0,0.0,0.0,0.0,0.0,0.0,2.1157,0.0,0.0,0.0,0.0,0.0,0.0,0.0,0.0,0.0,0.0,0.0,0.0,0.0,0.0,0.0,0.0,0.0,0.0,0.0,0.0,0.0,0.0,0.0,0.0,0.0,0.0,0.0,0.0,0.0,0.0,0.0,0.0,0.0,0.0,0.0,0.0,0.0,0.0,0.0,0.0,1.42,1.4376,1.4697,1.5342,1.541,1.5526,1.5921,1.5699,1.5673,1.5966,1.4676,0.0,0.0,0.0,0.0,0.0,0.0,0.0,0.0,0.0,0.0,0.0,0.0,0.0,0.0,0.0,0.0,0.0,0.0,0.0,0.0,0.0,0.0,0.0,0.0,0.0,0.0,0.0,0.0,0.0,0.0,0.0,0.0,0.0,0.0,0.0,0.0,0.0,0.0,0.0,0.0,0.0,0.0,0.0,0.0,0.0,0.0,0.0,0.0,0.0,0.0,0.0,0.0,0.0,2.7514,2.8072,2.7543,2.8525,2.877,2.8194,2.587,2.435,2.3493,0.0,0.0,0.0,0.0,0.0,0.0,0.0,0.0,0.0,0.0,0.0,0.0,0.0,0.0,0.0,0.0,0.0,0.0,0.0,0.0,0.0,0.0,0.0,0.0,0.0,2.3561,2.3119,0.0,0.0,0.0,0.0,0.0,0.0,0.0,0.0,0.0,0.0,0.0,0.0,1.4693,1.4922,1.511,1.5361,1.541,1.569,1.6436,1.6287,1.6407,1.7059,1.5905,1.5155,0.0,0.0,0.0,0.0,0.0,0.0,0.0,0.0,0.0,0.0,0.0,0.0,0.0,0.0,0.0,0.0,0.0,0.0,0.0,0.0,0.0,0.0,0.0,0.0,0.0,0.0,0.0,0.0,0.0,0.0,0.0,0.0,1.5881,1.7483,0.0,0.0,0.0,0.0,0.0,0.0,0.0,0.0,0.0,0.0,0.0,0.0,0.0,0.0,2.772,2.8217,2.8718,2.9316,3.0274,3.102,3.156,3.1698,3.1583,3.12,3.0264,0.0,2.5704,2.4958,0.0,0.0,0.0,0.0,0.0,0.0,0.0,0.0,0.0,0.0,0.0,0.0,0.0,0.0,0.0,0.0,0.0,0.0,0.0,0.0,0.0,0.0,2.5254,2.5318,2.5041,2.4447,0.0,2.1944,2.0497,1.919,0.0,0.0,0.0,0.0,0.0,0.0,0.0,0.0,1.4903,1.5384,1.5628,1.5419,1.541,1.569,1.6436,1.6645,1.682,1.7083,1.6573,1.6082,1.5605,1.4563,0.0,0.0,0.0,0.0,0.0,0.0,0.0,0.0,0.0,0.0,0.0,0.0,0.0,0.0,0.0,0.0,0.0,0.0,0.0,0.0,0.0,0.0,0.0,0.0,0.0,0.0,0.0,0.0,0.0,1.6233,1.819,1.9212,1.9314,1.8931,0.0,0.0,0.0,0.0,0.0,0.0,0.0,0.0,0.0,2.8261,2.8248,2.8947,3.0538,3.1161,3.1545,3.1638,3.2686,3.3089,3.2913,3.3199,3.3066,3.2673,3.2388,3.1281,2.9467,2.7518,2.6302,2.5603,0.0,0.0,0.0,0.0,0.0,2.5121,2.5516,2.5938,0.0,0.0,0.0,0.0,0.0,0.0,0.0,0.0,0.0,0.0,0.0,0.0,0.0,2.6548,2.6366,2.6084,2.5823,2.4772,2.3255,0.0,2.0671,1.9908,1.7468,0.0,0.0,0.0,0.0,0.0,1.588,1.6084,1.6028,1.5449,1.541,1.569,1.6436,1.6274,1.6541,1.7509,1.6834,1.6475,1.666,1.5567,1.4714,0.0,0.0,0.0,0.0,0.0,0.0,0.0,0.0,0.0,0.0,0.0,0.0,0.0,0.0,0.0,0.0,0.0,0.0,0.0,0.0,0.0,0.0,0.0,0.0,0.0,0.0,0.0,0.0,1.8481,2.0095,2.0763,2.1394,2.1237,0.0,0.0,0.0,0.0,0.0,0.0,2.5897,2.6909,2.8467,3.069,3.0727,3.1392,3.2757,3.3227,3.3442,3.3338,3.4227,3.4414,3.3964,3.4309,3.4267,3.3964,3.3761,3.3372,3.2686,3.0153,2.8898,2.8544,2.7572,2.7145,2.712,2.7264,2.7373,2.7452,2.7785,2.832,2.8714,2.7572,0.0,2.6844,2.5478,0.0,0.0,0.0,0.0,2.5311,2.6294,2.6791,2.7106,2.7465,2.7422,2.7243,2.7071,2.66,2.5519,0.0,2.2754,2.2053,1.9463,0.0,0.0,0.0,0.0,1.6945,1.6866,1.6759,1.6331,1.5478,1.541,1.569,1.6436,1.6123,1.6504,1.784,1.7,1.675,1.7388,1.6434,1.5643,1.513,0.0,0.0,0.0,0.0,0.0,0.0,0.0,0.0,0.0,0.0,0.0,0.0,0.0,0.0,0.0,0.0,0.0,0.0,0.0,0.0,0.0,0.0,0.0,0.0,0.0,0.0,0.0,0.0,0.0,2.2201,2.2892,0.0,0.0,0.0,0.0,2.4205,2.5722,2.7366,2.9161,3.0092,3.1411,3.3248,3.296,3.3152,3.3986,3.3594,3.3736,3.4414,3.449,3.4854,3.5504,3.5504,3.5504,3.547,3.4742,3.4421,3.4252,3.2737,3.128,3.0057,3.0743,3.0653,3.0116,3.0314,3.0385,3.0282,2.9471,2.9178,2.9262,2.9743,2.9527,2.8955,2.8432,2.7461,0.0,0.0,2.6716,2.6906,2.7785,2.7682,2.755,2.8248,2.7984,2.739,2.6774,2.6705,2.6456,0.0,2.4138,2.2788,2.1296,0.0,1.9792,1.9278,1.8841,1.8342,1.7643,1.7309,1.6691,1.5508,1.541,1.569,1.6436,1.6472,1.6862,1.7863,1.7369,1.7159,1.74,1.6798,1.622,1.5668,1.4576,0.0,0.0,0.0,0.0,0.0,0.0,0.0,0.0,0.0,0.0,0.0,0.0,0.0,0.0,0.0,0.0,0.0,0.0,0.0,0.0,0.0,0.0,0.0,0.0,0.0,0.0,0.0,0.0,2.4445,2.5522,0.0,2.5847,2.6099,2.6759,2.801,2.9062,3.0136,3.1236,3.2059,3.3009,3.4106,3.3994,3.4303,3.5053,3.4914,3.4962,3.5216,3.5216,3.5368,3.5622,3.5622,3.5622,3.5605,3.5334,3.5216,3.5182,3.4641,3.3558,3.2256,3.2551,3.2483,3.2286,3.2383,3.2406,3.2372,3.206,3.1919,3.1805,3.1083,3.0095,2.9016,2.8427,2.7931,2.7535,2.7307,2.7429,2.7651,2.7751,2.795,2.8074,2.7932,2.776,2.75,2.7275,2.728,2.7229,2.6877,2.5405,2.38,2.2635,2.1657,2.0908,2.0438,2.016,1.9643,1.8713,1.8508,1.7781,1.6049,1.6296,1.6526,1.6513,1.6922,1.742,1.7863,1.7393,1.7183,1.74,1.6823,1.6421,1.6233,1.5492,1.4538,0.0,0.0,0.0,0.0,0.0,0.0,0.0,0.0,0.0,0.0,0.0,0.0,0.0,0.0,0.0,0.0,0.0,0.0,0.0,0.0,0.0,0.0,0.0,0.0,0.0,0.0,2.5425,2.6283,2.7672,2.8602,2.8602,2.9042,2.9736,3.0768,3.1749,3.2527,3.3,3.3744,3.4489,3.5233,3.5267,3.5622,3.6383,3.64,3.64,3.64,3.64,3.64,3.6383,3.6129,3.5857,3.5622,3.5633,3.5362,3.4958,3.5161,3.453,3.3511,3.396,3.415,3.4117,3.3863,3.3778,3.3685,3.3218,3.2927,3.2564,3.1667,3.0663,2.9798,2.9337,2.9164,2.9042,2.8606,2.8654,2.8794,2.8369,2.8425,2.8442,2.8021,2.7739,2.7625,2.7625,2.7625,2.7625,2.7625,2.6203,2.4669,2.3708,2.2647,2.1772,2.1399,2.0983,2.0349,1.9505,1.9066,1.8283,1.6982,1.7038,1.7174,1.7202,1.7258,1.7508,1.7903,1.7239,1.7014,1.7388,1.6779,1.6479,1.6479,1.5682,1.4899,1.4132,0.0,0.0,0.0,0.0,0.0,0.0,0.0,0.0,0.0,0.0,0.0,0.0,0.0,0.0,0.0,0.0,0.0,0.0,0.0,0.0,0.0,0.0,0.0,2.2569,2.4462,2.6351,2.7774,2.9296,3.0226,3.0243,3.1512,3.2415,3.2466,3.3744,3.4573,3.459,3.5284,3.6045,3.6789,3.6806,3.7161,3.7905,3.7905,3.7905,3.7858,3.7858,3.7858,3.7776,3.7097,3.6379,3.5679,3.5639,3.4866,3.3697,3.435,3.4235,3.3767,3.5021,3.5532,3.5431,3.4749,3.4479,3.429,3.2916,3.201,3.1421,3.1421,3.1421,3.1421,3.1389,3.1389,3.1242,3.0643,3.0438,3.0351,2.9726,2.9101,2.8622,2.8607,2.8083,2.7655,2.7625,2.7625,2.7575,2.7575,2.6454,2.5289,2.4646,2.3366,2.235,2.2143,2.1248,0.0,2.0081,1.8977,1.8311,1.8304,1.7656,1.7605,1.8452,1.7476,1.7144,1.7867,1.693,1.6652,1.735,1.6735,1.6392,1.6392,1.5073,1.4189,1.3791,0.0,0.0,0.0,0.0,0.0,0.0,0.0,0.0,0.0,0.0,0.0,0.0,0.0,0.0,0.0,0.0,0.0,0.0,0.0,0.0,0.0,0.0,2.5805,2.6316,2.7878,2.9488,3.0886,3.1901,3.2713,3.3237,3.3643,3.4336,3.5453,3.5926,3.6383,3.6941,3.7161,3.7381,3.7584,3.7601,3.7702,3.7905,3.7905,3.7614,3.7053,3.7053,3.6732,3.621,3.6015,3.5813,3.5637,3.5602,3.54,3.508,3.5241,3.4936,3.4286,3.4198,3.4153,3.412,3.3925,3.3844,3.3762,3.3386,3.2819,3.2279,3.2279,3.1921,3.1409,3.0891,3.0738,3.0647,2.9993,2.9872,2.9833,2.9633,2.9445,2.919,2.8712,2.8457,2.8173,2.773,2.7625,2.7458,2.693,2.6087,2.5354,2.519,2.3883,2.29,2.2827,2.2588,0.0,2.0579,2.0145,1.9447,1.8163,1.8193,1.8423,1.8714,1.8454,1.8213,1.8141,1.7474,1.7008,1.6773,1.6566,1.6281,1.582,1.4689,1.3857,0.0,0.0,0.0,0.0,0.0,0.0,0.0,0.0,0.0,0.0,0.0,0.0,0.0,0.0,0.0,0.0,0.0,0.0,0.0,0.0,0.0,0.0,2.6623,2.8757,3.0417,3.0913,3.1409,3.2282,3.3259,3.4047,3.4488,3.4793,3.5455,3.6705,3.6791,3.7095,3.7889,3.7905,3.7879,3.7853,3.7853,3.7852,3.7878,3.7878,3.7653,3.7178,3.7178,3.6922,3.6534,3.6175,3.5879,0.0,3.5578,3.5284,3.4716,3.5043,3.4736,0.0,0.0,0.0,0.0,0.0,3.3443,3.3198,3.3198,3.2734,3.212,3.212,3.1853,3.1465,3.1061,3.0941,3.0866,3.0492,3.0402,3.0402,3.0402,3.0178,2.9879,2.949,2.9205,2.8906,2.8502,2.8203,2.7891,2.746,0.0,0.0,2.5453,2.4092,2.3078,2.3017,2.2969,2.2519,2.1302,2.0719,2.004,1.9233,1.916,1.9235,1.9379,1.9267,0.0,0.0,0.0,1.6978,1.6088,1.5788,0.0,0.0,0.0,0.0,0.0,0.0,0.0,0.0,1.2655,1.294,0.0,0.0,0.0,0.0,0.0,0.0,0.0,0.0,0.0,0.0,0.0,0.0,0.0,0.0,0.0,0.0,2.9431,3.1388,3.4013,3.3339,3.2634,3.2821,3.3839,3.4549,3.469,3.5268,3.5976,3.6851,3.6854,3.7202,3.8094,0.0,0.0,0.0,0.0,3.7889,3.7806,3.7822,3.7748,3.7632,3.7632,3.7632,3.7515,3.688,3.6189,3.5566,3.5618,3.4907,3.377,3.4361,3.4211,3.3637,3.4194,3.3943,3.3375,3.3375,3.2986,3.2492,3.2492,0.0,0.0,3.1482,3.1482,3.1482,3.1482,3.1482,3.1482,3.1482,3.1482,3.1482,3.1482,3.1076,3.0597,3.0522,3.0088,2.9639,2.9505,2.9011,2.8525,2.8383,2.734,2.6283,2.5508,2.4208,2.3125,2.2969,2.28,2.2543,2.1939,2.0996,2.0473,2.0824,0.0,0.0,2.0216,1.9944,1.9585,1.9008,1.7947,1.6818,1.5621,1.4947,1.4595,1.4673,1.4634,1.4409,1.4086,1.4086,1.3563,1.2595,1.3105,1.3536,0.0,0.0,0.0,0.0,0.0,0.0,0.0,0.0,0.0,0.0,0.0,0.0,0.0,0.0,0.0,2.9381,3.141,3.2984,3.3603,3.3972,3.4363,3.4927,3.4742,3.4818,3.5366,3.5514,3.614,3.7514,3.7574,3.8181,3.9614,3.9648,0.0,3.871,3.871,3.8394,3.7822,3.7822,3.7456,3.6843,0.0,0.0,3.5973,3.5773,3.5649,3.5537,3.5528,3.5341,3.5115,3.5228,3.4898,3.422,3.3245,3.247,3.1894,3.1894,3.1838,3.1682,3.1682,3.164,3.1482,3.1482,3.1482,3.1482,3.1482,3.1482,0.0,3.1482,3.1482,3.1482,3.1482,3.1377,3.1195,3.0642,3.0417,3.0043,2.9011,2.8682,2.8271,2.7132,2.6703,2.6283,2.5508,2.4681,2.3826,2.3138,2.3017,2.2763,2.2013,2.169,2.1439,2.1049,2.0788,2.064,2.0586,2.001,1.9444,1.9008,1.7824,1.7015,1.6764,1.5598,1.4656,1.4011,1.3522,1.2924,1.221,1.221,1.2324,1.2455,1.2653,1.2885,0.0,0.0,0.0,0.0,0.0,0.0,0.0,0.0,0.0,0.0,0.0,2.5981,2.7097,0.0,3.0429,3.1579,3.2983,3.4115,3.4509,3.4568,3.4592,3.4609,3.4611,3.4702,3.5075,3.5385,3.62,3.7699,3.7807,3.8438,4.0003,4.007,3.9558,3.8374,3.8358,3.779,3.6662,3.6662,3.6415,3.6054,3.6054,3.5831,3.5504,3.5504,3.5504,3.5504,3.5504,3.5504,3.5504,3.5504,3.51,3.4412,3.3754,3.2901,3.2018,3.2018,3.1824,3.1482,3.1482,3.1482,3.1482,3.1482,3.1482,3.1482,3.1482,3.1482,3.1482,3.1482,3.1482,3.1482,3.1482,3.1482,3.145,3.1106,3.1016,3.0851,3.0208,2.9804,2.9247,2.8257,2.7768,2.7219,2.6125,2.5618,2.5119,2.4381,2.393,2.359,2.3148,2.2421,2.1815,2.1502,2.1393,2.121,2.0854,2.0416,1.9666,1.8533,1.7553,1.6779,1.6137,1.4726,1.392,1.3728,1.3032,1.234,1.1744,1.1856,1.1852,1.1725,1.1935,1.239,0.0,0.0,0.0,0.0,0.0,0.0,0.0,0.0,2.3896,2.531,2.7661,2.969,3.0374,3.1715,3.2916,3.3525,3.4235,3.4928,3.5537,3.5005,3.4431,3.4037,3.4362,3.4633,3.4777,3.5341,3.6301,3.7731,3.7938,3.8596,4.002,4.007,3.9385,3.7879,3.7822,3.7071,3.5504,3.5504,3.5504,3.5504,3.5504,3.5504,3.5504,3.5504,3.5504,3.5504,3.5504,3.5504,3.5504,3.5504,3.5175,3.4666,3.4666,3.3948,3.2886,3.2751,3.2287,3.1661,3.1661,3.1586,3.1482,3.1482,3.1482,3.1482,3.1482,3.1482,3.1482,3.1482,3.1482,3.1482,3.1482,3.1482,3.1482,3.1482,3.1482,3.1437,3.1302,3.0896,3.0283,2.9535,2.8966,2.8211,2.6943,2.6721,2.639,2.5508,2.4908,2.4509,2.4509,2.3255,2.2359,2.2359,2.2249,2.1909,2.1296,2.0864,1.9986,1.8441,1.7599,1.658,1.5316,1.4053,1.3371,1.3319,1.2753,1.2204,1.1714,1.197,1.1715,1.1082,1.1376,1.2048,1.8935,1.9113,1.9735,2.0982,2.1647,2.2389,0.0,0.0,2.6735,2.8152,2.9847,3.1264,3.1921,3.3254,3.4269,3.4353,3.5013,3.552,3.5605,3.5005,3.4783,3.5316,3.4938,3.484,3.5441,3.6135,3.6892,3.776,3.8421,3.9139,4.007,4.007,3.9385,3.7879,3.7822,3.7071,3.5504,3.5504,3.5504,3.5504,3.5504,3.5504,3.5504,3.5504,3.5504,3.5504,3.5504,3.5504,3.5504,3.5504,3.5459,3.5385,3.5385,3.4921,3.4188,3.3604,3.2961,3.2407,3.2407,3.2018,3.1482,3.1482,3.1482,3.1482,3.1482,3.1482,3.1482,3.1482,3.1482,3.1482,3.1482,3.1482,3.1482,3.1482,3.1482,3.136,3.0746,3.0552,3.0148,2.8936,2.8652,2.8382,2.7629,2.7458,2.7019,2.5618,2.5342,2.5287,2.5287,2.4553,2.4047,2.4047,2.3412,2.2733,2.2172,2.0964,2.0153,1.9977,1.8559,1.7152,1.594,1.5352,1.4204,1.2401,1.2583,1.2231,1.1458,1.1492,1.1438,1.1383,1.1683,1.1938,2.0313,2.1058,2.1978,0.0,2.3533,2.428,2.5483,2.6826,2.8186,2.9611,3.1005,3.2331,3.3449,3.4122,3.4693,0.0,3.5791,3.6129,3.569,3.5748,3.5803,3.5628,3.5349,3.5451,3.6166,3.65,3.7207,3.8365,3.8745,3.9262,4.007,4.007,3.9385,3.7879,3.7822,3.7071,3.5504,3.5504,3.5504,3.5504,3.5504,3.5504,3.5504,3.5504,3.5504,3.5504,3.5504,3.5504,3.5504,3.5504,3.5504,3.5504,3.5504,3.5325,3.4996,3.4322,3.3649,3.3036,3.2647,3.2332,3.2048,3.1601,3.1482,3.1482,3.1482,3.1482,3.1482,3.1482,3.1482,3.1482,3.1482,3.1482,3.1482,3.1482,3.1482,3.1392,3.1165,3.1106,3.0717,2.943,2.9175,2.8831,2.7754,2.7625,2.7408,2.6745,2.6336,2.6068,2.6068,2.5398,2.4794,2.435,2.3603,2.2852,2.2359,2.1304,2.037,1.9597,1.7933,1.6553,1.5619,1.4447,1.3365,1.2498,1.2102,1.1765,1.1423,1.1597,1.1683,1.169,1.1984,1.2124,2.1824,0.0,0.0,2.4876,2.5576,2.627,2.7415,2.8379,2.9438,3.0851,3.1903,3.2955,3.4332,3.4576,3.483,3.547,3.6282,3.6502,3.5723,3.6282,3.6485,3.5723,3.5599,3.5893,3.6672,3.6694,3.7248,3.8508,3.8788,3.9272,4.007,4.007,3.9385,3.7879,3.7822,3.7071,3.5504,3.5504,3.5504,3.5504,3.5504,3.5504,3.5504,3.5504,3.5504,3.5504,3.5504,3.5504,3.5504,3.5504,3.5504,3.5504,3.5504,3.5504,3.5444,3.4936,3.4337,3.3664,3.3021,3.2662,3.2407,3.1749,3.1482,3.1482,3.1482,3.1482,3.1482,3.1482,3.1351,3.1219,3.1409,3.1351,3.1219,3.1467,3.1482,3.1482,3.1482,3.1482,3.115,2.9834,2.9579,2.9146,2.785,2.7625,2.7625,2.7625,2.7152,2.6826,2.6826,2.6,2.5119,2.4408,2.3603,2.2842,2.2266,2.1416,2.0389,1.9232,1.7483,1.6095,1.5156,1.3731,1.2799,1.2514,1.1902,1.1663,1.1663,1.1884,1.1991,1.1997,1.2204,1.2305,0.0,0.0,2.5228,2.7188,2.8081,2.8816,3.0088,3.0402,3.082,3.2276,3.254,3.3024,3.4382,3.4576,3.483,3.547,3.6282,3.6502,3.5723,3.6282,3.6485,3.5723,3.5594,3.5915,0.0,3.6754,3.7044,3.7785,3.8572,3.9326,4.0037,4.007,3.9385,3.7879,3.7822,3.7071,3.5504,3.5504,3.5504,3.5504,3.5504,3.5504,3.5504,3.5504,3.5504,3.5504,3.5504,3.5504,3.5504,3.5504,3.5504,3.5504,3.5504,3.5504,3.5504,3.5489,3.504,3.4352,3.3694,3.3051,3.2407,3.1749,3.1482,3.1482,3.1482,3.1482,3.1482,3.1482,3.097,3.0524,3.1278,3.0896,3.0524,3.1278,3.1482,3.1482,3.1482,3.1482,3.115,2.9834,2.9579,2.9146,2.785,2.7625,2.7625,2.7625,2.7575,2.7575,2.7575,2.6322,2.5119,2.4408,2.3603,2.275,2.1978,2.1089,2.0246,1.9323,1.7619,1.6007,1.4747,1.4033,1.3143,1.1935,1.2131,1.2278,1.2278,1.2285,1.2285,1.2285,1.2298,1.2305,2.4028,0.0,2.701,2.8569,2.9439,3.0088,3.0986,3.118,3.1312,3.1751,3.1602,3.1651,3.2673,3.2674,3.2996,3.4313,3.5744,3.6409,3.5678,3.7144,3.7601,3.5825,3.6079,0.0,0.0,0.0,0.0,3.8506,3.8823,3.9309,4.0037,4.007,3.9385,3.7879,3.7822,3.7071,3.5504,3.5504,3.5504,3.5504,3.5504,3.5504,3.5504,3.5504,3.5504,3.5504,3.5504,3.5504,3.5504,3.5504,3.5504,3.5504,3.5504,3.5504,3.5504,3.5504,3.5355,3.5055,3.4382,3.3709,3.3051,3.2392,3.1884,3.1482,3.1482,3.1482,3.1482,3.1482,3.0896,3.0329,3.0644,3.0524,3.0389,3.0644,3.1087,3.1482,3.1482,3.1482,3.1249,3.0365,2.9872,2.9305,2.8369,2.786,2.7625,2.7625,2.7625,2.7625,2.7625,2.6759,2.5837,2.5119,2.4337,2.359,2.275,2.1416,2.0462,2.0204,1.7347,1.5738,1.5956,1.3886,1.2903,1.3086,1.2538,1.2305,1.2305,1.2305,1.2305,1.2298,1.2952,1.3237,2.5375,2.6961,2.8547,2.9639,3.0387,3.0986,3.1377,3.1345,3.1106,3.0881,3.0353,3.0122,3.0779,3.0956,3.1628,3.335,3.527,3.64,3.6067,3.7736,3.8362,3.6637,3.6874,3.6992,0.0,0.0,0.0,3.8531,3.8853,3.9309,4.0037,4.007,3.9385,3.7879,3.7822,3.7071,3.5504,3.5504,3.5504,3.5504,3.5504,3.5504,3.5504,3.5504,3.5504,3.5504,3.5504,3.5504,3.5504,3.5504,3.5504,3.5504,3.5504,3.5504,3.5504,3.5504,3.5504,3.54,3.4711,3.4038,3.338,3.2721,3.2078,3.1482,3.1482,3.1482,3.1409,3.1161,3.0464,2.9827,2.9827,2.9827,2.9889,3.0208,3.0896,3.1482,3.1482,3.1482,3.1366,3.0988,3.0379,2.9754,2.9295,2.8473,2.7894,2.7894,2.771,2.7625,2.7625,2.6707,2.596,2.5453,2.4509,2.3399,2.231,2.1227,2.0333,1.9694,1.6876,1.5658,1.6567,1.4155,1.3237,1.4243,1.331,1.2945,1.331,1.2945,1.2945,1.3375,1.3954,1.4243,2.7156,2.8637,2.9774,3.0402,3.1046,3.1467,3.1437,3.0956,3.0283,2.9654,2.9004,2.8541,2.8795,0.0,3.0683,3.2602,3.4839,3.6438,3.6772,3.8058,3.8717,0.0,0.0,0.0,0.0,0.0,0.0,3.7973,0.0,3.9243,3.9986,4.002,3.9279,3.7806,3.7748,3.7011,3.5504,3.5504,3.5504,3.5504,3.5504,3.5504,3.5504,3.5504,3.5504,3.5504,3.5504,3.5504,3.5504,3.5504,3.5504,3.5504,3.5504,3.5504,3.5504,3.5504,3.5504,3.5415,3.4756,3.4098,3.344,3.2781,3.2123,3.1511,3.1482,3.1482,3.1351,3.0584,2.9766,2.9066,2.9066,2.9066,2.9254,3.0072,3.0896,3.1482,3.1482,3.1524,3.1528,3.1619,3.098,3.0467,3.0447,2.9344,2.8511,2.8463,2.7944,2.7575,2.7575,2.6375,2.5453,2.5398,2.4047,2.2494,2.0782,2.0655,1.9879,1.8134,1.6298,1.5658,1.6636,1.4807,1.4243,1.5234,1.4314,1.4243,1.5234,1.4243,1.4243,1.5234,1.5234,1.5305,2.8652,2.9654,3.0432,3.1106,3.1347,3.1405,3.0881,3.0308,2.9717,2.9057,2.7765,2.6946,2.7721,0.0,0.0,3.138,3.3528,0.0,3.662,3.8058,0.0,3.799,0.0,3.8497,3.7956,3.8396,0.0,0.0,3.8321,3.8446,3.9159,3.8707,3.7905,3.6904,3.6904,3.6461,3.5504,3.5504,3.5504,3.5504,3.5504,3.5504,3.5504,3.5504,3.5504,3.5504,3.5504,3.5504,3.5504,3.5504,3.5504,3.5504,3.5504,3.5504,3.5504,3.5504,3.5504,3.5489,3.5295,3.4801,3.4113,3.3455,3.2796,3.2168,3.1616,3.1482,3.1467,3.1219,3.0584,2.995,2.995,2.995,3.0011,3.0269,3.0896,3.1482,3.1482,3.1951,3.2122,3.1568,3.0876,3.0202,2.9739,2.9029,2.8304,2.7739,2.7195,2.6982,2.7524,2.6774,2.6014,2.5453,2.4567,2.3327,2.1678,2.0974,2.0139,1.9044,1.7248,1.6645,1.7579,1.5799,1.5305,1.621,1.5296,1.495,1.5234,1.495,1.495,1.5234,1.593,1.621,2.9699,3.0462,3.1046,3.1377,3.13,3.0911,3.0253,2.9237,2.8117,2.7218,2.5849,0.0,2.5399,2.6363,0.0,0.0,0.0,0.0,3.6569,3.8058,3.8954,0.0,3.9225,0.0,3.8903,3.9225,3.9345,0.0,3.8543,3.848,3.8891,3.8189,3.7456,3.6615,3.6615,3.6228,3.5504,3.5504,3.5504,3.5504,3.5504,3.5504,3.5504,3.5504,3.5504,3.5504,0.0,3.5504,3.5504,3.5504,3.5504,3.5504,3.5504,3.5504,3.5504,3.5504,3.5504,3.5459,3.516,3.4801,3.4367,3.3709,3.3051,3.2392,3.1676,3.1482,3.1409,3.1087,3.0644,3.0208,2.9827,3.0011,3.0329,3.0329,3.0896,3.1482,3.1482,3.2064,3.2435,3.1935,3.1643,3.1221,3.0342,2.9625,2.8902,2.7957,2.7049,2.6549,2.6602,2.6,2.5398,2.4951,2.4221,2.3088,2.1491,2.0846,2.0074,1.8787,1.7394,1.7001,1.794,1.6576,1.6289,1.7217,1.6289,1.6009,1.6446,1.6009,1.6009,1.6437,1.7001,1.7217,3.0477,3.1076,3.1482,3.1482,3.1016,3.0298,2.949,2.7916,2.627,2.494,0.0,2.301,2.2927,2.4778,2.6775,2.8272,0.0,3.4471,3.6383,3.7821,3.9005,3.9834,4.002,4.007,4.007,4.007,3.9782,3.8962,3.8799,3.869,3.8619,3.7921,3.716,3.6508,3.6446,3.6165,3.5504,3.5504,3.5504,3.5504,3.5504,3.5504,3.5504,3.5504,3.5504,3.5504,0.0,0.0,3.5504,3.5504,3.5504,3.5504,3.5504,3.5504,3.5489,3.54,3.537,3.5265,3.4577,3.4352,3.4247,3.3589,3.2976,3.2392,3.1676,3.1482,3.1351,3.0644,3.045,3.0269,2.9504,2.9889,3.045,3.045,3.097,3.1482,3.1482,3.2023,3.2431,3.2475,3.2683,3.2507,3.147,3.0623,2.9697,2.8467,2.7208,2.6068,2.5342,2.4681,2.4292,2.4292,2.3603,2.2445,2.091,2.0655,1.9879,1.8269,1.7276,1.7139,1.794,1.7217,1.7148,1.8008,1.7207,1.7217,1.8008,1.7207,1.7207,1.8008,1.8008,1.8076,3.1165,3.1377,3.1482,3.1482,3.1016,3.0043,2.8323,2.7055,0.0,0.0,2.27,2.2291,2.3019,2.4297,2.5983,2.816,0.0,0.0,0.0,0.0,3.7669,0.0,0.0,0.0,0.0,0.0,0.0,0.0,0.0,3.7674,3.7008,3.629,3.5846,3.5668,3.5668,3.5619,3.5504,3.5504,3.5504,3.5504,3.5504,3.5504,3.5504,3.5504,3.5504,3.5504,3.5504,0.0,3.5504,3.5504,3.5504,3.5504,3.5504,3.5504,3.5429,3.4861,3.4651,3.4562,3.3903,3.3664,3.3559,3.2901,3.2602,3.2392,3.1676,3.1482,3.1467,3.1351,3.1278,3.1278,3.1087,3.1161,3.1278,3.1278,3.1409,3.1482,3.1482,3.1581,3.1869,3.2747,3.2421,3.1944,3.1714,3.078,2.9621,2.8467,2.6769,2.5342,2.4567,2.4408,2.4292,2.4292,2.3603,2.2689,2.1753,2.1037,2.0139,1.911,1.825,1.7862,1.8008,1.7862,1.7862,1.8008,1.7862,1.7862,1.8008,1.7862,1.7862,1.8008,1.8008,1.8395,3.0911,3.1255,3.1482,3.1482,3.0522,2.9086,2.744,0.0,0.0,0.0,2.1584,2.1551,2.1794,2.339,0.0,0.0,0.0,0.0,0.0,0.0,0.0,0.0,0.0,0.0,0.0,0.0,0.0,0.0,0.0,3.7456,3.6661,3.5894,3.5504,3.5504,3.5504,3.5504,3.5504,3.5504,3.5504,3.5504,3.5504,3.5504,3.5504,3.5504,3.5504,3.5504,3.5504,0.0,3.5504,3.5504,3.5504,3.5504,3.5504,3.5295,3.4936,3.4607,3.4262,3.3873,3.3215,3.2976,3.2886,3.2213,3.2243,3.2392,3.1676,3.1482,3.1482,3.1482,3.1482,3.1482,3.1482,3.1482,3.1482,3.1482,3.1796,3.2069,3.2014,3.199,3.2114,3.2857,3.2544,3.2161,3.2161,3.1433,3.0316,2.8831,2.739,2.5929,2.4509,2.4292,2.4118,2.3708,2.3305,2.275,2.1939,2.1502,2.0719,1.9365,1.8911,1.8462,1.8008,1.8008,1.8008,1.8008,1.8008,1.8008,1.8008,1.8008,1.8008,1.8008,1.8462,1.8921,3.0462,3.1001,3.1437,3.1287,2.9939,2.8173,2.6542,2.4458,0.0,0.0,2.0462,2.0742,2.0628,0.0,2.4168,0.0,2.7131,0.0,0.0,0.0,0.0,0.0,0.0,0.0,0.0,0.0,0.0,0.0,0.0,0.0,3.6384,3.5831,3.5504,3.5504,3.5504,3.5504,3.5504,3.5504,3.5504,3.5504,3.5504,3.5504,3.5504,3.5504,3.5504,3.5504,3.5504,0.0,0.0,3.5504,3.5504,3.5489,3.534,3.4951,3.4442,3.4158,3.3724,3.3185,3.2527,3.2302,3.2213,3.1646,3.1884,3.2213,3.1631,3.1482,3.1482,3.1482,3.164,3.1754,3.1754,3.1838,3.1951,3.1951,3.2149,3.2382,3.2444,3.2392,3.2393,3.2807,3.2806,3.2741,3.2741,3.2256,3.1282,2.9683,2.8373,2.6931,2.5176,2.4553,2.406,2.3424,2.3198,2.2823,2.2199,2.2013,2.1239,1.9694,1.9336,1.8818,1.8008,1.793,1.792,1.8008,1.8008,1.8008,1.8008,1.8008,1.8008,1.8008,1.8911,1.9431,3.0342,3.1001,3.1317,3.0746,2.9594,2.7934,2.539,0.0,2.175,1.9882,1.9477,1.9703,2.0544,2.1607,2.2883,0.0,0.0,2.7723,0.0,0.0,0.0,0.0,0.0,0.0,0.0,0.0,0.0,0.0,0.0,0.0,3.5619,3.5569,3.5504,3.5504,3.5504,3.5504,3.5504,3.5504,3.5504,3.5504,3.5504,3.5504,3.5504,3.5504,3.5504,3.5504,3.5504,0.0,0.0,3.5504,3.5504,3.5444,3.4816,3.4532,3.4322,3.314,3.2662,3.2512,3.1795,3.1556,3.1556,3.1497,3.1511,3.1556,3.1497,3.1482,3.1482,3.1482,3.1951,3.2492,3.2492,3.2933,3.3391,3.3391,3.2431,3.167,3.2283,3.2154,3.2055,3.2476,3.3064,3.3506,3.3506,3.3016,3.2264,3.1303,2.9329,2.7758,2.7164,2.5494,2.4292,2.4176,2.3543,2.3078,2.3017,2.2322,2.1491,2.0526,1.934,1.8479,1.7998,1.7646,1.7627,1.8008,1.8008,1.8008,1.8008,1.8008,1.8008,1.8008,1.8911,1.9694,2.8733,2.9589,3.0298,3.0013,2.8667,2.6916,2.5,0.0,2.1065,1.9184,1.909,1.9389,1.9429,2.0619,2.1944,0.0,2.4036,2.549,2.774,0.0,0.0,0.0,0.0,0.0,0.0,0.0,0.0,0.0,0.0,0.0,3.5504,3.5504,3.5504,3.5504,3.5943,3.6165,3.6165,3.6646,3.6646,3.6165,3.6165,3.5958,3.5504,3.5504,3.5504,3.5504,3.5504,0.0,0.0,3.5504,3.5265,3.4861,3.4577,3.3993,3.323,3.2706,3.2258,3.1884,3.1556,3.1482,3.1482,3.1482,3.1482,3.1482,3.1482,3.1482,3.1482,3.1482,3.2007,3.2586,3.2586,3.3093,3.3486,3.3019,3.2784,3.2579,3.216,3.2364,3.2637,3.2888,3.316,3.3497,3.3876,3.3451,3.2714,3.1892,3.0325,2.8788,2.7579,2.5983,2.4794,2.435,2.3603,2.3078,2.3078,2.2823,2.192,2.0279,1.9702,1.8744,1.7301,1.7334,1.7461,1.7627,1.7881,1.8008,1.8008,1.8008,1.8008,1.8008,1.9431,2.0268,2.7312,2.8417,2.9289,2.9079,2.7634,2.5914,0.0,2.2273,2.0208,1.8718,1.8591,1.8726,1.8626,1.9823,2.1092,0.0,2.2953,2.434,2.6116,2.8078,0.0,0.0,0.0,0.0,0.0,0.0,0.0,0.0,0.0,0.0,0.0,3.5846,3.5733,3.5504,3.6228,3.6615,3.6615,3.7397,3.7397,3.6615,3.6615,3.6228,3.5504,3.5504,3.5504,3.5489,0.0,0.0,0.0,3.4996,3.4622,3.4158,3.3978,3.3335,3.2497,3.2302,3.1928,3.1482,3.1482,3.1482,3.1482,3.1482,3.164,3.1853,3.1853,3.1682,3.1539,3.1739,3.2477,3.3251,3.3459,3.354,3.355,3.3368,3.3143,3.2917,3.2514,3.2746,3.3088,3.3183,3.3439,3.3784,3.4269,3.3956,3.3405,3.2697,3.1392,2.9854,2.809,2.6585,2.5232,2.4066,2.2977,2.2396,2.2689,2.2506,2.1578,1.9625,1.9397,1.8561,1.6738,1.7031,1.7256,1.7383,1.7793,1.8008,1.8008,1.8008,1.8008,1.8008,1.9814,2.0846,2.6654,2.7775,2.8516,2.7805,2.6602,2.5106,2.3146,2.0894,1.9069,1.8517,1.778,1.7511,1.8427,1.9362,2.0272,2.1059,2.3067,2.4729,2.5507,2.8213,0.0,0.0,0.0,0.0,0.0,0.0,0.0,0.0,0.0,0.0,0.0,3.6615,3.6275,3.5504,3.6228,3.6615,3.6615,3.7397,3.7397,3.6615,3.6615,3.6228,3.5504,3.5504,3.5504,0.0,0.0,0.0,0.0,3.3784,3.3514,3.344,3.2781,3.2527,3.2437,3.1779,3.1482,3.1482,3.1482,3.1482,3.1482,3.1482,3.2007,3.2602,3.2602,3.2064,3.164,3.2382,3.3531,3.4736,3.5424,3.4518,3.3798,3.4929,3.3492,3.2213,3.3336,3.3394,3.3184,3.3214,3.3988,3.4674,3.4694,3.4694,3.4515,3.406,3.2606,3.0908,2.9102,2.7353,2.5423,2.3285,2.149,2.0825,2.1803,2.1101,2.0059,1.8691,1.8249,1.7637,1.6738,1.6675,1.6943,1.7373,1.7793,1.8008,1.8008,1.8008,1.8008,1.8008,1.9814,2.1479,2.4225,2.4937,2.5379,2.5093,2.4297,2.3248,2.1744,2.0248,1.8947,1.8059,1.7508,1.733,1.7754,1.9018,2.0069,2.0348,2.2276,0.0,0.0,0.0,0.0,0.0,0.0,0.0,0.0,0.0,0.0,0.0,0.0,0.0,0.0,3.6904,3.6275,3.5504,3.6768,3.7397,3.7397,3.8707,3.8978,3.8157,3.7674,3.698,3.6212,3.5718,0.0,0.0,0.0,0.0,0.0,3.297,3.2353,3.1853,3.1074,3.048,3.0083,2.9898,3.0147,3.0703,3.0703,3.1029,3.1582,3.2064,3.2437,3.2695,3.313,3.313,3.3077,3.3786,3.4284,3.4736,3.5424,3.5145,3.4626,3.4473,3.3737,3.309,3.3273,3.3255,3.3273,3.355,3.3876,3.4232,3.4632,3.4508,3.4278,3.4037,3.2803,3.1145,2.9173,2.6887,2.4763,2.3153,2.0997,1.9738,2.0029,1.9186,1.8016,1.6498,1.6474,1.6204,1.5526,1.591,1.6777,1.8168,1.8685,1.8911,1.8911,1.8911,1.8911,1.8921,1.9431,2.0655,2.1853,2.264,2.2884,2.2737,2.2159,2.1338,2.0294,1.9253,1.8331,1.7726,1.74,1.7296,1.7462,1.8874,2.0002,2.0002,2.2158,0.0,0.0,0.0,0.0,0.0,0.0,0.0,0.0,0.0,0.0,0.0,0.0,0.0,0.0,3.7476,3.6692,3.5984,3.7152,3.7678,3.7422,3.8933,3.9007,3.7709,3.723,3.6432,3.5385,3.4964,0.0,0.0,0.0,0.0,0.0,3.1787,3.1065,3.0304,2.9812,2.9398,2.9002,2.9002,2.9566,3.0329,3.0585,3.1203,3.2007,3.2734,3.3145,3.3495,3.4153,3.4186,3.4087,3.4479,3.4783,3.5128,3.5749,3.5366,3.4757,3.4651,3.4022,3.3462,3.3441,3.3437,3.3494,3.3734,3.3876,3.4093,3.4612,3.4529,3.4386,3.44,3.3374,3.1802,2.9617,2.7407,2.5131,2.2745,2.0859,1.9327,1.8465,1.7919,1.7118,1.5963,1.603,1.6064,1.5853,1.6507,1.7601,1.9039,1.9566,1.9814,1.9814,1.9431,1.9299,1.9299,1.9299,2.0204,0.0,2.0649,2.0957,2.0764,2.0201,1.9497,1.8835,1.796,0.0,1.7531,1.7404,1.7361,1.7552,1.8925,2.0035,2.0137,0.0,0.0,0.0,0.0,0.0,0.0,0.0,0.0,0.0,0.0,0.0,0.0,0.0,0.0,0.0,3.8134,3.7399,3.6726,3.7367,3.7342,3.663,3.8116,3.7835,3.5748,3.5748,3.5043,3.3653,3.3607,0.0,0.0,0.0,0.0,0.0,3.0485,2.969,2.8876,2.8812,2.8812,2.8812,2.8876,2.9504,3.0346,3.1084,3.1926,3.2788,3.3443,3.4137,3.4783,3.5407,3.5161,3.4671,3.4622,3.5015,3.5654,3.6111,3.5169,3.4271,3.5211,3.4285,3.3332,3.3707,3.3807,3.3807,3.3807,3.4012,3.4288,3.4632,3.4694,3.4774,3.507,3.4289,3.2795,3.0375,2.8753,2.6285,2.2285,2.1031,1.9575,1.7396,1.7314,1.7158,1.6626,1.6689,1.6928,1.7499,1.8307,1.9152,2.0125,2.0477,2.0673,2.0719,1.9748,1.9299,1.9299,1.9299,2.0204,1.7011,0.0,1.8546,1.884,1.8661,1.8258,0.0,1.7438,1.7267,1.7167,0.0,1.7533,1.8349,1.9327,2.039,2.1556,0.0,0.0,0.0,0.0,0.0,0.0,0.0,0.0,0.0,0.0,0.0,0.0,0.0,0.0,0.0,3.7401,3.6858,3.6685,3.6865,3.6653,3.595,3.6842,3.7084,3.6528,3.6492,3.6002,3.5156,3.4527,0.0,0.0,0.0,0.0,3.047,2.9623,2.8812,2.792,2.7351,2.7095,2.7162,2.7802,2.8856,3.0218,3.144,3.2507,3.3495,3.4137,3.48,3.5407,3.556,3.547,3.5244,3.4656,3.4655,3.4754,3.4639,3.4184,3.3864,3.4437,3.4116,3.368,3.378,3.3807,3.3807,3.3807,3.3868,3.4062,3.4612,3.4694,3.4774,3.507,3.4584,3.3352,3.0976,2.9123,2.6851,2.3743,2.2177,2.0756,1.9206,1.7833,1.6709,1.5892,1.6505,1.7457,1.8581,1.939,2.0637,2.2287,2.1897,2.1644,2.1616,2.0074,1.9299,1.9299,1.9299,1.9879,1.57,1.6361,1.6918,1.7402,1.7387,1.7193,1.6895,0.0,0.0,0.0,0.0,1.8128,1.8682,2.0044,0.0,0.0,0.0,0.0,0.0,0.0,0.0,0.0,0.0,0.0,0.0,0.0,0.0,0.0,0.0,0.0,0.0,3.7181,3.6769,3.6769,3.6092,3.5725,3.5639,3.6439,3.6471,3.5795,3.5745,3.524,3.4265,3.3824,3.3031,0.0,0.0,0.0,3.0269,2.9766,2.9066,2.8247,2.7802,2.767,2.7723,2.8474,2.9679,3.1114,3.2489,3.3795,3.4951,3.5307,3.5509,3.5554,3.5199,3.5115,3.5013,3.4607,3.4252,3.4049,3.4332,3.4004,3.3752,3.4467,3.4209,3.3807,3.3807,3.3807,3.3807,3.3807,3.3807,3.4005,3.4591,3.4694,3.4832,3.5223,3.4978,3.4064,3.2152,3.0214,2.7924,2.4964,2.3371,2.1903,2.0523,1.9549,1.8533,1.7323,1.8238,1.9329,2.0412,2.1459,2.2726,2.4243,2.374,2.3116,2.2384,2.0696,1.989,1.9879,1.9497,2.0009,1.5193,1.5686,1.6007,1.6674,1.6727,1.6651,1.6788,0.0,0.0,0.0,0.0,0.0,0.0,0.0,0.0,0.0,0.0,0.0,0.0,0.0,0.0,0.0,0.0,0.0,0.0,0.0,0.0,0.0,0.0,0.0,0.0,3.6958,3.6603,3.6603,3.5385,3.505,3.558,3.6162,3.5844,3.4576,3.4688,3.4087,3.2895,3.2895,3.2477,0.0,0.0,0.0,3.0329,3.0329,2.9766,2.9002,2.9002,2.9052,2.9261,2.9947,3.1042,3.2316,3.3691,3.5069,3.6134,3.6069,3.5668,3.5165,3.4523,3.4252,3.4193,3.4236,3.382,3.3499,3.4269,3.4003,3.374,3.46,3.4302,3.3807,3.3807,3.3807,3.3807,3.3807,3.3807,3.4005,3.4591,3.4694,3.4889,3.5432,3.5353,3.4756,3.3407,3.1538,2.9149,2.6135,2.4459,2.2926,2.1415,2.1549,2.1186,1.9929,2.081,2.1827,2.2808,2.4086,2.5091,2.5807,2.5431,2.4568,2.3191,2.1569,2.0782,2.0782,2.0009,2.0462,1.5416,1.5649,1.5932,1.755,1.7781,1.7793,1.8535,0.0,0.0,0.0,0.0,0.0,0.0,0.0,0.0,0.0,0.0,0.0,0.0,0.0,0.0,0.0,0.0,0.0,0.0,0.0,0.0,0.0,0.0,0.0,0.0,3.5859,3.5791,3.5791,3.5566,3.5475,3.5593,3.5171,3.4804,3.4624,3.5207,3.5052,3.4284,3.4284,3.3633,0.0,0.0,3.1622,3.0329,3.0329,2.9766,2.9002,2.9002,2.9358,2.9918,3.0807,3.1805,3.2924,3.4192,3.4793,3.4991,3.4592,3.4127,3.3728,3.3609,3.3119,3.2734,3.3137,3.3166,3.302,3.2913,3.3045,3.3376,3.3863,3.3899,3.3807,3.3807,3.3807,3.3807,3.3807,3.3807,3.4005,3.4591,3.4694,3.4889,3.5432,3.5465,3.5081,3.3985,3.2354,3.0135,2.7096,2.5308,2.3567,2.1708,2.2103,2.2582,2.283,2.301,2.3926,2.576,2.6814,2.7073,2.6459,2.5697,2.491,2.4092,2.247,2.169,2.169,2.1553,2.1628,1.5558,1.5774,1.6187,1.8584,1.867,1.8394,1.9203,0.0,0.0,0.0,0.0,0.0,0.0,0.0,0.0,0.0,0.0,0.0,0.0,0.0,0.0,0.0,0.0,0.0,0.0,0.0,0.0,0.0,0.0,0.0,0.0,0.0,3.5622,3.5622,3.5622,3.5424,3.5052,3.4736,3.4783,3.5144,3.547,3.5253,3.4576,3.4576,3.3887,3.2586,0.0,3.1977,3.097,3.097,3.0703,3.0329,3.0329,3.0793,3.1566,3.278,3.3539,3.4054,3.5184,3.5232,3.4748,3.453,3.3973,3.3339,3.2933,3.2747,3.2629,3.2409,3.2362,3.2421,3.277,3.3045,3.3302,3.3707,3.3807,3.3807,3.3807,3.3807,3.3807,3.3807,3.3807,3.3928,3.4357,3.4572,3.4832,3.5223,3.5033,3.4496,3.3537,3.1321,2.8992,2.6659,2.4393,2.2796,2.2204,2.2136,2.2758,2.4302,2.4846,2.5691,2.6901,2.8117,2.8265,2.7195,2.6608,2.5835,2.4908,2.2895,2.2372,2.3207,2.2298,2.2359,1.55,1.58,1.6421,1.9158,0.0,1.8856,2.0152,0.0,0.0,0.0,0.0,0.0,0.0,0.0,0.0,0.0,0.0,0.0,0.0,0.0,0.0,0.0,0.0,0.0,0.0,0.0,0.0,0.0,0.0,0.0,0.0,0.0,3.5622,3.5622,3.5301,3.4894,3.4376,3.4233,3.4475,3.5115,3.5316,3.5174,3.4781,3.4938,3.4398,3.3255,3.3082,3.254,3.1739,3.1582,3.1582,3.1724,3.1558,3.1934,3.2701,3.41,3.4579,3.4639,3.5453,3.51,3.4252,3.4252,3.3651,3.278,3.2332,3.2441,3.2641,3.2231,3.2127,3.2298,3.3014,3.3273,3.3437,3.3734,3.3807,3.3807,3.3807,3.3807,3.3807,3.3807,3.3807,3.3876,3.4152,3.4486,3.4717,3.4785,3.451,3.388,3.2735,3.032,2.7919,2.5926,2.3616,2.2346,2.2603,2.2559,2.3301,2.5089,2.6129,2.6852,2.7286,2.842,2.8467,2.7297,2.6903,2.6139,2.4901,2.3297,2.3088,2.4292,2.3027,2.3148,1.5065,1.5605,1.6513,1.8784,1.8968,0.0,2.227,2.2325,0.0,0.0,0.0,0.0,0.0,0.0,0.0,0.0,0.0,0.0,0.0,0.0,0.0,0.0,0.0,0.0,0.0,0.0,0.0,0.0,0.0,0.0,0.0,0.0,0.0,3.5622,3.4384,3.3727,3.368,3.3048,3.3092,3.3735,3.4382,3.4922,3.5341,3.5968,3.5865,3.5143,3.4457,3.354,3.2492,3.1796,3.1894,3.247,3.1682,3.1808,3.25,3.337,3.3705,3.3701,3.3913,3.3388,3.2677,3.2677,3.2088,3.1404,3.1726,3.1875,3.2073,3.289,3.3105,3.3105,3.3184,3.3494,3.3762,3.3788,3.3807,3.3807,3.3807,3.3807,3.3807,3.3807,3.3807,3.3876,3.4152,3.4486,3.4509,3.3965,3.4069,3.3593,3.1909,3.0242,2.8199,2.5456,2.4209,2.3306,2.2718,2.4085,2.4996,2.5182,2.6489,2.7255,2.7303,2.7572,2.7178,2.595,2.563,2.4826,2.3546,2.3958,2.4163,2.4292,2.4176,2.4163,1.5705,1.6105,1.6799,1.9347,0.0,0.0,0.0,0.0,0.0,0.0,0.0,0.0,0.0,0.0,0.0,0.0,0.0,0.0,0.0,0.0,0.0,0.0,0.0,0.0,0.0,0.0,0.0,0.0,0.0,0.0,0.0,0.0,0.0,3.4235,3.4024,3.3393,3.2302,3.2064,3.1817,3.1699,3.3496,3.4435,3.4621,3.5122,3.4834,3.3878,3.3627,3.2861,3.1801,3.1545,3.1596,3.1871,3.1998,3.1897,3.1858,3.3115,3.3315,3.3006,3.3585,3.3225,3.2484,3.2484,3.2074,3.1603,3.1752,3.2196,3.2727,3.3105,3.3361,3.3578,3.3578,3.368,3.3807,3.3807,3.3807,3.3807,3.3807,3.3807,3.3807,3.3807,3.3807,3.3676,3.3264,3.3586,3.3638,3.2919,3.2718,3.2201,3.0992,2.9032,2.7143,2.5587,2.4296,2.3318,2.2768,2.3903,2.4816,2.5182,2.6522,2.7178,2.6939,2.7352,2.6928,2.5456,2.5364,2.4761,2.3499,2.3662,2.3986,2.441,2.3932,2.3986,1.5893,1.6463,1.7312,0.0,0.0,0.0,0.0,0.0,0.0,0.0,0.0,0.0,0.0,0.0,0.0,0.0,0.0,0.0,0.0,0.0,0.0,0.0,0.0,0.0,0.0,0.0,0.0,0.0,0.0,0.0,0.0,0.0,0.0,0.0,3.343,3.2732,3.1182,3.115,3.0815,3.0188,3.2558,3.3789,3.4021,3.464,3.4515,3.3749,3.3413,3.272,3.1895,3.1518,3.1374,3.1449,3.2121,3.2024,3.1614,3.2808,3.3027,3.2809,3.355,3.3225,3.2517,3.2681,3.2298,3.1861,3.2161,3.2695,3.3214,3.3361,3.3578,3.3807,3.3807,3.3807,3.3807,3.3807,3.3807,3.3807,3.3807,3.3807,3.3807,3.3807,3.3587,3.3256,3.2706,3.2825,3.2732,3.1921,3.1741,3.1283,3.0149,2.8419,2.688,2.5775,2.4365,2.3419,2.3245,2.4127,2.4831,2.5182,2.6403,2.6922,2.6505,2.6716,2.6146,2.4694,2.4762,2.4303,2.3299,2.3741,2.4191,2.4482,2.4141,2.4276,1.5402,1.6646,1.8089,0.0,0.0,0.0,0.0,0.0,0.0,0.0,0.0,0.0,0.0,0.0,0.0,0.0,0.0,0.0,0.0,0.0,0.0,0.0,0.0,0.0,0.0,0.0,0.0,0.0,0.0,0.0,0.0,0.0,0.0,0.0,3.2527,3.1574,3.0507,3.043,3.0048,2.9406,3.159,3.2993,3.3835,3.4973,3.5479,3.5397,3.4283,3.3482,3.2917,3.1832,3.1352,3.1364,3.2034,3.2081,3.1861,3.235,3.2809,3.3243,3.3652,3.3225,3.2583,3.3045,3.2565,3.1986,3.2903,3.3214,3.3302,3.368,3.3807,3.3807,3.3807,3.3807,3.3807,3.3807,3.3807,3.3807,3.3807,3.3788,3.3788,3.3788,3.3146,3.2596,3.2596,3.2362,3.1883,3.1016,3.134,3.1073,2.9325,2.8679,2.7725,2.6012,2.4451,2.3761,2.4348,2.4894,2.5221,2.5221,2.6123,2.647,2.6049,2.5486,2.4665,2.3533,2.3501,2.322,2.2636,2.4403,2.5026,2.4503,2.5059,2.528,1.6308,1.7614,0.0,0.0,0.0,0.0,0.0,0.0,0.0,0.0,0.0,0.0,0.0,0.0,0.0,0.0,0.0,0.0,0.0,0.0,0.0,0.0,0.0,0.0,0.0,0.0,0.0,0.0,0.0,0.0,0.0,0.0,0.0,0.0,3.2202,3.1751,3.0375,3.0348,3.0234,3.0038,3.13,3.2229,3.2914,3.3864,3.4157,3.3869,3.3516,3.2897,3.2094,3.1506,3.1274,3.1278,3.1739,3.1886,3.188,3.2713,3.3075,3.3243,3.3652,3.3447,3.3014,3.3136,3.3014,3.284,3.3105,3.3408,3.3652,3.378,3.3807,3.3807,3.3807,3.3807,3.3807,3.3807,3.3807,3.3807,3.3807,3.3366,3.2963,3.2963,3.2302,3.1642,3.1265,3.1235,3.1051,3.0371,3.0395,3.0105,2.904,2.8408,2.76,2.6404,2.5664,2.5035,2.4471,2.4894,2.5221,2.5221,2.5835,2.6297,2.647,2.5672,2.5003,2.4555,2.4265,2.399,2.3728,2.4751,2.5155,2.4989,2.5155,2.503,1.7141,0.0,0.0,0.0,0.0,0.0,0.0,0.0,0.0,0.0,0.0,0.0,0.0,0.0,0.0,0.0,0.0,0.0,0.0,0.0,0.0,0.0,0.0,0.0,0.0,0.0,0.0,0.0,0.0,0.0,0.0,0.0,0.0,0.0,3.2109,3.1773,3.0293,3.0518,3.0625,3.0542,3.1504,3.2142,3.2517,3.3419,3.368,3.3437,3.3075,3.25,3.1789,3.1389,3.1291,3.147,3.1696,3.2022,3.2433,3.3014,3.3302,3.3465,3.3707,3.355,3.3214,3.3408,3.3332,3.3243,3.339,3.3606,3.3807,3.3807,3.3568,3.333,3.333,3.3091,3.2999,3.3642,3.3568,3.333,3.333,3.2687,3.2118,3.2118,3.1556,3.0979,3.0655,3.0565,3.0414,3.0041,2.9939,2.9621,2.8887,2.8288,2.7631,2.6884,2.6351,2.5652,2.4776,2.5221,2.5411,2.5221,2.5872,2.6401,2.6691,2.5746,2.5057,2.476,2.4505,2.4358,2.4281,2.5096,2.5411,2.5221,2.5221,2.4879,1.7779,0.0,0.0,0.0,0.0,0.0,0.0,0.0,0.0,0.0,0.0,0.0,0.0,0.0,0.0,0.0,0.0,0.0,0.0,0.0,0.0,0.0,0.0,0.0,0.0,0.0,0.0,0.0,0.0,0.0,0.0,0.0,0.0,3.1825,3.2282,3.1862,3.0444,3.0982,3.1167,0.0,3.2074,3.255,3.2517,3.3343,3.3734,3.3634,3.2809,3.2196,3.1789,3.1389,3.1411,3.1752,3.1825,3.24,3.3154,3.3214,3.3494,3.3807,3.3807,3.355,3.3302,3.368,3.355,3.3332,3.368,3.3752,3.3697,3.3697,3.3109,3.2504,3.2504,3.1953,3.177,3.322,3.3018,3.2504,3.2504,3.1861,3.1274,3.1274,3.0826,3.0469,3.049,3.0186,2.9954,2.9954,2.978,2.9457,2.8838,2.8262,2.7754,2.7348,2.6573,2.5852,2.5259,2.5726,2.5835,2.5281,2.6193,2.6758,2.6758,2.5819,2.5028,2.4552,2.4552,2.4552,2.4552,2.5577,2.5799,2.5259,2.5205,2.4792,0.0,1.9904,0.0,0.0,0.0,0.0,0.0,0.0,0.0,0.0,0.0,0.0,0.0,0.0,0.0,0.0,0.0,0.0,0.0,0.0,0.0,0.0,0.0,0.0,0.0,0.0,0.0,0.0,0.0,0.0,0.0,0.0,0.0,3.1825,3.2282,3.2161,3.1476,3.1605,3.1844,0.0,3.2759,3.2858,3.2517,3.3075,3.3136,3.2745,3.2196,3.188,3.1789,3.1389,3.1252,3.1389,3.2074,3.2484,3.2745,3.3419,3.3734,3.3807,3.3807,3.3734,3.368,3.3762,3.3734,3.368,3.3762,3.3366,3.2871,3.2871,3.2284,3.1659,3.1659,3.1513,3.1476,3.1825,3.177,3.1659,3.1659,3.1035,3.0467,3.0467,2.9853,2.9414,2.9632,2.9586,2.9532,2.9532,2.9494,2.9233,2.856,2.8139,2.7754,2.7348,2.6856,2.6158,2.5297,2.6016,2.6282,2.5704,2.6606,2.7178,2.7178,2.6317,2.5762,2.5652,2.5652,2.5652,2.5652,2.6245,2.6297,2.5815,2.5277,2.4531,0.0,0.0,0.0,0.0,0.0,0.0,0.0,0.0,0.0,0.0,0.0,0.0,0.0,0.0,0.0,0.0,0.0,0.0,0.0,0.0,0.0,0.0,0.0,0.0,0.0,0.0,0.0,0.0,0.0,0.0,0.0,3.2529,3.2606,3.1918,3.1773,3.1661,3.1567,3.1584,3.1996,3.2858,3.3075,3.2952,3.2517,3.2745,3.2745,3.2484,3.1986,3.1789,3.1789,3.1389,3.1329,3.1545,3.2248,3.2648,3.2867,3.3131,3.3238,3.3183,3.2779,3.2651,3.2651,3.2651,3.2651,3.2651,3.2651,3.2357,3.2027,3.2027,3.1439,3.0834,3.0834,3.054,3.0246,3.0246,3.0558,3.0834,3.0834,3.0191,2.9641,2.9641,2.9406,2.9225,2.9372,2.9474,2.9533,2.9533,2.9474,2.9104,2.8264,2.7992,2.7648,2.7083,2.6825,2.6401,2.5652,2.6471,2.6804,2.6353,2.72,2.7642,2.7467,2.6781,2.6148,2.5652,2.5373,2.5221,2.5259,2.5746,2.5872,2.5615,2.5003,2.4402,0.0,0.0,0.0,0.0,0.0,0.0,0.0,0.0,0.0,0.0,0.0,0.0,0.0,0.0,0.0,0.0,0.0,0.0,0.0,0.0,0.0,0.0,0.0,0.0,0.0,0.0,0.0,0.0,0.0,0.0,3.1678,3.2138,3.2192,3.1812,3.1171,3.0926,3.12,3.1217,3.1786,3.2904,3.2816,3.2509,3.2011,3.2044,3.217,3.2248,3.1722,3.1507,3.1453,3.1028,3.1056,3.1426,3.1844,3.2272,3.2619,3.2301,3.2263,3.2224,3.1547,3.1334,3.1384,3.1384,3.1384,3.1384,3.1384,3.1292,3.1182,3.1182,3.0613,2.9989,2.9989,2.9512,2.8994,2.8994,2.9512,2.9989,2.9989,2.9475,2.8994,2.8994,2.9178,2.9372,2.9434,2.9551,2.9643,2.9643,2.9513,2.906,2.8102,2.801,2.7678,2.6906,2.6808,2.659,2.6123,2.6822,2.7243,2.7116,2.7853,2.8152,2.7825,2.7297,2.6483,2.5341,2.4816,2.4511,2.4389,2.495,2.5144,2.5067,2.4496,2.4205,0.0,0.0,0.0,0.0,0.0,0.0,0.0,0.0,0.0,0.0,0.0,0.0,0.0,0.0,0.0,0.0,0.0,0.0,0.0,0.0,0.0,0.0,0.0,0.0,0.0,0.0,0.0,0.0,0.0,0.0,3.0419,3.113,3.1396,3.0972,3.0854,3.0808,3.0887,3.0887,3.1138,3.1638,3.1302,3.0701,3.0002,3.0296,3.0767,3.1317,3.0611,3.034,3.0251,2.9587,2.9518,2.9833,2.9917,3.0246,3.0592,3.0624,3.0841,3.1111,3.1003,3.1154,3.1384,3.1384,3.1384,3.1384,3.1384,3.0907,3.0356,3.0356,2.9787,2.914,2.914,2.9067,2.8994,2.8994,2.9067,2.914,2.914,2.9067,2.8994,2.8994,2.904,2.9163,2.9588,2.9551,2.9434,2.9434,2.9433,2.9126,2.8446,2.8324,2.8057,2.7286,2.721,2.7,2.6488,2.695,2.7467,2.7825,2.8409,2.8686,2.8638,2.7781,2.6809,2.576,2.5325,2.4855,2.4389,2.495,2.495,2.4511,2.3888,2.3618,1.6324,0.0,0.0,0.0,0.0,0.0,0.0,0.0,0.0,0.0,0.0,0.0,0.0,0.0,0.0,0.0,0.0,0.0,0.0,0.0,0.0,0.0,0.0,0.0,0.0,0.0,0.0,0.0,0.0,2.9663,2.9848,3.0552,3.0783,3.048,3.0174,3.0155,3.0454,3.0454,3.0794,3.1403,3.1232,3.0848,3.0277,3.0428,3.0319,2.9976,2.9824,2.9651,2.9448,2.911,2.9102,2.9246,2.9505,2.9721,2.9863,2.9911,3.0006,3.0134,2.9919,2.9923,3.0063,3.0063,3.0063,3.0063,3.0063,2.9824,2.9549,2.9549,2.925,2.8994,2.8994,2.8994,2.8994,2.8994,2.8994,2.8994,2.8994,2.8994,2.9044,2.9181,2.9332,2.9495,2.9813,2.9696,2.9607,2.9731,2.9625,2.938,2.885,2.8787,2.8607,2.8083,2.7897,2.772,2.7478,2.7887,2.829,2.8599,2.9154,2.923,2.8709,2.8019,2.7087,2.595,2.5433,2.495,2.4389,2.4632,2.4617,2.4389,2.4112,2.4194,0.0,0.0,0.0,0.0,0.0,0.0,0.0,0.0,0.0,0.0,0.0,0.0,0.0,0.0,0.0,0.0,0.0,0.0,0.0,0.0,0.0,0.0,0.0,0.0,0.0,0.0,0.0,0.0,0.0,2.8987,2.9381,2.9968,3.0222,3.0091,2.9646,2.9588,2.9996,2.9831,3.0033,3.0636,3.0636,3.0438,3.0058,3.0243,2.9751,2.8716,2.9192,2.9229,2.899,2.8698,2.8629,2.8716,2.8835,2.8918,2.8995,2.8906,2.8923,2.9008,2.8782,2.8791,2.8863,2.897,2.8994,2.8994,2.8994,2.8994,2.8994,2.8994,2.8994,2.8994,2.8994,2.8994,2.8994,2.8994,2.8994,2.9017,2.9089,2.9089,2.9181,2.9475,2.9625,2.9799,3.0061,2.9908,2.9829,2.9984,2.9877,2.9657,2.9288,2.925,2.9133,2.8747,2.8557,2.8427,2.8366,2.8672,2.8963,2.9249,2.972,2.9614,2.8769,2.8356,2.7557,2.6301,2.6021,2.5459,2.4576,2.4721,2.4705,2.4576,2.4576,2.491,0.0,0.0,0.0,0.0,0.0,0.0,0.0,0.0,0.0,0.0,0.0,0.0,0.0,0.0,0.0,0.0,0.0,0.0,0.0,0.0,0.0,0.0,0.0,0.0,0.0,0.0,0.0,0.0,0.0,2.8201,2.88,2.9246,2.9549,2.9717,2.9513,2.9411,2.9448,2.8797,2.8518,2.8572,2.8572,2.8389,2.8078,2.8778,2.8685,2.7999,2.8706,2.9041,2.8911,2.7826,2.7592,2.7859,2.7139,2.7074,2.7376,2.7007,2.707,2.7461,2.784,2.8156,2.8496,2.8881,2.8994,2.8994,2.8994,2.8994,2.8994,2.8994,2.8994,2.8994,2.8994,2.8994,2.8994,2.8994,2.8994,2.9067,2.933,2.9392,2.9494,2.9893,2.9829,2.9848,3.0299,3.015,2.9984,2.9999,2.9999,2.9908,2.9695,2.966,2.9513,2.9114,2.9055,2.8968,2.8796,2.8966,2.9249,2.9641,2.9893,2.9718,2.9096,2.9055,2.839,2.7065,2.7519,2.6916,2.5144,2.5538,2.5538,2.5144,2.5144,2.5449,0.0,0.0,0.0,0.0,0.0,0.0,0.0,0.0,0.0,0.0,0.0,0.0,0.0,0.0,0.0,0.0,0.0,0.0,0.0,0.0,0.0,0.0,0.0,0.0,0.0,0.0,0.0,0.0,0.0,0.0,2.8792,2.9439,2.9746,2.9713,2.9765,2.9661,2.9412,2.8742,2.854,2.8773,2.8522,2.8489,2.8626,2.8881,2.8858,2.8619,2.8891,2.8568,2.7884,2.7469,2.7224,2.7083,2.6808,2.6939,2.7286,2.7147,2.7482,2.8029,2.8166,2.8464,2.8815,2.8952,2.8994,2.8994,2.8994,2.8994,2.8994,2.8994,2.8994,2.8994,2.8994,2.8994,2.8994,2.8994,2.9134,2.9312,2.9533,2.9589,2.9678,2.9954,3.008,3.0202,3.0367,3.0311,3.0254,3.0254,3.0254,3.0241,3.0155,3.0142,3.0114,3.0018,2.9867,2.9782,2.9766,2.9831,2.9688,2.9266,2.9956,2.9844,2.8631,2.9117,2.8916,2.7816,2.7745,2.7161,2.6042,2.6183,2.6059,2.5726,2.5933,2.6129,1.2693,0.0,0.0,0.0,0.0,0.0,0.0,0.0,0.0,0.0,0.0,0.0,0.0,0.0,0.0,0.0,0.0,0.0,0.0,0.0,0.0,0.0,0.0,0.0,0.0,0.0,0.0,0.0,0.0,0.0,2.8246,2.8822,2.9072,2.8865,2.9241,2.928,2.888,2.8567,2.859,2.8994,2.859,2.859,2.8994,2.8994,2.8847,2.8613,2.8613,2.8236,2.766,2.756,2.7255,2.6906,2.6906,2.7051,2.7334,2.7439,2.7718,2.8084,2.8298,2.8489,2.8676,2.8905,2.8994,2.8994,2.8994,2.8994,2.8994,2.8994,2.8994,2.8994,2.8994,2.8994,2.8994,2.8994,2.9134,2.9353,2.9643,2.9786,2.9921,3.0095,3.0286,3.0417,3.0398,3.0398,3.0398,3.0398,3.0398,3.0398,3.0398,3.0398,3.0417,3.0487,3.0287,3.0143,3.0127,2.9764,2.925,2.8597,2.9124,2.8816,2.739,2.8275,2.8387,2.741,2.7301,2.7007,2.6417,2.635,2.625,2.6084,2.6429,2.6627,0.0,0.0,0.0,0.0,0.0,0.0,0.0,0.0,0.0,0.0,0.0,0.0,0.0,0.0,0.0,0.0,0.0,0.0,0.0,0.0,0.0,0.0,0.0,0.0,0.0,0.0,0.0,0.0,2.6194,2.6577,2.7188,2.7405,2.7419,2.722,2.7961,2.8166,2.7772,2.8136,2.8517,2.892,2.8517,2.856,2.892,2.892,2.8503,2.775,2.775,2.7971,2.8296,2.7966,2.7596,2.7265,2.7234,2.7247,2.7326,2.7683,2.7596,2.7404,2.813,2.8148,2.8002,2.8767,2.8975,2.8957,2.8975,2.8975,2.8957,2.8957,2.8938,2.892,2.892,2.892,2.892,2.8943,2.8943,2.9067,2.9532,2.9924,3.0223,3.0362,3.0467,3.0487,3.0398,3.0398,3.0398,3.0398,3.041,3.041,3.0398,3.039,3.039,3.0441,3.0134,2.9879,2.9733,2.8644,2.7873,2.7659,2.7362,2.6669,2.5474,2.6631,2.6853,2.5863,2.6315,2.6481,2.6271,2.6095,2.6063,2.6189,2.6553,2.694,1.2886,0.0,0.0,0.0,0.0,0.0,0.0,0.0,0.0,0.0,0.0,0.0,0.0,0.0,0.0,0.0,0.0,0.0,0.0,0.0,0.0,0.0,0.0,0.0,0.0,0.0,0.0,0.0,2.6673,2.7086,2.7405,2.7663,2.7707,2.7499,2.7509,2.7411,2.7138,2.6836,2.6885,2.7251,2.6843,2.6866,2.7273,2.7273,2.7145,2.6903,2.669,2.662,2.6657,2.6294,2.61,2.5971,2.5744,2.5935,2.6338,2.6216,2.6606,2.7254,2.7461,2.7461,2.7569,2.8657,2.8613,2.8246,2.881,2.8594,2.8136,2.8136,2.7714,2.7273,2.7273,2.7273,2.7298,2.7466,2.7587,2.7768,2.8044,2.8916,2.9794,3.0348,3.0525,3.0544,3.0487,3.0467,3.0467,3.0398,3.0444,3.0455,3.041,2.9924,2.9562,2.9435,2.8807,2.8332,2.8165,2.7606,2.6993,2.6362,2.6988,2.6892,2.5876,2.7014,2.7409,2.6916,2.6265,2.5832,2.5579,2.5852,2.5897,2.5727,2.6837,2.7308,0.0,0.0,0.0,0.0,0.0,0.0,0.0,1.7731,0.0,0.0,0.0,0.0,0.0,0.0,0.0,0.0,0.0,0.0,0.0,0.0,0.0,0.0,0.0,0.0,0.0,2.5135,2.5415,2.5537,2.6003,2.6369,2.6579,2.6721,2.6707,2.6445,2.6605,2.6568,2.6283,2.6271,2.6362,2.6612,2.6362,2.6299,2.6385,2.6385,2.6118,2.5679,2.5499,2.5165,2.4813,2.4459,2.4708,2.5285,2.5222,2.5447,2.5779,2.5765,2.6058,2.6491,2.6534,2.6509,2.6631,2.7513,2.757,2.7383,2.786,2.7677,2.7291,2.7291,2.6961,2.6612,2.6612,2.6677,2.6742,2.686,2.7059,2.7258,2.7481,2.8126,2.8916,2.9786,3.0326,3.0603,3.0511,3.0197,3.0063,3.039,2.9875,2.9569,2.9908,2.927,2.8772,2.8676,2.7915,2.7393,2.7301,2.635,2.557,2.5063,2.5411,2.5375,2.4802,2.5732,2.6209,2.6079,2.5412,2.4926,2.4622,2.5117,2.5488,2.5774,2.6903,2.7278,0.0,0.0,0.0,0.0,0.0,0.0,1.5747,1.6881,0.0,0.0,0.0,0.0,0.0,0.0,0.0,0.0,0.0,0.0,0.0,0.0,0.0,0.0,0.0,0.0,2.3735,2.4211,2.4512,2.4545,2.4845,2.5111,2.5284,2.5274,2.5096,2.4756,2.5412,2.5609,2.5216,2.5928,2.6295,2.6337,2.6337,2.6173,2.5896,2.585,2.529,2.4324,2.4282,2.3868,2.3165,2.278,2.3482,2.483,2.5077,2.5216,2.5344,2.5697,2.5631,2.5384,2.5486,2.5435,2.5401,2.5925,2.6245,2.6423,2.6554,2.6539,2.6447,2.6355,2.6337,2.6337,2.6358,2.6503,2.6637,2.6692,2.6831,2.7028,2.73,2.7448,2.7795,2.8753,2.9732,3.0383,3.0276,2.9593,2.9352,3.0121,2.8978,2.8289,2.9071,2.8482,2.7956,2.7933,2.7147,2.6628,2.6586,2.4898,2.3867,2.3867,2.3388,2.3135,2.3194,2.3775,2.4216,2.4444,2.4328,2.4112,2.3837,2.4248,2.4946,2.5892,2.6728,2.6968,1.6286,1.6045,1.5762,1.628,0.0,0.0,1.5882,1.645,1.7188,0.0,0.0,0.0,0.0,0.0,0.0,0.0,0.0,0.0,0.0,0.0,0.0,0.0,0.0,0.0,2.4074,2.4338,2.4578,2.4731,2.5049,2.5264,2.5303,2.5152,2.486,2.4407,2.4392,2.4263,2.4034,2.4176,2.4411,2.4667,2.4667,2.4629,2.4569,2.4287,2.405,2.3822,2.3554,2.333,2.3141,2.2504,2.2729,2.3527,2.3327,2.3576,2.4055,2.4122,2.4336,2.4587,2.4915,2.4672,2.4436,2.5697,2.571,2.5397,2.6329,2.6153,2.5493,2.485,2.4667,2.4725,2.4856,2.4945,2.5026,2.5305,2.5399,2.5501,2.5776,2.6409,2.7021,2.722,2.8044,2.8672,2.8645,2.85,2.8422,2.8544,2.8296,2.8145,2.8314,2.7683,2.6937,2.6184,2.5416,2.4687,2.3991,2.334,2.2963,2.2963,2.3052,2.3315,2.3788,2.3999,2.4328,2.4797,2.4613,2.4543,2.4572,2.4313,2.4287,2.4532,2.5982,2.6524,0.0,1.7313,1.672,1.6991,0.0,0.0,0.0,0.0,1.7005,1.7365,0.0,0.0,0.0,0.0,0.0,0.0,0.0,0.0,0.0,0.0,0.0,0.0,0.0,0.0,2.417,2.4478,2.4756,2.5043,2.5212,2.5303,2.5303,2.5111,2.4782,2.4304,2.41,2.3908,2.3692,2.3692,2.3876,2.419,2.419,2.4113,2.3937,2.3774,2.3522,2.3189,2.3189,2.3117,2.2923,2.2344,2.2451,2.2923,2.253,2.2813,2.3437,2.3437,2.3572,2.3766,2.3773,2.3593,2.345,2.4373,2.4372,2.4208,2.5132,2.5126,2.4704,2.43,2.419,2.4247,2.4444,2.4559,2.4712,2.4949,2.5107,2.525,2.5408,2.5795,2.6129,2.6186,2.6525,2.7082,2.7957,2.7766,2.7634,2.8039,2.7392,2.7013,2.7495,2.6851,2.6177,2.5701,2.5077,2.448,2.3904,2.3284,2.2902,2.294,2.2937,2.3313,2.4212,2.4155,2.4339,2.4852,2.4596,2.4482,2.4543,2.4461,2.4552,2.4867,2.563,2.5982,0.0,0.0,0.0,0.0,0.0,1.7403,0.0,0.0,0.0,1.765,0.0,0.0,0.0,0.0,0.0,0.0,0.0,0.0,0.0,0.0,0.0,0.0,0.0,0.0,0.0,2.4169,2.4581,2.5244,2.4995,2.4957,2.5284,2.5077,2.4728,2.4219,2.397,2.3787,2.3628,2.3588,2.3795,2.419,2.419,2.4074,2.3795,2.3671,2.3323,2.2822,2.3069,2.3021,2.2652,2.2327,2.2398,2.2669,2.2197,2.2487,2.3189,2.3117,2.3141,2.3141,2.2822,2.2686,2.2686,2.2996,2.3141,2.3305,2.3917,2.4133,2.4172,2.4228,2.4284,2.4357,2.4559,2.4731,2.4888,2.5049,2.5244,2.5412,2.5495,2.5449,2.5412,2.5484,2.5447,2.5857,2.7279,2.6981,2.6816,2.7515,2.6489,2.5886,2.6659,2.6095,2.5609,2.5522,2.5096,2.4716,2.4404,2.3675,2.3265,2.3293,2.3017,2.3379,2.4503,2.4358,2.443,2.4794,2.4503,2.4377,2.4457,2.4685,2.501,2.5444,2.5488,2.556,0.0,0.0,0.0,0.0,1.9644,0.0,0.0,0.0,1.7756,1.7002,0.0,0.0,0.0,0.0,0.0,0.0,0.0,0.0,0.0,0.0,0.0,0.0,0.0,0.0,0.0,2.2707,2.3284,2.5148,2.3928,2.3735,2.5226,2.4987,2.4542,2.3879,2.3487,2.3282,2.3277,2.3277,2.3566,2.419,2.419,2.417,2.4113,2.3522,2.323,2.3141,2.3189,2.3021,2.2678,2.2583,2.26,2.2643,2.1931,2.2289,2.3165,2.2873,2.2947,2.3141,2.2822,2.2537,2.2388,2.266,2.2972,2.3259,2.3631,2.3885,2.4081,2.4391,2.4591,2.4756,2.4911,2.5,2.5114,2.531,2.5388,2.5418,2.5497,2.5448,2.5344,2.519,2.5294,2.5476,2.5735,2.5762,2.5764,2.5879,2.5777,2.5739,2.582,2.5553,2.5224,2.4929,2.4698,2.436,2.3926,2.3823,2.3777,2.3745,2.3539,2.3809,2.473,2.4783,2.4812,2.4809,2.4598,2.4639,2.5004,2.5044,2.4993,2.4904,2.5301,2.554,0.0,0.0,0.0,0.0,0.0,0.0,1.8757,0.0,1.8108,0.0,0.0,0.0,0.0,0.0,0.0,0.0,0.0,0.0,0.0,0.0,0.0,0.0,0.0,0.0,0.0,0.0,0.0,0.0,2.2233,2.2626,2.3837,2.4144,2.4284,2.4317,2.3939,2.3598,2.3374,2.3446,2.3631,2.3917,2.4094,2.4094,2.3896,2.3628,2.3277,2.2923,2.3323,2.3379,2.3152,2.297,2.3111,2.3352,2.231,2.2307,2.2855,2.2478,2.2451,2.2539,2.2398,2.2147,2.1957,2.2337,2.2933,2.3477,2.3414,2.3826,2.4318,2.4459,2.4639,2.4832,2.5,2.5082,2.5145,2.5341,2.5439,2.5467,2.544,2.5333,2.5202,2.5113,2.5082,2.5094,2.5176,2.5358,2.5506,2.5535,2.5599,2.5664,2.5684,2.5572,2.543,2.5274,2.5191,2.4999,2.4637,2.4495,2.4408,2.4373,2.445,2.4653,2.5023,2.5219,2.5277,2.5219,2.5088,2.5082,2.5217,2.5217,2.5195,2.5157,2.543,2.5571,2.291,0.0,0.0,0.0,0.0,0.0,0.0,0.0,0.0,0.0,0.0,0.0,0.0,0.0,0.0,0.0,0.0,0.0,0.0,0.0,0.0,0.0,0.0,0.0,0.0,0.0,0.0,0.0,0.0,2.1398,2.2516,2.3422,2.4042,2.4332,2.422,2.3986,2.3636,2.3717,2.3801,2.3837,2.3996,2.3955,2.3692,2.3522,2.3212,2.2873,2.3346,2.3581,2.3617,2.3426,2.3656,2.397,2.2807,2.2583,2.287,2.2334,2.2057,2.1938,2.1955,2.1816,2.1688,2.2152,2.2798,2.3414,2.3293,2.3832,2.4472,2.4586,2.4785,2.4968,2.5139,2.5195,2.5245,2.5422,2.5488,2.5486,2.5435,2.5271,2.5132,2.5076,2.4987,2.4949,2.4998,2.5182,2.5369,2.5486,2.5576,2.5644,2.5684,2.5586,2.5522,2.5592,2.5521,2.5437,2.5284,2.5104,2.4957,2.4898,2.5126,2.5276,2.5234,2.5398,2.5498,2.5509,2.5354,2.5292,2.5303,2.5303,2.5322,2.5399,2.5481,2.5535,0.0,0.0,0.0,2.0503,0.0,0.0,0.0,0.0,1.8291,0.0,0.0,0.0,0.0,0.0,0.0,0.0,0.0,0.0,0.0,0.0,0.0,0.0,0.0,0.0,0.0,0.0,0.0,0.0,0.0,0.0,2.1661,2.311,2.3769,2.3456,2.3995,2.4189,2.3992,2.3986,2.4061,2.417,2.3876,2.3714,2.3671,2.3021,2.2898,2.3189,2.3212,2.3516,2.3988,2.3969,2.41,2.4204,2.3329,2.3191,2.3365,2.259,2.1982,2.1543,2.1595,2.1612,2.1688,2.2152,2.2517,2.283,2.3338,2.3859,2.4388,2.486,2.513,2.5293,2.538,2.543,2.5504,2.558,2.5547,2.5505,2.5505,2.539,2.5243,2.5034,2.5152,2.5214,2.5034,2.5105,2.5274,2.5476,2.5613,2.5703,2.5703,2.5414,2.5311,2.5572,2.5374,2.5287,2.5459,2.5481,2.5374,2.5114,2.5332,2.5425,2.5301,2.5235,2.5294,2.5498,2.5188,2.5099,2.5303,2.5303,2.5322,2.539,2.5344,2.5375,0.0,0.0,2.1311,2.1363,0.0,0.0,0.0,0.0,0.0,0.0,0.0,0.0,0.0,0.0,0.0,0.0,0.0,0.0,0.0,0.0,0.0,0.0,0.0,0.0,0.0,0.0,0.0,0.0,1.7263,0.0,0.0,2.1014,2.2303,2.3874,2.4001,2.4148,2.4391,2.4352,2.4238,2.4061,2.3821,2.3588,2.3346,2.2898,2.2678,2.2624,2.3038,2.344,2.3878,2.4061,2.4336,2.4561,2.3914,2.3542,2.3282,2.2452,2.2207,2.2231,2.2248,2.246,2.2703,2.284,2.32,2.359,2.3775,2.4273,2.4801,2.4955,2.5152,2.5322,2.539,2.5444,2.5503,2.5535,2.5515,2.5498,2.5447,2.5297,2.5144,2.5076,2.5005,2.4991,2.5057,2.5127,2.5271,2.5471,2.559,2.5644,2.5682,2.5552,2.55,2.5592,2.5529,2.5493,2.5556,2.5533,2.5436,2.5308,2.5378,2.5415,2.5365,2.5437,2.5478,2.5497,2.543,2.5388,2.537,2.537,2.539,2.5409,2.5376,2.5415,2.3729,2.2886,0.0,2.1716,2.029,0.0,1.962,0.0,0.0,0.0,0.0,0.0,0.0,0.0,0.0,0.0,0.0,0.0,0.0,0.0,0.0,0.0,0.0,0.0,0.0,0.0,1.5261,1.4872,0.0,0.0,0.0,0.0,2.1143,2.2797,2.3283,2.3781,2.4342,2.4273,2.4244,2.4209,2.3821,2.3468,2.3189,2.2738,2.2581,2.2634,2.3038,2.3523,2.4063,2.4229,2.4526,2.4823,2.4312,2.4044,2.3823,2.3005,2.2723,2.2698,2.2607,2.276,2.3017,2.3252,2.3608,2.4026,2.4171,2.458,2.5022,2.5088,2.5203,2.5322,2.5409,2.5468,2.5502,2.5561,2.5556,2.5526,2.5483,2.5354,2.5241,2.5234,2.5129,2.5098,2.5229,2.5291,2.5382,2.5477,2.5574,2.5648,2.5685,2.5629,2.5574,2.5609,2.5566,2.5526,2.5528,2.5484,2.5447,2.5409,2.5404,2.5422,2.5441,2.5496,2.5502,2.5463,2.5503,2.5495,2.5391,2.5332,2.5348,2.5428,2.5139,2.5182]},{"header":{"parameterUnit":"m.s-1","parameterCategory":1,"la1":30.6,"la2":29.2853,"lo1":-89.7004,"lo2":-87.6739,"dy":0.0162,"dx":0.0183,"nx":112,"ny":82,"refTime":"2024-08-21T06:00:00:Z","depth":0,"parameterNumber":3,"parameterNumberName":"V-component_of_WINDS"},"data":[0.0,0.0,0.0,0.0,0.0,0.0,0.0,0.0,0.0,0.0,0.0,0.0,0.0,0.0,0.0,0.0,0.0,0.0,0.0,0.0,0.0,0.0,0.0,0.0,0.0,0.0,0.0,0.0,0.0,0.0,0.0,0.0,0.0,0.0,0.0,0.0,0.0,0.0,0.0,0.0,0.0,0.0,0.0,0.0,0.0,0.0,0.0,0.0,0.0,0.0,0.0,0.0,0.0,0.0,0.0,0.0,0.0,0.0,0.0,0.0,0.0,0.0,0.0,0.0,0.0,0.0,0.0,0.0,0.0,0.0,0.0,0.0,0.0,0.0,0.0,0.0,0.0,0.0,0.0,0.0,0.0,0.0,0.0,0.0,0.0,0.0,0.0,0.0,0.0,0.0,0.0,2.1316,2.4353,2.6312,2.6606,2.5323,2.3866,2.2395,0.0,0.0,0.0,0.0,0.0,0.0,0.0,0.0,0.0,0.0,0.0,0.0,0.0,0.0,0.0,0.0,0.0,0.0,0.0,0.0,0.0,0.0,0.0,0.0,0.0,0.0,0.0,0.0,0.0,0.0,0.0,0.0,0.0,0.0,0.0,0.0,0.0,0.0,0.0,0.0,0.0,0.0,0.0,0.0,0.0,0.0,0.0,0.0,0.0,0.0,0.0,0.0,0.0,0.0,0.0,0.0,0.0,0.0,0.0,0.0,0.0,0.0,0.0,0.0,0.0,0.0,0.0,0.0,0.0,0.0,0.0,0.0,0.0,0.0,0.0,0.0,0.0,0.0,0.0,0.0,0.0,0.0,0.0,0.0,0.0,0.0,0.0,0.0,0.0,0.0,0.0,0.0,0.0,0.0,0.0,0.0,0.0,0.0,0.0,0.0,0.0,0.0,0.0,0.0,1.9893,2.3783,2.5452,2.64,2.6657,2.5338,2.3866,2.2395,0.0,0.0,0.0,0.0,0.0,0.0,0.0,0.0,0.0,0.0,0.0,0.0,0.0,0.0,0.0,0.0,0.0,0.0,0.0,0.0,0.0,0.0,0.0,0.0,0.0,0.0,0.0,0.0,0.0,0.0,0.0,0.0,0.0,0.0,0.0,0.0,0.0,0.0,0.0,0.0,0.0,0.0,0.0,0.0,0.0,0.0,0.0,0.0,0.0,0.0,0.0,0.0,0.0,0.0,0.0,0.0,0.0,0.0,0.0,0.0,0.0,0.0,0.0,0.0,0.0,0.0,0.0,0.0,0.0,0.0,0.0,0.0,0.0,0.0,0.0,0.0,0.0,0.0,0.0,0.0,0.0,0.0,0.0,0.0,0.0,0.0,0.0,0.0,0.0,0.0,0.0,0.0,0.0,0.0,0.0,0.0,0.0,0.0,0.0,0.0,0.0,0.0,0.0,1.9577,2.2207,2.5234,2.6095,2.6521,2.6691,2.5338,2.3866,2.2395,1.9387,0.0,0.0,0.0,0.0,0.0,0.0,0.0,0.0,0.0,0.0,0.0,0.0,0.0,0.0,0.0,0.0,0.0,0.0,0.0,0.0,0.0,0.0,0.0,0.0,0.0,0.0,0.0,0.0,0.0,0.0,0.0,0.0,0.0,0.0,0.0,0.0,0.0,0.0,0.0,0.0,0.0,0.0,0.0,0.0,0.0,0.0,0.0,0.0,0.0,0.0,0.0,0.0,0.0,0.0,0.0,0.0,0.0,0.0,0.0,0.0,0.0,0.0,0.0,0.0,0.0,0.0,0.0,0.0,0.0,0.0,0.0,0.0,0.0,0.0,0.0,0.0,0.0,0.0,0.0,0.0,0.0,0.0,0.0,0.0,0.0,0.0,0.0,0.0,0.0,0.0,0.0,0.0,0.0,0.0,0.0,0.0,0.0,0.0,0.0,0.0,0.0,0.0,2.2052,2.4037,2.6005,2.6468,2.664,2.6691,2.5338,2.3849,2.2367,1.9345,0.0,0.0,0.0,0.0,0.0,0.0,0.0,0.0,0.0,0.0,0.0,0.0,0.0,0.0,0.0,0.0,0.0,0.0,0.0,0.0,0.0,0.0,0.0,0.0,0.0,0.0,0.0,0.0,0.0,0.0,0.0,0.0,0.0,0.0,0.0,0.0,0.0,0.0,0.0,0.0,0.0,0.0,0.0,0.0,0.0,0.0,0.0,0.0,0.0,0.0,0.0,0.0,0.0,0.0,0.0,0.0,0.0,0.0,0.0,0.0,0.0,0.0,0.0,0.0,0.0,0.0,0.0,0.0,0.0,0.0,0.0,0.0,0.0,0.0,0.0,0.0,0.0,0.0,0.0,0.0,0.0,0.0,0.0,0.0,0.0,0.0,0.0,0.0,0.0,0.0,0.0,0.0,0.0,0.0,0.0,0.0,0.0,0.0,0.0,0.0,0.0,0.0,2.2306,2.4261,2.6094,2.6503,2.664,2.6691,2.5338,2.3849,2.2293,1.9303,0.0,0.0,0.0,0.0,0.0,0.0,0.0,0.0,0.0,0.0,0.0,0.0,0.0,0.0,0.0,0.0,0.0,0.0,0.0,0.0,0.0,0.0,0.0,0.0,0.0,0.0,0.0,0.0,0.0,0.0,0.0,0.0,0.0,0.0,0.0,0.0,0.0,0.0,0.0,0.0,0.0,0.0,0.0,0.0,0.0,0.0,0.0,0.0,0.0,0.0,0.0,0.0,0.0,0.0,0.0,0.0,0.0,0.0,0.0,0.0,0.0,0.0,0.0,0.0,0.0,0.0,0.0,0.0,0.0,0.0,0.0,0.0,0.0,0.0,0.0,0.0,0.0,0.0,0.0,0.0,0.0,0.0,0.0,0.0,0.0,0.0,0.0,0.0,0.0,0.0,0.0,0.0,0.0,0.0,0.0,0.0,0.0,0.0,0.0,0.0,0.0,0.0,2.254,2.4497,0.0,2.6589,2.6674,2.6691,2.5338,2.3849,2.2293,0.0,0.0,0.0,0.0,0.0,0.0,0.0,0.0,0.0,0.0,0.0,0.0,0.0,0.0,0.0,0.0,0.0,0.0,0.0,0.0,0.0,0.0,0.0,0.0,0.0,0.0,0.0,0.0,0.0,0.0,0.0,0.0,0.0,0.0,0.0,0.0,0.0,0.0,0.0,0.0,0.0,0.0,0.0,0.0,0.0,0.0,0.0,0.0,0.0,0.0,0.0,0.0,0.0,0.0,0.0,0.0,0.0,0.0,0.0,0.0,0.0,0.0,0.0,0.0,0.0,0.0,0.0,0.0,0.0,0.0,0.0,0.0,0.0,0.0,0.0,0.0,0.0,0.0,0.0,0.0,0.0,0.0,0.0,0.0,0.0,0.0,0.0,0.0,0.0,0.0,0.0,0.0,0.0,0.0,0.0,0.0,0.0,0.0,0.0,0.0,0.0,0.0,2.0528,2.272,2.4614,0.0,2.664,2.6691,2.6691,2.5338,2.3819,2.2236,0.0,0.0,0.0,0.0,0.0,0.0,0.0,0.0,0.0,0.0,0.0,0.0,0.0,0.0,0.0,0.0,0.0,0.0,0.0,0.0,0.0,0.0,0.0,0.0,0.0,0.0,0.0,0.0,0.0,0.0,0.0,0.0,0.0,0.0,0.0,0.0,0.0,0.0,0.0,0.0,0.0,0.0,0.0,0.0,0.0,0.0,0.0,0.0,0.0,0.0,0.0,0.0,0.0,0.0,0.0,0.0,0.0,0.0,0.0,0.0,0.0,0.0,0.0,0.0,0.0,0.0,0.0,0.0,0.0,0.0,0.0,0.0,0.0,0.0,0.0,0.0,0.0,0.0,0.0,0.0,0.0,0.0,0.0,0.0,0.0,0.0,0.0,0.0,0.0,0.0,0.0,0.0,0.0,0.0,0.0,0.0,0.0,0.0,0.0,0.0,0.0,0.0,2.056,2.2769,2.4663,2.6421,2.664,2.6691,2.6691,2.5338,2.3789,0.0,0.0,0.0,0.0,0.0,0.0,0.0,0.0,0.0,0.0,0.0,0.0,0.0,0.0,0.0,0.0,0.0,0.0,0.0,0.0,0.0,0.0,0.0,0.0,0.0,0.0,0.0,0.0,0.0,0.0,0.0,0.0,0.0,0.0,0.0,0.0,0.0,0.0,0.0,0.0,0.0,0.0,0.0,0.0,0.0,0.0,0.0,0.0,0.0,0.0,0.0,0.0,0.0,0.0,0.0,0.0,0.0,0.0,0.0,0.0,0.0,0.0,0.0,0.0,0.0,0.0,0.0,0.0,0.0,0.0,0.0,0.0,0.0,0.0,0.0,0.0,0.0,0.0,0.0,0.0,0.0,0.0,0.0,0.0,0.0,0.0,0.0,0.0,0.0,0.0,0.0,0.0,0.0,0.0,0.0,0.0,0.0,0.0,0.0,0.0,0.0,0.0,0.0,2.0842,2.2993,2.4827,2.6489,2.6708,2.6691,2.6691,2.5338,2.3759,2.2061,0.0,0.0,0.0,0.0,0.0,0.0,0.0,0.0,0.0,0.0,0.0,0.0,0.0,0.0,0.0,0.0,0.0,0.0,0.0,0.0,0.0,0.0,0.0,0.0,0.0,0.0,0.0,0.0,0.0,0.0,0.0,0.0,0.0,0.0,0.0,0.0,0.0,0.0,0.0,0.0,0.0,0.0,0.0,0.0,0.0,0.0,0.0,0.0,0.0,0.0,0.0,0.0,0.0,0.0,0.0,0.0,0.0,0.0,0.0,0.0,0.0,0.0,0.0,0.0,0.0,0.0,0.0,0.0,0.0,0.0,0.0,0.0,0.0,0.0,0.0,0.0,0.0,0.0,0.0,0.0,0.0,0.0,0.0,0.0,0.0,0.0,0.0,0.0,0.0,0.0,0.0,0.0,0.0,0.0,0.0,0.0,0.0,0.0,0.0,0.0,0.0,0.0,2.0951,2.3104,2.4908,2.6539,2.6691,2.6691,2.6691,2.5209,2.366,2.228,0.0,0.0,0.0,0.0,0.0,0.0,0.0,0.0,0.0,0.0,0.0,0.0,0.0,0.0,0.0,0.0,0.0,0.0,0.0,0.0,0.0,0.0,0.0,0.0,0.0,0.0,0.0,0.0,0.0,0.0,0.0,0.0,0.0,0.0,0.0,0.0,0.0,0.0,0.0,0.0,0.0,0.0,0.0,0.0,0.0,0.0,0.0,0.0,0.0,0.0,0.0,0.0,0.0,0.0,0.0,0.0,0.0,0.0,0.0,0.0,0.0,0.0,0.0,0.0,0.0,0.0,0.0,0.0,0.0,0.0,0.0,0.0,0.0,0.0,0.0,0.0,0.0,0.0,0.0,0.0,0.0,0.0,0.0,0.0,0.0,0.0,0.0,0.0,0.0,0.0,0.0,0.0,0.0,0.0,0.0,0.0,0.0,0.0,0.0,0.0,0.0,0.0,2.0982,2.3136,2.494,2.6539,2.6691,2.6691,2.6691,2.498,2.3523,2.2654,0.0,0.0,0.0,0.0,0.0,0.0,0.0,0.0,0.0,0.0,0.0,0.0,0.0,0.0,0.0,0.0,0.0,0.0,0.0,0.0,0.0,0.0,0.0,0.0,0.0,0.0,0.0,0.0,0.0,0.0,0.0,0.0,0.0,0.0,0.0,0.0,0.0,0.0,0.0,0.0,0.0,0.0,0.0,0.0,0.0,0.0,0.0,0.0,0.0,0.0,0.0,0.0,0.0,0.0,0.0,0.0,0.0,0.0,0.0,0.0,0.7802,0.0,0.0,0.0,0.0,0.0,0.0,0.0,0.0,0.0,0.0,0.0,0.0,0.0,0.0,0.0,0.0,0.0,0.0,0.0,0.0,0.0,0.0,0.0,0.0,0.0,0.0,0.0,0.0,0.0,0.0,0.0,0.0,0.0,0.0,0.0,0.0,0.0,0.0,0.0,0.0,0.0,2.1133,2.3243,2.5019,2.6539,2.6691,2.6691,2.6691,2.498,2.3506,2.2573,1.922,0.0,0.0,0.0,0.0,0.0,0.0,0.0,0.0,0.0,0.0,0.0,0.0,0.0,0.0,0.0,0.0,0.0,0.0,0.0,0.0,0.0,0.0,0.0,0.0,0.0,0.0,0.0,0.0,0.0,0.0,0.0,0.0,0.0,0.0,0.0,0.0,0.0,0.0,0.0,0.0,0.0,0.0,0.0,0.0,0.0,0.0,0.0,0.0,0.0,0.0,0.0,0.0,0.0,0.0,0.0,0.0,0.0,0.0,0.0,0.0,0.909,0.0,0.0,0.0,0.0,0.0,0.0,0.0,0.0,0.0,0.0,0.0,0.0,0.0,0.0,0.0,0.0,0.0,0.0,0.0,0.0,0.0,0.0,0.0,0.0,0.0,0.0,0.0,0.0,0.0,0.0,0.0,0.0,0.0,0.0,0.0,0.0,0.0,0.0,0.0,0.0,2.1658,2.3809,2.5456,2.6573,2.6691,2.6624,2.6367,2.4643,2.3236,2.2487,1.9388,0.0,0.0,0.0,0.0,0.0,0.0,0.0,0.0,0.0,0.0,0.0,0.0,0.0,0.0,0.0,0.0,0.0,0.0,0.0,0.0,0.0,0.0,0.0,0.0,0.0,0.0,0.0,0.0,0.0,0.0,0.0,0.0,0.0,0.0,0.0,0.0,0.0,0.0,0.0,0.0,0.0,0.0,0.0,0.0,0.0,0.0,0.0,0.0,0.0,0.0,0.0,0.0,0.0,1.1046,1.1844,1.3434,1.3,1.3263,1.4057,1.1995,1.1419,1.1841,0.0,0.0,0.0,0.0,0.0,0.0,0.0,0.0,0.0,0.0,0.0,0.0,0.0,0.0,0.0,0.0,0.0,0.0,0.0,0.0,0.0,0.0,0.0,0.0,0.0,1.333,1.308,0.0,0.0,0.0,0.0,0.0,0.0,0.0,0.0,0.0,0.0,0.0,0.0,2.2199,2.4231,2.5781,2.6607,2.6691,2.6505,2.6049,2.4376,2.3108,2.2434,1.9641,1.7981,0.0,0.0,0.0,0.0,0.0,0.0,0.0,0.0,0.0,0.0,0.0,0.0,0.0,0.0,0.0,0.0,0.0,0.0,0.0,0.0,0.0,0.0,0.0,0.0,0.0,0.0,0.0,0.0,0.0,0.0,0.0,0.0,0.8489,0.9345,0.0,0.0,0.0,0.0,0.0,0.0,0.0,0.0,0.0,0.0,0.0,0.0,0.0,0.0,1.1624,1.2637,1.3468,1.3983,1.4197,1.463,1.5223,1.5204,1.5575,1.6328,1.5503,0.0,1.3309,1.2923,0.0,0.0,0.0,0.0,0.0,0.0,0.0,0.0,0.0,0.0,0.0,0.0,0.0,0.0,0.0,0.0,0.0,0.0,0.0,0.0,0.0,0.0,1.6011,1.6129,1.6732,1.7118,0.0,1.4047,1.2074,1.2226,0.0,0.0,0.0,0.0,0.0,0.0,0.0,0.0,2.22,2.3917,2.5379,2.6573,2.6691,2.6505,2.6049,2.4794,2.3581,2.2465,2.0558,1.9166,1.8597,1.7279,0.0,0.0,0.0,0.0,0.0,0.0,0.0,0.0,0.0,0.0,0.0,0.0,0.0,0.0,0.0,0.0,0.0,0.0,0.0,0.0,0.0,0.0,0.0,0.0,0.0,0.0,0.0,0.0,0.0,0.845,0.9723,1.0377,1.0761,1.0765,0.0,0.0,0.0,0.0,0.0,0.0,0.0,0.0,0.0,1.2731,1.2948,1.3345,1.3998,1.4697,1.5386,1.612,1.5854,1.6408,1.7685,1.7099,1.7397,1.8204,1.7953,1.725,1.6334,1.5097,1.443,1.4119,0.0,0.0,0.0,0.0,0.0,1.2117,1.2376,1.2581,0.0,0.0,0.0,0.0,0.0,0.0,0.0,0.0,0.0,0.0,0.0,0.0,0.0,1.7991,1.8462,1.8692,1.8419,1.7025,1.5539,0.0,1.4609,1.4731,1.4854,0.0,0.0,0.0,0.0,0.0,2.3213,2.465,2.5775,2.6624,2.6691,2.6505,2.6049,2.5179,2.418,2.3025,2.1547,2.0436,1.9854,1.8553,1.7535,0.0,0.0,0.0,0.0,0.0,0.0,0.0,0.0,0.0,0.0,0.0,0.0,0.0,0.0,0.0,0.0,0.0,0.0,0.0,0.0,0.0,0.0,0.0,0.0,0.0,0.0,0.0,0.0,0.9672,1.0798,1.145,1.2043,1.22,0.0,0.0,0.0,0.0,0.0,0.0,1.3988,1.4083,1.4427,1.5135,1.5236,1.5566,1.6154,1.6657,1.7224,1.8007,1.7534,1.8106,1.9609,1.892,1.8995,1.9609,1.9492,1.9268,1.8776,1.7147,1.635,1.5985,1.552,1.5124,1.4725,1.4497,1.4249,1.4139,1.4387,1.4586,1.4631,1.4583,0.0,1.3826,1.3193,0.0,0.0,0.0,0.0,1.5663,1.8326,1.8672,1.8629,1.9681,2.0107,2.0251,2.0123,1.9773,1.8969,0.0,1.6991,1.7075,1.7144,0.0,0.0,0.0,0.0,2.2692,2.4312,2.5562,2.6391,2.6674,2.6691,2.6505,2.6049,2.5553,2.47,2.346,2.2356,2.1439,2.0722,1.9585,1.8642,1.7951,0.0,0.0,0.0,0.0,0.0,0.0,0.0,0.0,0.0,0.0,0.0,0.0,0.0,0.0,0.0,0.0,0.0,0.0,0.0,0.0,0.0,0.0,0.0,0.0,0.0,0.0,0.0,0.0,0.0,1.2561,1.3084,0.0,0.0,0.0,0.0,1.3975,1.4627,1.5169,1.5423,1.5665,1.5833,1.5948,1.6794,1.7442,1.7787,1.8718,1.938,1.9769,1.9713,2.0022,2.0498,2.0498,2.0498,2.0478,2.0059,1.9873,1.9775,1.8806,1.7969,1.7353,1.7571,1.7255,1.6694,1.6373,1.6241,1.6186,1.6002,1.6008,1.622,1.6999,1.6706,1.5968,1.4879,1.4833,0.0,0.0,1.735,1.7809,1.9636,2.0577,2.114,2.1675,2.236,2.278,2.2268,2.2014,2.1424,0.0,1.8689,1.8536,2.0034,0.0,2.0229,2.1982,2.3371,2.4451,2.508,2.6276,2.6972,2.6725,2.6691,2.6505,2.6049,2.598,2.5236,2.3491,2.2738,2.1864,2.0737,2.0019,1.9331,1.8672,1.7294,0.0,0.0,0.0,0.0,0.0,0.0,0.0,0.0,0.0,0.0,0.0,0.0,0.0,0.0,0.0,0.0,0.0,0.0,0.0,0.0,0.0,0.0,0.0,0.0,0.0,0.0,0.0,0.0,1.383,1.4661,0.0,1.4998,1.5068,1.5449,1.6172,1.6694,1.7137,1.7493,1.7862,1.8203,1.8518,1.8843,1.9211,1.9631,1.9955,2.0185,2.0332,2.0332,2.042,2.0566,2.0566,2.0566,2.0557,2.04,2.0332,2.0312,2.0,1.9375,1.8623,1.8699,1.866,1.8453,1.8322,1.8241,1.8222,1.8139,1.8151,1.827,1.8954,1.9173,1.9114,1.8373,1.8312,1.866,1.9568,1.9565,1.9723,2.1584,2.1837,2.1836,2.2518,2.2884,2.3075,2.2887,2.279,2.2546,2.1959,2.1317,2.1056,2.1574,2.2038,2.2618,2.3511,2.4132,2.5029,2.6356,2.6929,2.7251,2.7382,2.7121,2.6706,2.6046,2.5689,2.4878,2.3491,2.2769,2.1894,2.0737,2.0049,1.957,1.9346,1.8463,1.7173,0.0,0.0,0.0,0.0,0.0,0.0,0.0,0.0,0.0,0.0,0.0,0.0,0.0,0.0,0.0,0.0,0.0,0.0,0.0,0.0,0.0,0.0,0.0,0.0,0.0,0.0,1.4239,1.5022,1.5977,1.6514,1.6514,1.6768,1.7168,1.7764,1.833,1.8779,1.9053,1.9482,1.9912,2.0342,2.0361,2.0566,2.1006,2.1016,2.1016,2.1016,2.1016,2.1016,2.1006,2.0859,2.1016,2.1298,2.0781,2.0934,2.1527,2.1231,2.0954,2.0636,2.0004,1.9717,1.9697,1.9551,1.9502,1.9546,1.9763,1.9981,2.0348,2.0663,2.1074,2.1255,2.0926,2.0899,2.1101,2.1753,2.169,2.1698,2.3282,2.3121,2.2725,2.3304,2.3276,2.3078,2.3078,2.3078,2.3078,2.3078,2.2878,2.2803,2.2994,2.3554,2.4287,2.5055,2.5455,2.6163,2.7471,2.7872,2.802,2.7848,2.74,2.6829,2.6113,2.5347,2.4433,2.3437,2.2568,2.1679,2.0722,2.0085,1.9726,1.9726,1.894,1.7915,1.662,0.0,0.0,0.0,0.0,0.0,0.0,0.0,0.0,0.0,0.0,0.0,0.0,0.0,0.0,0.0,0.0,0.0,0.0,0.0,0.0,0.0,0.0,0.0,1.2704,1.384,1.5061,1.6035,1.6914,1.7451,1.7461,1.8193,1.8621,1.865,1.9482,1.9961,1.9971,2.0371,2.081,2.124,2.125,2.1455,2.1885,2.1885,2.1885,2.1967,2.1967,2.1967,2.203,2.1526,2.1859,2.273,2.1308,2.1787,2.3486,2.2521,2.266,2.3316,2.1461,2.0722,2.0663,2.0164,2.0007,2.0098,2.0668,2.149,2.2309,2.2309,2.2309,2.2309,2.2286,2.2286,2.2491,2.3301,2.3568,2.3713,2.4613,2.4418,2.4017,2.4004,2.3565,2.3103,2.3078,2.3078,2.3138,2.3138,2.3302,2.3685,2.4325,2.4623,2.5263,2.6624,2.7442,0.0,2.8283,2.9083,2.9161,2.8052,2.7449,2.6853,2.623,2.4958,2.3925,2.339,2.2164,2.1218,2.0677,2.0122,1.9797,1.9797,1.8781,1.7838,1.6955,0.0,0.0,0.0,0.0,0.0,0.0,0.0,0.0,0.0,0.0,0.0,0.0,0.0,0.0,0.0,0.0,0.0,0.0,0.0,0.0,0.0,0.0,1.46,1.4965,1.5853,1.6854,1.7832,1.8418,1.8887,1.9189,1.9424,1.9824,2.0469,2.0742,2.1006,2.1328,2.1455,2.1582,2.1699,2.1709,2.1768,2.1885,2.1885,2.2267,2.3041,2.3041,2.3514,2.4309,2.4179,2.427,2.4493,2.4127,2.4216,2.4678,2.4447,2.4236,2.4007,2.3067,2.2713,2.2691,2.2561,2.2507,2.2559,2.2732,2.341,2.4214,2.4214,2.4716,2.5208,2.4792,2.467,2.4597,2.4505,2.4406,2.4484,2.4755,2.4707,2.4494,2.4092,2.3879,2.364,2.3165,2.3078,2.3245,2.3826,2.4433,2.4915,2.508,2.6064,2.6932,2.7325,2.7523,0.0,2.8984,2.9311,2.9381,2.9208,2.8148,2.7058,2.6116,2.4269,2.2897,2.2203,2.1386,2.0632,1.9989,1.9831,1.9839,2.0158,1.9671,1.9072,0.0,0.0,0.0,0.0,0.0,0.0,0.0,0.0,0.0,0.0,0.0,0.0,0.0,0.0,0.0,0.0,0.0,0.0,0.0,0.0,0.0,0.0,1.5293,1.6519,1.7473,1.7668,1.8409,2.0172,1.9885,1.9856,2.0722,2.1009,2.1198,2.1191,2.178,2.2069,2.1875,2.1885,2.2201,2.2857,2.2857,2.3196,2.3784,2.3784,2.4103,2.4724,2.4724,2.5139,2.57,2.5566,2.5711,0.0,2.5495,2.5635,2.6399,2.593,2.582,0.0,0.0,0.0,0.0,0.0,2.3745,2.412,2.412,2.4779,2.5664,2.5664,2.6025,2.6402,2.6063,2.5963,2.59,2.5586,2.5511,2.5511,2.5511,2.5322,2.5071,2.4745,2.4506,2.4255,2.3916,2.3665,2.3611,2.4082,0.0,0.0,2.5342,2.664,2.7625,2.7675,2.774,2.8057,2.8919,2.9316,2.9572,2.9475,2.854,2.747,2.6309,2.433,0.0,0.0,0.0,2.0504,2.0045,2.0208,0.0,0.0,0.0,0.0,0.0,0.0,0.0,0.0,1.8674,1.9095,0.0,0.0,0.0,0.0,0.0,0.0,0.0,0.0,0.0,0.0,0.0,0.0,0.0,0.0,0.0,0.0,1.6992,1.8213,1.9836,1.9442,1.99,2.2347,2.1145,2.0657,2.1993,2.2576,2.248,2.1599,2.2806,2.3134,2.2105,0.0,0.0,0.0,0.0,2.4959,2.6472,2.6483,2.6554,2.6719,2.6719,2.6719,2.6883,2.6428,2.6779,2.7538,2.6236,2.6664,2.8211,2.7332,2.7457,2.7975,2.5534,2.4323,2.3806,2.3806,2.4409,2.5158,2.5158,0.0,0.0,2.6533,2.6533,2.6533,2.6533,2.6533,2.6533,2.6533,2.6533,2.6533,2.6533,2.6076,2.5674,2.5611,2.5247,2.487,2.4757,2.4343,2.4041,2.4028,2.4188,2.4509,2.5287,2.6534,2.756,2.774,2.7905,2.8088,2.8463,2.9166,2.9512,2.9194,0.0,0.0,2.6585,2.4739,2.334,2.2753,2.1579,2.0862,2.073,2.115,2.1842,2.2702,2.2751,2.3285,2.4275,2.4275,2.4594,2.5125,2.2247,2.1873,0.0,0.0,0.0,0.0,0.0,0.0,0.0,0.0,0.0,0.0,0.0,0.0,0.0,0.0,0.0,1.6963,1.8135,1.9429,2.0896,2.1228,2.1264,2.109,2.1394,2.1863,2.264,2.2843,2.3134,2.3556,2.3937,2.3742,2.2871,2.2891,0.0,2.4661,2.4661,2.5292,2.6483,2.6483,2.6964,2.7763,0.0,0.0,2.9131,2.9098,2.9127,2.9294,2.9028,2.9133,2.9465,2.9299,2.9024,2.8587,2.7284,2.6411,2.5943,2.5943,2.6013,2.6233,2.6233,2.6314,2.6533,2.6533,2.6533,2.6533,2.6533,2.6533,0.0,2.6533,2.6533,2.6533,2.6533,2.6445,2.6176,2.5711,2.5523,2.5209,2.4343,2.4067,2.4039,2.4216,2.4255,2.4509,2.5287,2.6122,2.693,2.7575,2.7675,2.786,2.8431,2.8654,2.8842,2.9104,2.8352,2.7391,2.6349,2.4711,2.3483,2.2753,2.2308,2.2075,2.2045,2.2909,2.3569,2.4025,2.4394,2.4826,2.5314,2.5314,2.5693,2.6409,2.4833,2.5153,0.0,0.0,0.0,0.0,0.0,0.0,0.0,0.0,0.0,0.0,0.0,1.5,1.5644,0.0,1.7568,1.8232,1.9043,1.9895,2.0838,2.16,2.2038,2.2048,2.2692,2.3297,2.3547,2.4548,2.488,2.4249,2.4906,2.4724,2.3212,2.3135,2.3887,2.5641,2.563,2.6461,2.8131,2.8131,2.845,2.8937,2.8937,2.9275,2.9792,2.9792,2.9792,2.9792,2.9792,2.9792,2.9792,2.9792,2.9453,2.8875,2.8323,2.7607,2.6866,2.6866,2.6703,2.6533,2.6533,2.6533,2.6533,2.6533,2.6533,2.6533,2.6533,2.6533,2.6533,2.6533,2.6533,2.6533,2.6533,2.6533,2.6389,2.6101,2.6025,2.5887,2.5347,2.5008,2.476,2.4564,2.4352,2.4294,2.4791,2.5175,2.5673,2.6375,2.6811,2.7137,2.7464,2.8061,2.8559,2.8795,2.8389,2.7767,2.6933,2.5212,2.3857,2.3092,2.3188,2.3201,2.3154,2.403,2.473,2.5283,2.5714,2.6313,2.701,2.743,2.7921,2.8482,2.8288,2.8327,0.0,0.0,0.0,0.0,0.0,0.0,0.0,0.0,1.5667,1.6358,1.6951,1.7402,1.7625,1.8311,1.9004,1.9355,1.9766,2.0166,2.0518,2.1451,2.2253,2.285,2.3727,2.4363,2.4464,2.6151,2.6495,2.4737,2.559,2.5305,2.3222,2.3135,2.4135,2.64,2.6483,2.7557,2.9792,2.9792,2.9792,2.9792,2.9792,2.9792,2.9792,2.9792,2.9792,2.9792,2.9792,2.9792,2.9792,2.9792,2.9515,2.9089,2.9089,2.8486,2.7595,2.7482,2.7092,2.6684,2.6684,2.6622,2.6533,2.6533,2.6533,2.6533,2.6533,2.6533,2.6533,2.6533,2.6533,2.6533,2.6533,2.6533,2.6533,2.6533,2.6533,2.6496,2.6382,2.5925,2.541,2.4782,2.4305,2.3988,2.4047,2.406,2.4394,2.5287,2.5906,2.6283,2.6283,2.7348,2.811,2.811,2.8222,2.8042,2.7381,2.588,2.468,2.4033,2.456,2.4814,2.463,2.5483,2.6243,2.686,2.7348,2.8067,2.8993,2.9626,3.0126,3.0448,3.1256,3.0982,1.3444,1.3633,1.4273,1.5314,1.6091,1.6795,0.0,0.0,1.9158,1.8722,1.9198,1.9442,1.8616,1.9199,1.9785,1.9834,2.0215,2.0508,2.0557,2.1451,2.1735,2.1011,2.2906,2.4509,2.5047,2.5656,2.6073,2.6195,2.543,2.4457,2.3135,2.3135,2.4135,2.64,2.6483,2.7557,2.9792,2.9792,2.9792,2.9792,2.9792,2.9792,2.9792,2.9792,2.9792,2.9792,2.9792,2.9792,2.9792,2.9792,2.9754,2.9691,2.9691,2.9302,2.8687,2.8197,2.7657,2.7193,2.7193,2.6866,2.6533,2.6533,2.6533,2.6533,2.6533,2.6533,2.6533,2.6533,2.6533,2.6533,2.6533,2.6533,2.6533,2.6533,2.6533,2.6314,2.5799,2.5636,2.5297,2.428,2.4042,2.3816,2.3286,2.3245,2.3695,2.5175,2.5453,2.5508,2.5508,2.6215,2.6707,2.6707,2.7291,2.7455,2.6778,2.6474,2.6264,2.6153,2.713,2.7582,2.7196,2.8423,2.9123,2.9215,3.0007,3.0658,3.1059,3.1151,3.1212,3.1274,3.21,3.236,1.5168,1.5868,1.6788,0.0,1.8386,1.9141,2.0452,2.0864,2.1143,2.1415,2.161,2.1501,2.0699,2.091,2.0949,0.0,2.0664,2.0859,2.0605,2.1163,2.1301,2.0673,2.2303,2.3688,2.4165,2.5203,2.5691,2.5514,2.5041,2.4296,2.3135,2.3135,2.4135,2.64,2.6483,2.7557,2.9792,2.9792,2.9792,2.9792,2.9792,2.9792,2.9792,2.9792,2.9792,2.9792,2.9792,2.9792,2.9792,2.9792,2.9792,2.9792,2.9792,2.9641,2.9365,2.88,2.8235,2.772,2.7394,2.713,2.6892,2.6634,2.6533,2.6533,2.6533,2.6533,2.6533,2.6533,2.6533,2.6533,2.6533,2.6533,2.6533,2.6533,2.6533,2.6458,2.6151,2.6101,2.5774,2.4695,2.4481,2.4192,2.3288,2.3078,2.3305,2.3975,2.4452,2.4738,2.4738,2.5398,2.6014,2.6457,2.7152,2.7355,2.6647,2.6903,2.7032,2.6972,2.8014,2.867,2.8767,2.9787,3.0373,3.036,3.0919,3.1258,3.1384,3.1861,3.21,3.2118,3.2926,3.3311,1.7051,0.0,0.0,2.0054,2.0711,2.1559,2.2902,2.3084,2.3103,2.3673,2.3607,2.3183,2.2189,2.2027,2.1659,2.0789,2.0947,2.1074,2.0625,2.0947,2.1064,2.0625,2.1602,2.2428,2.2804,2.4287,2.5006,2.4651,2.4355,2.3831,2.3135,2.3135,2.4135,2.64,2.6483,2.7557,2.9792,2.9792,2.9792,2.9792,2.9792,2.9792,2.9792,2.9792,2.9792,2.9792,2.9792,2.9792,2.9792,2.9792,2.9792,2.9792,2.9792,2.9792,2.9741,2.9315,2.8812,2.8247,2.7708,2.7406,2.7193,2.664,2.6533,2.6533,2.6533,2.6533,2.6533,2.6533,2.6658,2.6782,2.6589,2.6658,2.6782,2.6521,2.6533,2.6533,2.6533,2.6533,2.6138,2.5034,2.482,2.4456,2.3265,2.3078,2.3078,2.3078,2.3603,2.3943,2.3943,2.4781,2.5673,2.6404,2.7152,2.7465,2.7131,2.7659,2.8063,2.8114,2.9097,2.9798,3.0068,3.1023,3.1482,3.1365,3.1832,3.2045,3.2045,3.2651,3.2944,3.2963,3.3532,3.3807,0.0,0.0,2.0797,2.2412,2.3354,2.418,2.5247,2.5511,2.5406,2.4991,2.4969,2.4325,2.2328,2.2027,2.1659,2.0789,2.0947,2.1074,2.0625,2.0947,2.1064,2.0625,2.0654,2.084,0.0,2.2633,2.3714,2.4187,2.3177,2.2705,2.3115,2.3135,2.4135,2.64,2.6483,2.7557,2.9792,2.9792,2.9792,2.9792,2.9792,2.9792,2.9792,2.9792,2.9792,2.9792,2.9792,2.9792,2.9792,2.9792,2.9792,2.9792,2.9792,2.9792,2.9792,2.9779,2.9402,2.8825,2.8273,2.7733,2.7193,2.664,2.6533,2.6533,2.6533,2.6533,2.6533,2.6533,2.704,2.7484,2.6714,2.7095,2.7484,2.6714,2.6533,2.6533,2.6533,2.6533,2.6138,2.5034,2.482,2.4456,2.3265,2.3078,2.3078,2.3078,2.3138,2.3138,2.3138,2.4439,2.5673,2.6404,2.7152,2.7845,2.8384,2.9027,2.9597,3.0185,3.1142,3.1586,3.1267,3.2468,3.2944,3.257,3.333,3.3733,3.3733,3.3752,3.3752,3.3752,3.3788,3.3807,2.0072,0.0,2.2564,2.3866,2.4593,2.5247,2.6,2.6163,2.6158,2.6057,2.5591,2.484,2.3413,2.2562,2.1736,2.0822,2.1055,2.1233,2.0703,2.1445,2.1709,2.0684,2.083,0.0,0.0,0.0,0.0,2.3022,2.2755,2.2695,2.3115,2.3135,2.4135,2.64,2.6483,2.7557,2.9792,2.9792,2.9792,2.9792,2.9792,2.9792,2.9792,2.9792,2.9792,2.9792,2.9792,2.9792,2.9792,2.9792,2.9792,2.9792,2.9792,2.9792,2.9792,2.9792,2.9666,2.9415,2.885,2.8285,2.7733,2.718,2.6753,2.6533,2.6533,2.6533,2.6533,2.6533,2.7095,2.767,2.7351,2.7484,2.7604,2.7351,2.6905,2.6533,2.6533,2.6533,2.599,2.4262,2.4406,2.4265,2.2566,2.2763,2.3078,2.3078,2.3078,2.3078,2.3078,2.3989,2.4951,2.5673,2.6443,2.7137,2.7845,2.881,2.9496,2.9673,3.1295,3.2091,3.1655,3.2913,3.3395,3.3009,3.3534,3.3807,3.3807,3.3807,3.3807,3.3788,3.3522,3.339,2.1292,2.2623,2.3954,2.487,2.5498,2.6,2.6445,2.6302,2.6101,2.5912,2.5357,2.4501,2.3089,2.2388,2.1636,2.0637,2.1088,2.1441,2.0928,2.1787,2.2148,2.1152,2.1289,2.1357,0.0,0.0,0.0,2.2246,2.2432,2.2695,2.3115,2.3135,2.4135,2.64,2.6483,2.7557,2.9792,2.9792,2.9792,2.9792,2.9792,2.9792,2.9792,2.9792,2.9792,2.9792,2.9792,2.9792,2.9792,2.9792,2.9792,2.9792,2.9792,2.9792,2.9792,2.9792,2.9792,2.9704,2.9126,2.8561,2.8009,2.7457,2.6917,2.6533,2.6533,2.6533,2.6589,2.685,2.755,2.8182,2.8182,2.8182,2.8117,2.7802,2.7095,2.6533,2.6533,2.6533,2.5971,2.4102,2.4056,2.3774,2.1975,2.2246,2.2689,2.2689,2.2944,2.3078,2.3078,2.4047,2.4851,2.5342,2.6283,2.7276,2.8174,2.895,2.9585,3.0038,3.1573,3.2282,3.1825,3.2947,3.339,3.2952,3.3361,3.3504,3.3361,3.3504,3.3504,3.3314,3.3075,3.2952,2.2786,2.4029,2.4983,2.5511,2.605,2.6521,2.6496,2.5975,2.541,2.4883,2.423,2.3319,2.16,0.0,2.1286,2.0175,2.0933,2.1571,2.123,2.1973,2.2353,0.0,0.0,0.0,0.0,0.0,0.0,2.1924,0.0,2.2771,2.3202,2.3222,2.4307,2.6472,2.6554,2.7637,2.9792,2.9792,2.9792,2.9792,2.9792,2.9792,2.9792,2.9792,2.9792,2.9792,2.9792,2.9792,2.9792,2.9792,2.9792,2.9792,2.9792,2.9792,2.9792,2.9792,2.9792,2.9716,2.9164,2.8612,2.8059,2.7507,2.6954,2.6559,2.6533,2.6533,2.6658,2.7417,2.8247,2.8939,2.8939,2.8939,2.8748,2.792,2.7095,2.6533,2.6533,2.6452,2.599,2.4372,2.3665,2.2854,2.1419,2.1614,2.1877,2.1939,2.2628,2.3138,2.3138,2.4381,2.5342,2.5398,2.6707,2.8027,2.9271,2.9361,2.9892,3.1095,3.1986,3.2282,3.1789,3.2681,3.2952,3.2484,3.2921,3.2952,3.2484,3.2952,3.2952,3.2484,3.2484,3.2451,2.4042,2.4883,2.5536,2.6101,2.642,2.6352,2.5912,2.5319,2.4716,2.4166,2.2786,2.1626,2.1271,0.0,0.0,1.9991,2.0346,0.0,2.1143,2.1973,0.0,2.1934,0.0,2.2227,2.1914,2.2168,0.0,0.0,2.3254,2.3907,2.4351,2.5136,2.6295,2.7683,2.7683,2.8359,2.9792,2.9792,2.9792,2.9792,2.9792,2.9792,2.9792,2.9792,2.9792,2.9792,2.9792,2.9792,2.9792,2.9792,2.9792,2.9792,2.9792,2.9792,2.9792,2.9792,2.9792,2.9779,2.9616,2.9202,2.8624,2.8072,2.7519,2.6992,2.6647,2.6533,2.6521,2.6782,2.7417,2.8051,2.8051,2.8051,2.7986,2.7736,2.7095,2.6533,2.6533,2.5873,2.4871,2.3041,2.1419,2.0468,2.0727,2.1383,2.2113,2.2664,2.3433,2.3767,2.3198,2.4002,2.4794,2.5342,2.6229,2.7312,2.8638,2.9134,2.9717,3.0477,3.1439,3.1806,3.1389,3.2213,3.2451,3.1986,3.2433,3.2616,3.2484,3.2616,3.2616,3.2484,3.2127,3.1986,2.4921,2.5561,2.605,2.6445,2.6264,2.5937,2.5385,2.4316,2.3281,2.2437,2.0932,0.0,1.9227,1.8805,0.0,0.0,0.0,0.0,2.1113,2.1973,2.249,0.0,2.2646,0.0,2.2461,2.2646,2.2945,0.0,2.4084,2.4514,2.4777,2.588,2.6964,2.8096,2.8096,2.8688,2.9792,2.9792,2.9792,2.9792,2.9792,2.9792,2.9792,2.9792,2.9792,2.9792,0.0,2.9792,2.9792,2.9792,2.9792,2.9792,2.9792,2.9792,2.9792,2.9792,2.9792,2.9754,2.9503,2.9202,2.8837,2.8285,2.7733,2.718,2.6697,2.6533,2.6589,2.6905,2.7351,2.7802,2.8182,2.7986,2.767,2.767,2.7095,2.6533,2.6533,2.5734,2.4331,2.2051,1.9869,1.8574,1.933,2.0171,2.1095,2.2238,2.3513,2.4221,2.4163,2.4781,2.5398,2.5837,2.6549,2.7515,2.8779,2.9225,2.9761,3.0658,3.138,3.164,3.123,3.1842,3.1968,3.1545,3.1968,3.2109,3.1932,3.2109,3.2109,3.1914,3.164,3.1545,2.5573,2.6076,2.6533,2.6533,2.6025,2.5423,2.4745,2.3217,2.1559,2.0286,0.0,1.7656,1.6658,1.7189,1.7722,1.741,0.0,2.0406,2.1006,2.1836,2.2519,2.2998,2.3105,2.3135,2.3135,2.3135,2.3551,2.4702,2.4957,2.5126,2.5199,2.6307,2.7371,2.8267,2.8347,2.8767,2.9792,2.9792,2.9792,2.9792,2.9792,2.9792,2.9792,2.9792,2.9792,2.9792,0.0,0.0,2.9792,2.9792,2.9792,2.9792,2.9792,2.9792,2.9779,2.9704,2.9679,2.9591,2.9013,2.8825,2.8737,2.8185,2.767,2.718,2.6697,2.6533,2.6658,2.7351,2.7537,2.7736,2.8492,2.8117,2.7537,2.7537,2.704,2.6533,2.6533,2.5472,2.3779,2.0889,1.8585,1.7284,1.7714,1.8583,1.9749,2.1451,2.3238,2.4738,2.5453,2.6122,2.651,2.651,2.7152,2.8091,2.918,2.9361,2.9892,3.1015,3.149,3.1565,3.123,3.1545,3.1582,3.119,3.1528,3.1545,3.119,3.1528,3.1528,3.119,3.119,3.1151,2.6151,2.6445,2.6533,2.6533,2.6025,2.5209,2.3766,2.2204,0.0,0.0,1.7419,1.627,1.6193,1.6158,1.6394,1.7257,0.0,0.0,0.0,0.0,2.1748,0.0,0.0,0.0,0.0,0.0,0.0,0.0,0.0,2.6625,2.751,2.8609,2.9287,2.9534,2.9534,2.9624,2.9792,2.9792,2.9792,2.9792,2.9792,2.9792,2.9792,2.9792,2.9792,2.9792,2.9792,0.0,2.9792,2.9792,2.9792,2.9792,2.9792,2.9792,2.9729,2.9252,2.9076,2.9001,2.8448,2.8247,2.816,2.7607,2.7356,2.718,2.6697,2.6533,2.6521,2.6658,2.6714,2.6714,2.6905,2.685,2.6714,2.6714,2.6589,2.6533,2.6533,2.4453,2.1699,1.8433,1.7238,1.6718,1.6862,1.8131,1.9792,2.1451,2.3683,2.5453,2.6229,2.6404,2.651,2.651,2.7152,2.7894,2.8606,2.9088,2.9717,3.0435,3.0982,3.1252,3.119,3.1252,3.1252,3.119,3.1252,3.1252,3.119,3.1252,3.1252,3.119,3.119,3.0918,2.5937,2.6226,2.6533,2.6533,2.5611,2.4406,2.3025,0.0,0.0,0.0,1.6045,1.509,1.4631,1.483,0.0,0.0,0.0,0.0,0.0,0.0,0.0,0.0,0.0,0.0,0.0,0.0,0.0,0.0,0.0,2.6964,2.8004,2.9197,2.9792,2.9792,2.9792,2.9792,2.9792,2.9792,2.9792,2.9792,2.9792,2.9792,2.9792,2.9792,2.9792,2.9792,2.9792,0.0,2.9792,2.9792,2.9792,2.9792,2.9792,2.9616,2.9315,2.9038,2.875,2.8423,2.7871,2.767,2.7595,2.703,2.7055,2.718,2.6697,2.6533,2.6533,2.6533,2.6533,2.6533,2.6533,2.6533,2.6533,2.6533,2.6094,2.5508,2.4788,2.2924,2.0656,1.7747,1.6493,1.586,1.586,1.689,1.8487,2.066,2.278,2.4714,2.6283,2.651,2.6669,2.7034,2.7408,2.7845,2.8463,2.8795,2.9316,3.0251,3.0559,3.0878,3.119,3.119,3.119,3.119,3.119,3.119,3.119,3.119,3.119,3.119,3.0878,3.0576,2.5561,2.6013,2.6496,2.637,2.5121,2.364,2.2272,2.0073,0.0,0.0,1.4867,1.3991,1.3205,0.0,1.4307,0.0,1.5664,0.0,0.0,0.0,0.0,0.0,0.0,0.0,0.0,0.0,0.0,0.0,0.0,0.0,2.8426,2.9275,2.9792,2.9792,2.9792,2.9792,2.9792,2.9792,2.9792,2.9792,2.9792,2.9792,2.9792,2.9792,2.9792,2.9792,2.9792,0.0,0.0,2.9792,2.9792,2.9779,2.9654,2.9327,2.89,2.8662,2.8298,2.7846,2.7293,2.7105,2.703,2.6672,2.6753,2.703,2.6659,2.6533,2.6533,2.6533,2.6314,2.6176,2.6176,2.6013,2.5873,2.5873,2.5344,2.4402,2.2823,2.1338,1.9657,1.726,1.556,1.4577,1.4577,1.5213,1.6633,1.9093,2.1284,2.341,2.5508,2.6215,2.6721,2.7306,2.7524,2.781,2.8286,2.8431,2.8966,3.0038,3.0061,3.041,3.119,3.1055,3.1038,3.119,3.119,3.119,3.119,3.119,3.119,3.119,3.0559,3.0208,2.546,2.6013,2.6395,2.5799,2.4833,2.3439,2.1305,0.0,1.7146,1.5188,1.3829,1.2979,1.29,1.3111,1.3412,0.0,0.0,1.6006,0.0,0.0,0.0,0.0,0.0,0.0,0.0,0.0,0.0,0.0,0.0,0.0,2.9624,2.9714,2.9792,2.9792,2.9792,2.9792,2.9792,2.9792,2.9792,2.9792,2.9792,2.9792,2.9792,2.9792,2.9792,2.9792,2.9792,0.0,0.0,2.9792,2.9792,2.9741,2.9214,2.8976,2.88,2.7808,2.7406,2.7281,2.6798,2.6596,2.6596,2.6546,2.6559,2.6596,2.6546,2.6533,2.6533,2.6533,2.5873,2.5158,2.5158,2.448,2.3818,2.3818,2.4108,2.3757,2.1469,1.9897,1.8228,1.584,1.378,1.2444,1.2444,1.3172,1.4449,1.6469,1.9597,2.208,2.32,2.5162,2.651,2.6616,2.7203,2.7625,2.7675,2.8189,2.8779,2.9451,2.9358,2.9862,3.1173,3.0565,3.0531,3.119,3.119,3.119,3.119,3.119,3.119,3.119,3.0559,3.0038,2.3791,2.4718,2.5423,2.5184,2.4054,2.2585,2.1071,0.0,1.6532,1.4654,1.3429,1.2531,1.2141,1.2328,1.2733,0.0,1.3877,1.4717,1.6016,0.0,0.0,0.0,0.0,0.0,0.0,0.0,0.0,0.0,0.0,0.0,2.9792,2.9792,2.9792,2.9792,2.9106,2.8767,2.8767,2.8119,2.8119,2.8767,2.8767,2.9118,2.9792,2.9792,2.9792,2.9792,2.9792,0.0,0.0,2.9792,2.9591,2.9252,2.9013,2.8524,2.7883,2.7444,2.7067,2.6753,2.6596,2.6533,2.6533,2.6533,2.6533,2.6533,2.6533,2.6533,2.6533,2.6533,2.5804,2.5004,2.5004,2.4264,2.3447,2.3228,2.2849,2.1974,1.9998,1.8592,1.708,1.4729,1.365,1.2691,1.1582,1.259,1.4055,1.5297,1.8131,2.082,2.2735,2.4657,2.6014,2.6457,2.7152,2.7625,2.7625,2.781,2.8182,2.8694,2.8667,2.9001,2.9816,3.0023,3.0243,3.0531,3.097,3.119,3.119,3.119,3.119,3.119,3.0208,2.9629,2.2414,2.353,2.4467,2.4292,2.3188,2.1744,0.0,1.8117,1.5788,1.4298,1.3017,1.2045,1.1582,1.1794,1.2178,0.0,1.3252,1.4053,1.5078,1.6211,0.0,0.0,0.0,0.0,0.0,0.0,0.0,0.0,0.0,0.0,0.0,2.9287,2.9456,2.9792,2.8688,2.8096,2.8096,2.7046,2.7046,2.8096,2.8096,2.8688,2.9792,2.9792,2.9792,2.9779,0.0,0.0,0.0,2.9365,2.9051,2.8662,2.8511,2.7971,2.7268,2.7105,2.6791,2.6533,2.6533,2.6533,2.6533,2.6533,2.6314,2.6025,2.6025,2.6233,2.6465,2.6164,2.5146,2.4047,2.3756,2.3267,2.263,2.1773,2.1114,2.0073,1.8209,1.6956,1.5694,1.4,1.3004,1.1964,1.0559,1.1527,1.2656,1.3543,1.6342,1.9295,2.1848,2.3832,2.5453,2.6611,2.7505,2.803,2.7894,2.8042,2.8248,2.8555,2.8356,2.8445,2.8991,2.9499,2.9888,3.0108,3.0818,3.119,3.119,3.119,3.119,3.119,2.9935,2.9225,2.1584,2.2896,2.3717,2.3228,2.2322,2.1066,1.9422,1.6995,1.4898,1.4144,1.2507,1.1263,1.1459,1.1576,1.1763,1.2158,1.325,1.4277,1.4727,1.6289,0.0,0.0,0.0,0.0,0.0,0.0,0.0,0.0,0.0,0.0,0.0,2.8096,2.8597,2.9792,2.8688,2.8096,2.8096,2.7046,2.7046,2.8096,2.8096,2.8688,2.9792,2.9792,2.9792,0.0,0.0,0.0,0.0,2.8348,2.8122,2.8059,2.7507,2.7293,2.7218,2.6666,2.6533,2.6533,2.6533,2.6533,2.6533,2.6533,2.5804,2.5016,2.5016,2.5734,2.6314,2.53,2.3588,2.1811,2.0867,2.1049,2.0915,1.8965,1.8661,1.8225,1.6259,1.4694,1.3745,1.3673,1.1372,0.9372,0.9296,0.9296,0.9653,1.0576,1.4009,1.7398,2.0001,2.2548,2.4984,2.7143,2.8389,2.8928,2.8543,2.9042,2.9323,2.9198,2.8507,2.8362,2.8991,2.9028,2.9347,3.0091,3.0818,3.119,3.119,3.119,3.119,3.119,2.9935,2.8764,1.8927,2.0104,2.0828,2.0777,2.0298,1.9421,1.8084,1.6397,1.4737,1.3486,1.2146,1.1147,1.0987,1.1314,1.1645,1.1748,1.2861,0.0,0.0,0.0,0.0,0.0,0.0,0.0,0.0,0.0,0.0,0.0,0.0,0.0,0.0,2.7683,2.8597,2.9792,2.7959,2.7046,2.7046,2.5136,2.4713,2.5859,2.6625,2.7614,2.8676,2.9443,0.0,0.0,0.0,0.0,0.0,2.8787,2.875,2.843,2.8851,2.8799,2.8423,2.8249,2.7868,2.7284,2.7284,2.6973,2.6383,2.5734,2.5229,2.4862,2.4181,2.4181,2.4253,2.322,2.2478,2.1811,2.0867,1.9985,1.9193,1.833,1.7376,1.6318,1.4727,1.403,1.3528,1.2879,1.1996,1.0875,0.9523,0.9895,1.0398,1.065,1.3336,1.656,1.9863,2.2862,2.542,2.7229,2.89,2.9821,2.9556,2.9971,2.9984,2.9309,2.9568,2.9383,2.8596,2.961,2.9958,2.9503,3.0194,3.0559,3.0559,3.0559,3.0559,3.0576,3.0208,2.9361,1.6468,1.7688,1.8449,1.866,1.8348,1.7747,1.6803,1.5452,1.4129,1.3116,1.1959,1.1019,1.0753,1.1173,1.1606,1.1606,1.2793,0.0,0.0,0.0,0.0,0.0,0.0,0.0,0.0,0.0,0.0,0.0,0.0,0.0,0.0,2.6363,2.715,2.824,2.7117,2.6382,2.6203,2.3975,2.3554,2.4841,2.5588,2.6713,2.8147,2.8822,0.0,0.0,0.0,0.0,0.0,2.8621,2.8716,2.8758,2.9296,2.927,2.9002,2.9002,2.8427,2.767,2.7298,2.665,2.5804,2.4779,2.4192,2.3672,2.2713,2.2627,2.2776,2.2178,2.1735,2.1211,2.0226,1.9102,1.7997,1.6994,1.5865,1.4637,1.3426,1.3171,1.3025,1.2445,1.1996,1.1242,0.9599,0.982,1.0104,0.9702,1.2065,1.5169,1.8687,2.18,2.4696,2.747,2.8976,2.9903,2.9985,3.0269,3.0102,2.9248,2.9678,2.9281,2.7878,2.9326,2.9732,2.8902,2.9561,2.9935,2.9935,3.0208,3.0293,3.0293,3.0293,2.9673,0.0,1.5631,1.6447,1.6815,1.6578,1.6143,1.5595,1.435,0.0,1.2854,1.185,1.0954,1.0756,1.1203,1.1626,1.1685,0.0,0.0,0.0,0.0,0.0,0.0,0.0,0.0,0.0,0.0,0.0,0.0,0.0,0.0,0.0,2.4294,2.4637,2.5596,2.6043,2.6147,2.5768,2.3587,2.3299,2.4915,2.4915,2.593,2.7865,2.795,0.0,0.0,0.0,0.0,0.0,2.7934,2.8298,2.9129,2.9192,2.9192,2.9192,2.9129,2.8492,2.7564,2.6549,2.5624,2.4707,2.3745,2.2702,2.1735,2.0857,2.1231,2.1876,2.1845,2.1247,2.0275,1.9201,1.8308,1.7274,1.5219,1.4201,1.3382,1.2519,1.2305,1.2305,1.2305,1.1545,1.0565,0.9523,0.9296,0.8993,0.7936,1.0157,1.325,1.6751,1.9577,2.3051,2.7643,2.8682,2.9296,2.9829,2.9989,2.9719,2.8943,2.8907,2.8313,2.6946,2.819,2.8663,2.8084,2.8841,2.9252,2.9316,2.9978,3.0293,3.0293,3.0293,2.9673,1.11,0.0,1.3976,1.4653,1.4911,1.4851,0.0,1.3624,1.3012,1.202,0.0,1.1009,1.1025,1.1328,1.1832,1.2508,0.0,0.0,0.0,0.0,0.0,0.0,0.0,0.0,0.0,0.0,0.0,0.0,0.0,0.0,0.0,2.3258,2.3822,2.4052,2.417,2.4491,2.5172,2.3811,2.3286,2.3722,2.3812,2.4513,2.5777,2.6614,0.0,0.0,0.0,0.0,2.7921,2.8481,2.9192,3.0072,3.0644,3.0896,3.0837,3.0208,2.8983,2.7328,2.5573,2.4496,2.3672,2.2702,2.1745,2.0857,2.0634,2.0789,2.0864,2.0516,2.021,1.9763,1.8515,1.723,1.5971,1.4795,1.3525,1.2592,1.2378,1.2305,1.2305,1.2305,1.2077,1.1397,0.9599,0.9296,0.8993,0.7936,0.9025,1.1484,1.5783,1.8554,2.1743,2.6139,2.7756,2.8568,2.8744,2.9388,2.9234,2.7946,2.802,2.7668,2.6784,2.6325,2.6061,2.6094,2.6801,2.7703,2.8685,2.9761,3.0293,3.0293,3.0293,2.9892,0.948,1.088,1.2235,1.2995,1.3402,1.3493,1.3081,0.0,0.0,0.0,0.0,1.1163,1.1115,1.1689,0.0,0.0,0.0,0.0,0.0,0.0,0.0,0.0,0.0,0.0,0.0,0.0,0.0,0.0,0.0,0.0,0.0,2.223,2.2422,2.2422,2.2662,2.32,2.4039,2.2881,2.2459,2.2694,2.2772,2.3547,2.501,2.5604,2.6274,0.0,0.0,0.0,2.7736,2.8247,2.8939,2.9766,3.0208,3.0329,3.0254,2.9358,2.7798,2.5877,2.3931,2.2475,2.1314,2.0797,2.0605,2.0527,2.0322,2.0273,2.0215,1.998,1.9775,1.9264,1.7587,1.6493,1.5471,1.4013,1.2961,1.2305,1.2305,1.2305,1.2305,1.2305,1.2305,1.1626,0.9674,0.9296,0.8765,0.7326,0.8075,1.009,1.373,1.692,2.0381,2.4532,2.6185,2.7048,2.7112,2.7031,2.684,2.6547,2.6046,2.5419,2.4761,2.3833,2.3533,2.3928,2.5237,2.6592,2.8015,2.9284,2.9908,2.9892,3.0166,2.9805,0.8684,0.9801,1.0847,1.1839,1.2265,1.2434,1.2479,0.0,0.0,0.0,0.0,0.0,0.0,0.0,0.0,0.0,0.0,0.0,0.0,0.0,0.0,0.0,0.0,0.0,0.0,0.0,0.0,0.0,0.0,0.0,0.0,2.1338,2.1133,2.1133,2.1578,2.2008,2.2558,2.1728,2.1537,2.2027,2.1886,2.2776,2.4564,2.4564,2.5146,0.0,0.0,0.0,2.767,2.767,2.8247,2.9002,2.9002,2.8925,2.863,2.7682,2.5933,2.3804,2.1671,1.9841,1.861,1.8777,1.9568,2.0303,1.9932,1.9775,1.9642,1.9568,1.9232,1.8569,1.6529,1.5766,1.5022,1.3195,1.2485,1.2305,1.2305,1.2305,1.2305,1.2305,1.2305,1.1626,0.9674,0.9296,0.8618,0.6567,0.7273,0.8908,1.1503,1.5043,1.8839,2.2719,2.4459,2.535,2.5297,2.425,2.3841,2.45,2.3418,2.2309,2.1362,2.0937,2.1054,2.175,2.3819,2.5664,2.7274,2.8623,2.9271,2.9271,2.9805,2.9496,0.8283,0.8989,0.9811,1.1561,1.2335,1.2692,1.2858,0.0,0.0,0.0,0.0,0.0,0.0,0.0,0.0,0.0,0.0,0.0,0.0,0.0,0.0,0.0,0.0,0.0,0.0,0.0,0.0,0.0,0.0,0.0,0.0,2.0703,2.0664,2.0664,2.0741,2.0896,2.0966,2.1553,2.1959,2.1952,2.1155,2.1375,2.2478,2.2478,2.3441,0.0,0.0,2.6183,2.767,2.767,2.8247,2.9002,2.9002,2.8474,2.7656,2.678,2.4515,2.1381,1.8276,1.697,1.6784,1.7721,1.8723,1.9473,1.9404,1.9121,1.8614,1.7805,1.7542,1.7189,1.5698,1.4712,1.374,1.2661,1.2338,1.2305,1.2305,1.2305,1.2305,1.2305,1.2305,1.1626,0.9674,0.9296,0.8618,0.6567,0.6493,0.7617,1.0553,1.3401,1.6619,2.0511,2.3089,2.4404,2.4003,2.3291,2.2191,2.0646,2.0357,1.9117,1.649,1.7664,1.8781,1.9668,2.224,2.4586,2.664,2.7997,2.8654,2.8654,2.8732,2.8701,0.797,0.8565,0.9346,1.1277,1.1952,1.2232,1.253,0.0,0.0,0.0,0.0,0.0,0.0,0.0,0.0,0.0,0.0,0.0,0.0,0.0,0.0,0.0,0.0,0.0,0.0,0.0,0.0,0.0,0.0,0.0,0.0,0.0,2.0566,2.0566,2.0566,2.0867,2.1375,2.1811,2.1735,2.1221,2.0789,2.1078,2.2027,2.2027,2.3073,2.5004,0.0,2.5779,2.704,2.704,2.7284,2.767,2.767,2.7005,2.579,2.3059,2.0553,1.8202,1.5573,1.5319,1.6295,1.6841,1.8064,1.9248,1.9014,1.8433,1.7716,1.7051,1.6847,1.6519,1.4848,1.4027,1.3455,1.2519,1.2305,1.2305,1.2305,1.2305,1.2305,1.2305,1.2305,1.1848,1.034,0.9669,0.8765,0.7326,0.6572,0.7175,1.0014,1.3781,1.7163,1.9727,2.2352,2.3709,2.3195,2.2526,2.113,1.8732,1.7804,1.6525,1.4758,1.5908,1.7236,1.8603,2.1547,2.3987,2.5906,2.765,2.8125,2.7414,2.8158,2.811,0.7518,0.8181,0.9009,1.0839,0.0,1.184,1.2531,0.0,0.0,0.0,0.0,0.0,0.0,0.0,0.0,0.0,0.0,0.0,0.0,0.0,0.0,0.0,0.0,0.0,0.0,0.0,0.0,0.0,0.0,0.0,0.0,0.0,2.0566,2.0566,2.069,2.107,2.1795,2.2019,2.1858,2.1308,2.1011,2.1135,2.1628,2.141,2.2232,2.394,2.4146,2.4969,2.6164,2.6383,2.6383,2.6151,2.6015,2.5175,2.3541,1.9293,1.7052,1.5786,1.3698,1.4271,1.5972,1.5972,1.7331,1.8926,1.8293,1.7614,1.6902,1.6158,1.593,1.5579,1.4099,1.3528,1.3171,1.2445,1.2305,1.2305,1.2305,1.2305,1.2305,1.2305,1.2305,1.1996,1.0932,0.997,0.8978,0.7871,0.6708,0.697,0.9696,1.3818,1.7277,1.9272,2.164,2.2839,2.2309,2.1314,1.9813,1.7731,1.6012,1.4808,1.4204,1.5111,1.6436,1.8067,2.1304,2.3743,2.545,2.7157,2.7515,2.651,2.7565,2.7464,0.6786,0.7569,0.8505,0.9935,1.0896,0.0,1.3448,1.3547,0.0,0.0,0.0,0.0,0.0,0.0,0.0,0.0,0.0,0.0,0.0,0.0,0.0,0.0,0.0,0.0,0.0,0.0,0.0,0.0,0.0,0.0,0.0,0.0,0.0,2.0566,2.0968,2.1177,2.1251,2.2186,2.285,2.3294,2.2328,2.14,2.0507,1.9631,1.9778,2.0804,2.1741,2.3267,2.5158,2.6094,2.5943,2.5028,2.4642,2.311,2.0705,1.7279,1.5896,1.5536,1.3188,1.3659,1.5237,1.5237,1.6526,1.7949,1.7047,1.6682,1.6254,1.4386,1.3882,1.3882,1.3745,1.3025,1.2372,1.2298,1.2305,1.2305,1.2305,1.2305,1.2305,1.2305,1.2305,1.1996,1.0932,0.997,0.8925,0.7686,0.6622,0.6911,0.9528,1.2219,1.5152,1.8495,2.0585,2.1544,2.1,1.9073,1.7829,1.7633,1.5525,1.4264,1.4213,1.5362,1.6655,1.8171,2.1506,2.3974,2.5472,2.626,2.6602,2.651,2.6616,2.6602,0.6788,0.7425,0.8284,1.0125,0.0,0.0,0.0,0.0,0.0,0.0,0.0,0.0,0.0,0.0,0.0,0.0,0.0,0.0,0.0,0.0,0.0,0.0,0.0,0.0,0.0,0.0,0.0,0.0,0.0,0.0,0.0,0.0,0.0,1.9766,1.9348,1.9965,2.1686,2.2037,2.2695,2.3456,2.1649,2.0082,1.8797,1.7799,1.823,1.9757,2.0106,2.1442,2.3317,2.3663,2.3594,2.3155,2.2405,2.1413,2.0004,1.6964,1.5624,1.5129,1.306,1.3593,1.5234,1.5234,1.6079,1.707,1.6706,1.579,1.4657,1.3882,1.331,1.2806,1.2806,1.2592,1.2305,1.2305,1.2305,1.2305,1.2305,1.2305,1.2305,1.2305,1.2305,1.2091,1.1616,1.0188,0.8935,0.8284,0.6805,0.6698,0.9254,1.1509,1.4055,1.6935,1.9153,2.054,2.0772,1.927,1.8112,1.7633,1.5467,1.4451,1.4932,1.5633,1.6909,1.8923,2.1001,2.2789,2.4334,2.461,2.4515,2.4092,2.4567,2.4515,0.6543,0.7201,0.8073,0.0,0.0,0.0,0.0,0.0,0.0,0.0,0.0,0.0,0.0,0.0,0.0,0.0,0.0,0.0,0.0,0.0,0.0,0.0,0.0,0.0,0.0,0.0,0.0,0.0,0.0,0.0,0.0,0.0,0.0,0.0,1.8531,1.928,2.1732,2.1812,2.2082,2.2542,2.0246,1.873,1.7805,1.6523,1.6648,1.7944,1.8521,1.9758,2.1311,2.1967,2.1968,2.1413,2.0464,1.9624,1.8715,1.6447,1.5225,1.4522,1.2879,1.3593,1.5163,1.4807,1.5579,1.6498,1.586,1.4728,1.3673,1.331,1.2806,1.2305,1.2305,1.2305,1.2305,1.2305,1.2305,1.2305,1.2305,1.2305,1.2305,1.2305,1.2225,1.2104,1.1904,1.0271,0.8847,0.8553,0.6892,0.6507,0.9002,1.0767,1.2965,1.6028,1.836,1.9825,2.0118,1.902,1.8124,1.7633,1.5708,1.4923,1.569,1.6212,1.747,1.9468,2.0778,2.2075,2.3299,2.3128,2.2857,2.2631,2.2909,2.2737,0.5874,0.6768,0.7772,0.0,0.0,0.0,0.0,0.0,0.0,0.0,0.0,0.0,0.0,0.0,0.0,0.0,0.0,0.0,0.0,0.0,0.0,0.0,0.0,0.0,0.0,0.0,0.0,0.0,0.0,0.0,0.0,0.0,0.0,0.0,1.8779,1.9349,2.1163,2.1307,2.1138,2.059,1.8331,1.7451,1.7613,1.5663,1.4787,1.4934,1.6813,1.8274,1.939,2.137,2.1347,1.9981,1.8964,1.7783,1.6498,1.5517,1.4522,1.36,1.2666,1.3593,1.5021,1.4027,1.5013,1.621,1.4307,1.3673,1.3455,1.2592,1.2305,1.2305,1.2305,1.2305,1.2305,1.2305,1.2305,1.2305,1.2305,1.2298,1.2298,1.2298,1.2064,1.1864,1.1864,1.0049,0.8543,0.8383,0.6805,0.6463,0.8896,0.9875,1.1912,1.594,1.8342,1.9414,1.8768,1.8004,1.7578,1.7578,1.6244,1.5748,1.6436,1.7191,1.8251,1.9659,2.1068,2.2035,2.2636,2.1876,2.1851,2.2551,2.1783,2.1496,0.6016,0.6761,0.0,0.0,0.0,0.0,0.0,0.0,0.0,0.0,0.0,0.0,0.0,0.0,0.0,0.0,0.0,0.0,0.0,0.0,0.0,0.0,0.0,0.0,0.0,0.0,0.0,0.0,0.0,0.0,0.0,0.0,0.0,0.0,1.6942,1.7329,1.982,1.9897,1.9822,1.9694,1.7619,1.6422,1.5876,1.394,1.3369,1.4029,1.466,1.5867,1.7516,1.8744,1.8978,1.8516,1.7593,1.6954,1.6419,1.4736,1.3954,1.36,1.2666,1.3091,1.4099,1.381,1.4099,1.445,1.3882,1.3244,1.2666,1.2378,1.2305,1.2305,1.2305,1.2305,1.2305,1.2305,1.2305,1.2305,1.2305,1.2144,1.1997,1.1997,1.1757,1.1283,1.0461,0.9326,0.8175,0.7361,0.6738,0.7297,0.9787,1.1334,1.3091,1.5399,1.6746,1.7775,1.8608,1.8004,1.7578,1.7578,1.6698,1.6036,1.5748,1.6912,1.7752,1.817,1.9129,1.9688,1.9822,1.9078,1.8869,1.9088,1.8869,1.9034,0.607,0.0,0.0,0.0,0.0,0.0,0.0,0.0,0.0,0.0,0.0,0.0,0.0,0.0,0.0,0.0,0.0,0.0,0.0,0.0,0.0,0.0,0.0,0.0,0.0,0.0,0.0,0.0,0.0,0.0,0.0,0.0,0.0,0.0,1.6009,1.654,1.9299,1.8977,1.8767,1.8716,1.684,1.5677,1.5163,1.3164,1.2592,1.3171,1.3954,1.5155,1.6636,1.7579,1.7794,1.7354,1.6853,1.614,1.5296,1.4099,1.3455,1.3098,1.2519,1.2879,1.3673,1.3244,1.3382,1.36,1.3237,1.2732,1.2305,1.2305,1.2218,1.2131,1.2131,1.2044,1.2011,1.2245,1.2218,1.2131,1.2131,1.1897,1.169,1.169,1.1175,1.0516,0.9813,0.862,0.7513,0.6798,0.6981,0.8006,1.0229,1.1935,1.3476,1.4749,1.5833,1.6978,1.8167,1.7578,1.7302,1.7578,1.6641,1.5864,1.541,1.68,1.7709,1.7989,1.8466,1.8691,1.8631,1.7654,1.7302,1.7578,1.7578,1.7993,0.6078,0.0,0.0,0.0,0.0,0.0,0.0,0.0,0.0,0.0,0.0,0.0,0.0,0.0,0.0,0.0,0.0,0.0,0.0,0.0,0.0,0.0,0.0,0.0,0.0,0.0,0.0,0.0,0.0,0.0,0.0,0.0,0.0,1.6567,1.5658,1.641,1.9023,1.825,1.7813,0.0,1.5904,1.5092,1.5163,1.3302,1.2445,1.2659,1.4522,1.579,1.6636,1.7579,1.7501,1.6706,1.6567,1.5367,1.3818,1.3673,1.3025,1.2305,1.2305,1.2879,1.3455,1.2592,1.2879,1.3382,1.2592,1.2285,1.2265,1.2265,1.2051,1.183,1.183,1.163,1.1563,1.2091,1.2017,1.183,1.183,1.1597,1.1383,1.1383,1.0539,0.9753,0.9687,0.8159,0.6915,0.6915,0.7632,0.8726,1.0425,1.1997,1.3312,1.4085,1.5497,1.6708,1.7523,1.6866,1.6698,1.7457,1.613,1.5294,1.5294,1.6687,1.7852,1.8501,1.8501,1.8501,1.8501,1.709,1.6754,1.7523,1.7567,1.8012,0.0,0.6805,0.0,0.0,0.0,0.0,0.0,0.0,0.0,0.0,0.0,0.0,0.0,0.0,0.0,0.0,0.0,0.0,0.0,0.0,0.0,0.0,0.0,0.0,0.0,0.0,0.0,0.0,0.0,0.0,0.0,0.0,0.0,1.6567,1.5658,1.586,1.7179,1.6982,1.6489,0.0,1.4585,1.4458,1.5163,1.3954,1.381,1.4665,1.579,1.6419,1.6636,1.7579,1.7862,1.7579,1.6079,1.5234,1.4665,1.3164,1.2445,1.2305,1.2305,1.2445,1.2592,1.2372,1.2445,1.2592,1.2372,1.2144,1.1964,1.1964,1.175,1.1523,1.1523,1.147,1.1456,1.1583,1.1563,1.1523,1.1523,1.1296,1.1089,1.1089,1.0718,1.02,0.9485,0.9045,0.8748,0.8748,0.8877,0.964,1.1322,1.2381,1.3312,1.4085,1.504,1.6187,1.7468,1.6415,1.5948,1.6613,1.5284,1.4451,1.4451,1.5891,1.681,1.6978,1.6978,1.6978,1.6978,1.6083,1.6036,1.6765,1.7291,1.8235,0.0,0.0,0.0,0.0,0.0,0.0,0.0,0.0,0.0,0.0,0.0,0.0,0.0,0.0,0.0,0.0,0.0,0.0,0.0,0.0,0.0,0.0,0.0,0.0,0.0,0.0,0.0,0.0,0.0,0.0,0.0,1.3641,1.3506,1.4969,1.4396,1.4596,1.5653,1.5661,1.5261,1.4458,1.3954,1.4243,1.5163,1.4665,1.4665,1.5234,1.621,1.6636,1.6636,1.7579,1.7725,1.7217,1.5728,1.4879,1.4291,1.2718,1.2098,1.2078,1.1931,1.1884,1.1884,1.1884,1.1884,1.1884,1.1884,1.1777,1.1657,1.1657,1.1443,1.1223,1.1223,1.1116,1.1009,1.1009,1.1122,1.1223,1.1223,1.0989,1.0788,1.0788,1.0341,0.9849,0.9402,0.8941,0.8678,0.8678,0.9011,1.0021,1.2143,1.2757,1.3485,1.4628,1.5177,1.5864,1.6978,1.5671,1.4934,1.5215,1.3859,1.3184,1.3545,1.4693,1.5867,1.6978,1.7357,1.7578,1.7523,1.68,1.6641,1.7034,1.7752,1.8472,0.0,0.0,0.0,0.0,0.0,0.0,0.0,0.0,0.0,0.0,0.0,0.0,0.0,0.0,0.0,0.0,0.0,0.0,0.0,0.0,0.0,0.0,0.0,0.0,0.0,0.0,0.0,0.0,0.0,0.0,1.3447,1.2417,1.2277,1.3177,1.2991,1.3367,1.4383,1.4391,1.3986,1.3294,1.3509,1.4135,1.5183,1.5113,1.5258,1.5728,1.6426,1.6752,1.6812,1.7465,1.7214,1.636,1.5531,1.4622,1.3678,1.2643,1.2143,1.1968,1.1716,1.156,1.1423,1.1423,1.1423,1.1423,1.1423,1.139,1.1349,1.1349,1.1142,1.0915,1.0915,1.0742,1.0624,1.0624,1.0742,1.0915,1.0915,1.0728,1.0624,1.0624,1.0047,0.9402,0.9139,0.8613,0.8221,0.8221,0.8812,1.0148,1.2512,1.2765,1.3425,1.4991,1.5167,1.5507,1.6244,1.5021,1.4031,1.3593,1.2255,1.1805,1.2461,1.3314,1.4907,1.7335,1.8112,1.8555,1.8715,1.7961,1.7688,1.7797,1.8543,1.8826,0.0,0.0,0.0,0.0,0.0,0.0,0.0,0.0,0.0,0.0,0.0,0.0,0.0,0.0,0.0,0.0,0.0,0.0,0.0,0.0,0.0,0.0,0.0,0.0,0.0,0.0,0.0,0.0,0.0,0.0,1.4023,1.2419,1.1895,1.2908,1.2938,1.2998,1.3111,1.3111,1.266,1.175,1.2567,1.383,1.5287,1.4695,1.5592,1.7628,1.7407,1.7253,1.729,1.6996,1.6362,1.5613,1.5408,1.4752,1.4022,1.3715,1.3171,1.257,1.2526,1.2037,1.1423,1.1423,1.1423,1.1423,1.1423,1.1249,1.1049,1.1049,1.0842,1.0678,1.0678,1.0651,1.0624,1.0624,1.0651,1.0678,1.0678,1.0651,1.0624,1.0624,1.0498,0.997,0.8415,0.8683,0.9139,0.9139,0.921,0.9958,1.171,1.195,1.2565,1.4204,1.4392,1.466,1.537,1.4709,1.3545,1.2026,1.1119,1.0725,1.085,1.2224,1.4105,1.649,1.7324,1.8058,1.8715,1.7961,1.7961,1.8555,1.9258,1.9556,0.4719,0.0,0.0,0.0,0.0,0.0,0.0,0.0,0.0,0.0,0.0,0.0,0.0,0.0,0.0,0.0,0.0,0.0,0.0,0.0,0.0,0.0,0.0,0.0,0.0,0.0,0.0,0.0,0.0,1.3518,1.3056,1.1423,1.0901,1.1776,1.1206,1.12,1.1843,1.1843,1.1667,1.143,1.1833,1.2699,1.3958,1.3627,1.487,1.722,1.6617,1.6605,1.7002,1.6807,1.6465,1.6128,1.5523,1.5062,1.4646,1.3395,1.2737,1.2328,1.171,1.1262,1.0942,1.0942,1.0942,1.0942,1.0942,1.0855,1.0755,1.0755,1.0719,1.0624,1.0624,1.0624,1.0624,1.0624,1.0624,1.0624,1.0624,1.0624,1.0428,0.9977,0.946,0.8737,0.7502,0.8027,0.842,0.7897,0.8285,0.8982,1.0216,1.0335,1.0767,1.192,1.2493,1.2926,1.3254,1.2562,1.1574,1.0338,0.9053,0.9006,1.0378,1.1463,1.3431,1.6373,1.7235,1.7961,1.8715,1.8394,1.8382,1.8715,1.9008,1.8903,0.0,0.0,0.0,0.0,0.0,0.0,0.0,0.0,0.0,0.0,0.0,0.0,0.0,0.0,0.0,0.0,0.0,0.0,0.0,0.0,0.0,0.0,0.0,0.0,0.0,0.0,0.0,0.0,0.0,1.283,1.1796,1.0392,0.982,1.0214,0.9633,0.9685,1.0549,1.1005,1.1304,1.1531,1.1531,1.199,1.2914,1.2527,1.3558,1.5754,1.5196,1.5378,1.5905,1.5989,1.5951,1.5754,1.5412,1.5214,1.4853,1.3479,1.2877,1.2538,1.1556,1.1052,1.0863,1.0688,1.0624,1.0624,1.0624,1.0624,1.0624,1.0624,1.0624,1.0624,1.0624,1.0624,1.0624,1.0624,1.0624,1.0561,1.0301,1.0301,0.9977,0.8871,0.8285,0.7637,0.6527,0.7111,0.7437,0.6785,0.7242,0.7947,0.8815,0.8873,0.9186,1.0039,1.0677,1.1126,1.1388,1.0649,0.9832,0.8942,0.7548,0.7728,0.9976,1.0602,1.2486,1.5803,1.626,1.7092,1.8436,1.8209,1.8197,1.8436,1.8436,1.8015,0.0,0.0,0.0,0.0,0.0,0.0,0.0,0.0,0.0,0.0,0.0,0.0,0.0,0.0,0.0,0.0,0.0,0.0,0.0,0.0,0.0,0.0,0.0,0.0,0.0,0.0,0.0,0.0,0.0,1.2336,1.0696,0.9786,0.8964,0.8172,0.8882,0.9344,0.9356,1.0982,1.174,1.1762,1.1762,1.2197,1.2944,1.1409,1.1589,1.3205,1.3539,1.3697,1.379,1.4178,1.3907,1.3363,1.4812,1.493,1.4327,1.497,1.4775,1.3992,1.313,1.2389,1.1586,1.087,1.0624,1.0624,1.0624,1.0624,1.0624,1.0624,1.0624,1.0624,1.0624,1.0624,1.0624,1.0624,1.0624,1.0364,0.953,0.9338,0.8877,0.7177,0.7437,0.7442,0.5752,0.6203,0.6785,0.6719,0.6719,0.7111,0.7957,0.8086,0.8393,0.918,0.9301,0.9693,1.0481,0.9762,0.8942,0.8081,0.7177,0.7478,0.9174,0.9301,1.0898,1.4164,1.3571,1.469,1.7688,1.6903,1.6903,1.7688,1.7688,1.7246,0.0,0.0,0.0,0.0,0.0,0.0,0.0,0.0,0.0,0.0,0.0,0.0,0.0,0.0,0.0,0.0,0.0,0.0,0.0,0.0,0.0,0.0,0.0,0.0,0.0,0.0,0.0,0.0,0.0,0.0,1.0551,0.865,0.7762,0.7962,0.7767,0.8156,0.9274,1.0961,1.1531,1.1045,1.1524,1.1655,1.1421,1.087,1.0933,1.149,1.16,1.257,1.3978,1.4148,1.4323,1.4628,1.5167,1.4932,1.4204,1.451,1.3777,1.2626,1.232,1.1717,1.0989,1.0681,1.0624,1.0624,1.0624,1.0624,1.0624,1.0624,1.0624,1.0624,1.0624,1.0624,1.0624,1.0624,1.0174,0.9524,0.8678,0.8484,0.8091,0.6915,0.6531,0.6145,0.5491,0.5686,0.5881,0.5881,0.5881,0.5947,0.6272,0.6338,0.647,0.6724,0.7447,0.7702,0.7284,0.8978,0.9503,0.8116,0.6641,0.614,0.6742,0.8143,1.0027,1.253,1.1563,1.2738,1.6115,1.581,1.6126,1.6866,1.6363,1.6012,0.2756,0.0,0.0,0.0,0.0,0.0,0.0,0.0,0.0,0.0,0.0,0.0,0.0,0.0,0.0,0.0,0.0,0.0,0.0,0.0,0.0,0.0,0.0,0.0,0.0,0.0,0.0,0.0,0.0,0.0,0.9451,0.7588,0.6913,0.7734,0.7291,0.7845,0.9523,1.1037,1.1406,1.0624,1.1406,1.1406,1.0624,1.0624,1.0571,1.0414,1.0414,1.1552,1.3416,1.3666,1.4264,1.4991,1.4991,1.4688,1.4154,1.3906,1.3295,1.2504,1.2012,1.1655,1.1296,1.0807,1.0624,1.0624,1.0624,1.0624,1.0624,1.0624,1.0624,1.0624,1.0624,1.0624,1.0624,1.0624,1.0174,0.9396,0.8221,0.7842,0.7391,0.6465,0.5818,0.5432,0.5428,0.5428,0.5428,0.5428,0.5428,0.5428,0.5428,0.5428,0.5432,0.5376,0.5272,0.4572,0.3166,0.4847,0.5619,0.4721,0.3834,0.3922,0.5262,0.705,0.9019,1.1353,1.0412,1.1049,1.346,1.3717,1.4401,1.5519,1.4725,1.4608,0.0,0.0,0.0,0.0,0.0,0.0,0.0,0.0,0.0,0.0,0.0,0.0,0.0,0.0,0.0,0.0,0.0,0.0,0.0,0.0,0.0,0.0,0.0,0.0,0.0,0.0,0.0,0.0,1.0186,0.9022,0.7349,0.6579,0.652,0.723,0.7558,0.8477,1.004,1.1225,1.1377,1.0598,1.1377,1.1322,1.0598,1.0598,1.0374,1.01,1.01,1.0737,1.1866,1.2671,1.3459,1.4118,1.4177,1.4109,1.3999,1.3278,1.3459,1.3888,1.2304,1.2312,1.2687,1.1115,1.0618,1.0611,1.0618,1.0618,1.0611,1.0611,1.0604,1.0598,1.0598,1.0598,1.0598,1.0534,1.0534,1.0009,0.8329,0.7461,0.67,0.5627,0.5372,0.5376,0.5428,0.5428,0.5428,0.5428,0.5362,0.5362,0.5428,0.5359,0.5359,0.5299,0.2902,0.0456,-0.1753,-0.2884,-0.3114,-0.2298,-0.1494,0.0757,0.4779,0.6026,0.7891,1.0647,1.0036,0.9704,0.9822,1.0543,1.1809,1.3561,1.2879,1.3067,0.2592,0.0,0.0,0.0,0.0,0.0,0.0,0.0,0.0,0.0,0.0,0.0,0.0,0.0,0.0,0.0,0.0,0.0,0.0,0.0,0.0,0.0,0.0,0.0,0.0,0.0,0.0,0.0,0.8795,0.7575,0.6579,0.5691,0.5574,0.6349,0.705,0.786,0.8883,1.0369,1.0726,0.9986,1.0777,1.0719,0.9927,0.9927,0.988,0.9858,1.0312,1.0755,1.1178,1.1914,1.2379,1.2737,1.3188,1.272,1.1864,1.2225,1.2265,1.2063,1.1586,1.1586,1.1631,1.0857,1.0414,1.0281,1.0557,1.0408,1.0241,1.0241,1.0087,0.9927,0.9927,0.9927,0.9801,0.9257,0.8698,0.7962,0.6927,0.6278,0.5791,0.5488,0.5382,0.5386,0.5376,0.5372,0.5372,0.5428,0.5163,0.5096,0.5362,0.5075,0.4089,0.2123,0.0251,-0.2666,-0.7088,-0.8638,-0.9492,-0.9856,-0.9623,-0.7017,-0.1469,0.5742,0.9304,0.8551,0.8471,0.9084,1.0465,1.0775,1.1462,1.2479,1.1254,1.1242,0.0,0.0,0.0,0.0,0.0,0.0,0.0,0.7209,0.0,0.0,0.0,0.0,0.0,0.0,0.0,0.0,0.0,0.0,0.0,0.0,0.0,0.0,0.0,0.0,0.0,1.0155,0.9376,0.8981,0.7456,0.6209,0.5529,0.5013,0.5191,0.6227,0.6881,0.7681,0.8731,0.9822,1.0186,0.9686,1.0186,1.0293,1.0128,1.0128,1.0222,1.0375,1.0758,1.0942,1.0918,1.1601,1.2118,1.2538,1.2575,1.2069,1.1343,1.1471,1.1534,1.1519,1.1468,1.1526,1.1441,1.0838,1.0308,0.9967,1.014,1.0074,0.9933,0.9933,0.9813,0.9686,0.9686,0.9447,0.9143,0.8727,0.7951,0.724,0.6598,0.5467,0.4709,0.5185,0.4127,0.3487,0.4492,0.4985,0.5301,0.5359,0.5133,0.4948,0.4938,0.4964,0.4364,0.2761,-0.0914,-0.5139,-0.9735,-1.1253,-1.2128,-1.2633,-1.2808,-1.0188,-0.4206,0.3102,0.7515,0.8726,0.8441,0.8949,1.0325,0.9831,0.9848,1.0348,0.9395,0.9326,0.0,0.0,0.0,0.0,0.0,0.0,0.5731,0.627,0.0,0.0,0.0,0.0,0.0,0.0,0.0,0.0,0.0,0.0,0.0,0.0,0.0,0.0,0.0,0.0,0.971,0.8455,0.767,0.7563,0.6195,0.5109,0.4515,0.457,0.5277,0.6691,0.7107,0.7891,0.924,0.9566,0.9701,0.9586,0.9586,0.9916,1.0463,1.0576,1.08,1.1149,1.1194,1.1066,1.0864,1.1607,1.2289,1.2788,1.2163,1.1826,1.155,1.0842,1.1145,1.1837,1.1615,1.1726,1.1845,1.1005,1.0272,0.9748,0.9731,0.9659,0.9626,0.9593,0.9586,0.9586,0.9528,0.8997,0.8463,0.8288,0.7757,0.7116,0.668,0.484,0.3598,0.4361,0.2079,0.0663,0.2849,0.4291,0.5176,0.5311,0.5044,0.4671,0.4215,0.4702,0.4992,0.4549,-0.1482,-0.6948,-1.0472,-1.1676,-1.2226,-1.2226,-1.2633,-1.0604,-0.5461,-0.083,0.427,0.9938,0.9217,0.9015,0.951,0.8468,0.8045,0.8164,0.7475,0.7415,0.3948,0.4187,0.4482,0.5133,0.0,0.0,0.5702,0.6028,0.6341,0.0,0.0,0.0,0.0,0.0,0.0,0.0,0.0,0.0,0.0,0.0,0.0,0.0,0.0,0.0,0.9061,0.8203,0.7456,0.6858,0.5496,0.4625,0.4519,0.5003,0.5968,0.7346,0.8043,0.8831,0.9649,0.9768,0.9493,0.8978,0.8978,0.9025,0.9186,0.9751,1.0023,1.0112,1.0672,1.0879,1.0914,1.2092,1.2085,1.1285,1.1694,1.1182,1.0211,1.0053,1.0645,1.1465,1.0833,1.1374,1.2183,1.104,1.0453,1.0132,0.9778,0.9519,0.9279,0.9045,0.8978,0.8816,0.8256,0.7985,0.7592,0.6368,0.5981,0.5712,0.5069,0.3653,0.2186,0.1188,0.0428,0.0125,0.0625,0.331,0.5268,0.5033,0.3977,0.3145,0.3038,0.3399,0.2475,-0.0628,-0.4082,-0.743,-1.0556,-1.1447,-1.189,-1.189,-1.2516,-1.2397,-1.1283,-0.2947,0.3962,0.8964,0.8898,0.8511,0.7866,0.909,0.9751,0.9664,0.6478,0.5698,0.0,0.4883,0.5032,0.5603,0.0,0.0,0.0,0.0,0.6273,0.6536,0.0,0.0,0.0,0.0,0.0,0.0,0.0,0.0,0.0,0.0,0.0,0.0,0.0,0.0,0.8857,0.7777,0.6691,0.5609,0.4901,0.4519,0.4519,0.5109,0.6122,0.7547,0.8298,0.9058,0.9814,0.9814,0.9465,0.8804,0.8804,0.8956,0.9309,0.9666,1.0167,1.0813,1.0813,1.0965,1.1366,1.2385,1.219,1.1366,1.2043,1.1499,1.0312,1.0312,1.068,1.1146,1.1085,1.1507,1.2013,1.1043,1.0661,1.0401,0.9522,0.9145,0.8991,0.8844,0.8804,0.8646,0.7883,0.745,0.6853,0.576,0.5222,0.4908,0.4595,0.2711,0.0456,-0.1831,-0.2262,-0.1894,-0.0793,0.1212,0.2965,0.3691,0.3667,0.3078,0.1561,0.1525,0.0857,-0.1066,-0.6311,-0.9953,-1.0705,-1.1736,-1.205,-1.1375,-1.1941,-1.2526,-1.2874,-0.5466,0.1649,0.7955,0.817,0.7955,0.7503,0.783,0.78,0.7307,0.4577,0.3305,0.0,0.0,0.0,0.0,0.0,0.6206,0.0,0.0,0.0,0.6775,0.0,0.0,0.0,0.0,0.0,0.0,0.0,0.0,0.0,0.0,0.0,0.0,0.0,0.0,0.0,0.7389,0.5958,0.4622,0.4464,0.4457,0.4515,0.5273,0.6338,0.7753,0.8665,0.937,0.9969,1.0012,0.9614,0.8804,0.8804,0.9061,0.9614,0.9865,1.0568,1.1566,1.1065,1.1166,1.1855,1.2376,1.2288,1.1864,1.2686,1.2083,1.0813,1.0965,1.0914,1.0914,1.1566,1.1873,1.1873,1.1216,1.0914,1.0559,0.9361,0.8903,0.8738,0.8639,0.848,0.8209,0.745,0.6858,0.6263,0.5496,0.4622,0.3855,0.3697,0.1724,-0.0943,-0.415,-0.4601,-0.3922,-0.2147,-0.1296,-0.0176,0.1864,0.3018,0.2778,0.0291,0.0968,0.1342,0.0501,-0.6315,-1.0555,-0.9984,-1.1292,-1.1599,-1.0493,-1.104,-1.172,-1.2485,-0.613,0.0426,0.6993,0.7433,0.7511,0.7245,0.6269,0.5487,0.4831,0.2454,0.0558,0.0,0.0,0.0,0.0,0.6956,0.0,0.0,0.0,0.6551,0.6612,0.0,0.0,0.0,0.0,0.0,0.0,0.0,0.0,0.0,0.0,0.0,0.0,0.0,0.0,0.0,0.7159,0.5752,0.4604,0.4219,0.4185,0.4505,0.5769,0.7095,0.8515,0.9849,1.061,1.0669,1.0669,1.0064,0.8804,0.8804,0.8857,0.8956,1.0167,1.0771,1.0914,1.0813,1.1166,1.1805,1.1818,1.1828,1.1913,1.3178,1.2483,1.0864,1.1466,1.1316,1.0914,1.1566,1.2236,1.2666,1.1922,1.1266,1.0661,0.9909,0.9228,0.8587,0.7984,0.7343,0.6691,0.5923,0.5887,0.574,0.4805,0.3174,0.161,0.0723,0.0222,-0.1162,-0.5011,-0.5089,-0.4435,-0.4191,-0.4023,-0.2992,-0.0113,0.045,0.0393,0.0056,0.4563,0.6289,0.2346,-0.1186,-0.4241,-0.6691,-0.832,-0.9127,-0.8937,-0.957,-1.0291,-1.101,-0.1733,0.4263,0.6013,0.7111,0.7182,0.6119,0.5955,0.6,0.6036,0.0773,-0.2516,0.0,0.0,0.0,0.0,0.0,0.0,0.6827,0.0,0.6725,0.0,0.0,0.0,0.0,0.0,0.0,0.0,0.0,0.0,0.0,0.0,0.0,0.0,0.0,0.0,0.0,0.0,0.0,0.0,0.382,0.3837,0.3936,0.5242,0.6337,0.703,0.9249,1.0383,1.0163,1.0195,0.9909,0.9361,0.9008,0.9008,0.9413,0.9969,1.0669,1.1366,1.0568,1.0348,1.0612,1.0956,1.0655,1.0214,1.2366,1.2492,1.1458,1.2141,1.219,1.1984,1.2288,1.2851,1.3324,1.2638,1.1434,1.0269,1.0364,0.9325,0.8078,0.7771,0.7182,0.648,0.5887,0.5791,0.523,0.2552,0.1222,0.0333,-0.0666,-0.2216,-0.3935,-0.5567,-0.5791,-0.5563,-0.5179,-0.4757,-0.3755,-0.1618,-0.0559,0.0,0.0,0.3708,0.558,0.3721,0.2481,0.0218,-0.3627,-0.5374,-0.6483,-0.7046,-0.8419,-0.8549,-0.7116,-0.1322,0.3272,0.6229,0.6023,0.5618,0.5073,0.5073,0.5183,0.5175,0.0999,-0.2181,0.761,0.0,0.0,0.0,0.0,0.0,0.0,0.0,0.0,0.0,0.0,0.0,0.0,0.0,0.0,0.0,0.0,0.0,0.0,0.0,0.0,0.0,0.0,0.0,0.0,0.0,0.0,0.0,0.0,0.3485,0.3415,0.3814,0.4131,0.429,0.7289,0.8849,0.8837,0.9283,0.9496,0.951,0.9211,0.9316,0.9814,1.0167,1.0762,1.1466,1.0517,0.9828,0.9482,0.9944,0.9438,0.8665,1.1247,1.1818,1.134,1.2444,1.2928,1.3052,1.3062,1.3369,1.3684,1.3113,1.1742,1.0364,1.0493,0.9148,0.7599,0.7224,0.6583,0.5937,0.5631,0.5183,0.4281,0.1833,-0.0056,-0.1447,-0.2169,-0.4003,-0.5572,-0.5732,-0.5941,-0.5932,-0.5542,-0.4952,-0.4132,-0.3016,-0.1228,0.0,0.0,0.2238,0.4042,0.4455,0.4845,0.3405,-0.0662,-0.2749,-0.4457,-0.5806,-0.6968,-0.701,-0.5652,-0.1609,0.2119,0.5306,0.4986,0.4688,0.4519,0.4519,0.4522,0.4421,0.1838,-0.078,0.0,0.0,0.0,0.7513,0.0,0.0,0.0,0.0,0.6793,0.0,0.0,0.0,0.0,0.0,0.0,0.0,0.0,0.0,0.0,0.0,0.0,0.0,0.0,0.0,0.0,0.0,0.0,0.0,0.0,0.0,0.3189,0.1262,0.0207,0.0205,0.3693,0.5919,0.6597,0.8026,0.8758,0.8857,0.9465,0.9762,0.9865,1.1166,1.1416,1.0813,1.0762,0.9982,0.8731,0.8783,0.8298,0.7864,1.0023,1.0386,1.0038,1.2138,1.3208,1.3658,1.3758,1.3768,1.3684,1.3113,1.2353,1.1507,1.0148,0.8743,0.734,0.5968,0.5113,0.4574,0.4532,0.3461,0.2681,0.4051,-0.0111,-0.4383,-0.4383,-0.4477,-0.4736,-0.5378,-0.5003,-0.4787,-0.5378,-0.4937,-0.4457,-0.4435,-0.1903,0.0,0.0,0.1332,0.2828,0.4337,0.5742,0.5317,0.2339,-0.0612,-0.3284,-0.574,-0.5096,-0.587,-0.8527,-0.1709,0.2213,0.2343,0.4385,0.5164,0.4519,0.4519,0.4522,0.4477,0.2888,0.133,0.0,0.0,0.7862,0.7776,0.0,0.0,0.0,0.0,0.0,0.0,0.0,0.0,0.0,0.0,0.0,0.0,0.0,0.0,0.0,0.0,0.0,0.0,0.0,0.0,0.0,0.0,0.0,0.0,0.2196,0.0,0.0,0.0229,-0.0243,-0.0782,0.1048,0.3018,0.5018,0.6072,0.7295,0.8758,0.9444,1.0012,1.0517,1.1416,1.1931,1.2157,1.1174,1.001,0.8691,0.8758,0.8025,0.7101,0.8763,0.9511,0.9883,1.2064,1.2628,1.2387,1.2396,1.2132,1.1756,1.1575,1.0695,0.9651,0.9186,0.7712,0.6126,0.5647,0.5003,0.4522,0.4477,0.335,0.2063,0.1618,-0.078,-0.3244,-0.4258,-0.4974,-0.5517,-0.5732,-0.5601,-0.5483,-0.5727,-0.5859,-0.5199,-0.3297,-0.2972,-0.2244,-0.028,0.2179,0.3925,0.4455,0.4905,0.4782,0.3819,-0.0836,-0.4086,-0.4919,-0.4076,-0.3968,-0.493,-0.1277,0.0723,0.0723,0.3461,0.4705,0.4473,0.4473,0.4477,0.448,0.3962,0.2391,0.8813,0.8557,0.0,0.8228,0.7637,0.0,0.7141,0.0,0.0,0.0,0.0,0.0,0.0,0.0,0.0,0.0,0.0,0.0,0.0,0.0,0.0,0.0,0.0,0.0,0.0,0.0,0.2863,0.1958,0.0,0.0,0.0,0.0,-0.1432,-0.1844,-0.0915,0.0623,0.2881,0.4171,0.6101,0.8752,0.9444,1.0143,1.0813,1.1774,1.2197,1.2098,1.1174,0.9864,0.8344,0.8402,0.7557,0.6362,0.7782,0.8279,0.8553,1.0605,1.1329,1.1379,1.1644,1.1472,1.104,1.0535,0.9658,0.8626,0.8088,0.6817,0.5433,0.5218,0.4842,0.4522,0.448,0.3749,0.2512,0.0502,-0.0725,-0.2009,-0.4036,-0.4986,-0.525,-0.4677,-0.4601,-0.4765,-0.5305,-0.5665,-0.5049,-0.2565,-0.2575,-0.2413,-0.0953,0.0895,0.19,0.1342,0.2237,0.2458,0.1394,-0.2286,-0.4487,-0.448,-0.391,-0.3516,-0.3519,-0.1615,-0.0556,-0.0556,0.2063,0.3413,0.3456,0.4467,0.4812,0.4484,0.3701,0.2148]}]]